[[{"header":{"parameterUnit":"m.s-1","parameterCategory":1,"la1":31.0,"la2":29.5877,"lo1":-88.7671,"lo2":-86.6584,"dy":0.0162,"dx":0.0185,"nx":115,"ny":88,"refTime":"2023-07-15T06:00:00:Z","depth":0,"parameterNumber":2,"parameterNumberName":"U-component_of_WINDS"},"data":[0.0,0.0,0.0,0.0,0.0,0.0,0.0,0.0,0.0,0.0,0.0,0.0,0.0,0.0,0.0,0.0,0.0,0.0,0.0,0.0,0.0,0.0,0.0,0.0,0.0,0.0,0.0,0.0,0.0,0.0,0.0,0.0,0.0,0.0,0.0,0.0,0.0,0.0,0.0,0.0,0.0,0.0,0.0,0.0,0.0,0.0,0.0,0.0,0.0,0.0,0.0,0.0,0.0,0.0,0.0,0.0,0.0,0.0,0.0,0.0,0.0,0.0,0.0,0.0,0.0,0.0,0.0,0.0,0.0,0.0,0.0,0.0,0.0,0.0,0.0,0.0,0.0,0.0,0.0,0.0,0.0,0.0,0.0,0.0,0.0,0.0,0.0,0.0,0.0,0.0,0.0,0.0,0.0,0.0,0.0,0.0,0.0,0.0,0.0,0.0,0.0,0.0,0.0,0.0,0.0,0.0,0.0,0.0,0.0,0.0,0.0,0.0,0.0,0.0,0.0,0.0,0.0,0.0,0.0,0.0,0.0,0.0,0.0,0.0,0.0,0.0,0.0,0.0,0.0,0.0,0.0,0.0,0.0,0.0,0.0,0.0,0.0,0.0,0.0,0.0,0.0,0.0,0.0,0.0,0.0,0.0,0.0,0.0,0.0,0.0,0.0,0.0,0.0,0.0,0.0,0.0,0.0,0.0,0.0,0.0,0.0,0.0,0.0,0.0,0.0,0.0,0.0,0.0,0.0,0.0,0.0,0.0,0.0,0.0,0.0,0.0,0.0,0.0,0.0,0.0,0.0,0.0,0.0,0.0,0.0,0.0,0.0,0.0,0.0,0.0,0.0,0.0,0.0,0.0,0.0,0.0,0.0,0.0,0.0,0.0,0.0,0.0,0.0,0.0,0.0,0.0,0.0,0.0,0.0,0.0,0.0,0.0,0.0,0.0,0.0,0.0,0.0,0.0,0.0,0.0,0.0,0.0,0.0,0.0,0.0,0.0,0.0,0.0,0.0,0.0,0.0,0.0,0.0,0.0,0.0,0.0,0.0,0.0,0.0,0.0,0.0,0.0,0.0,0.0,0.0,0.0,0.0,0.0,0.0,0.0,0.0,0.0,0.0,0.0,0.0,0.0,0.0,0.0,0.0,0.0,0.0,0.0,0.0,0.0,0.0,0.0,0.0,0.0,0.0,0.0,0.0,0.0,0.0,0.0,0.0,0.0,0.0,0.0,0.0,0.0,0.0,0.0,0.0,0.0,0.0,0.0,0.0,0.0,0.0,0.0,0.0,0.0,0.0,0.0,0.0,0.0,0.0,0.0,0.0,0.0,0.0,0.0,0.0,0.0,0.0,0.0,0.0,0.0,0.0,0.0,0.0,0.0,0.0,0.0,0.0,0.0,0.0,0.0,0.0,0.0,0.0,0.0,0.0,0.0,0.0,0.0,0.0,0.0,0.0,0.0,0.0,0.0,0.0,0.0,0.0,0.0,0.0,0.0,0.0,0.0,0.0,0.0,0.0,0.0,0.0,0.0,0.0,0.0,0.0,0.0,0.0,0.0,0.0,0.0,0.0,0.0,0.0,0.0,0.0,0.0,0.0,0.0,0.0,0.0,0.0,0.0,0.0,0.0,0.0,0.0,0.0,0.0,0.0,0.0,0.0,0.0,0.0,0.0,0.0,0.0,0.0,0.0,0.0,0.0,0.0,0.0,0.0,0.0,0.0,0.0,0.0,0.0,0.0,0.0,0.0,0.0,0.0,0.0,0.0,0.0,0.0,0.0,0.0,0.0,0.0,0.0,0.0,0.0,0.0,0.0,0.0,0.0,0.0,0.0,0.0,0.0,0.0,0.0,0.0,0.0,0.0,0.0,0.0,0.0,0.0,0.0,0.0,0.0,0.0,0.0,0.0,0.0,0.0,0.0,0.0,0.0,0.0,0.0,0.0,0.0,0.0,0.0,0.0,0.0,0.0,0.0,0.0,0.0,0.0,0.0,0.0,0.0,0.0,0.0,0.0,0.0,0.0,0.0,0.0,0.0,0.0,0.0,0.0,0.0,0.0,0.0,0.0,0.0,0.0,0.0,0.0,0.0,0.0,0.0,0.0,0.0,0.0,0.0,0.0,0.0,0.0,0.0,0.0,0.0,0.0,0.0,0.0,0.0,0.0,0.0,0.0,0.0,0.0,0.0,0.0,0.0,0.0,0.0,0.0,0.0,0.0,0.0,0.0,0.0,0.0,0.0,0.0,0.0,0.0,0.0,0.0,0.0,0.0,0.0,0.0,0.0,0.0,0.0,0.0,0.0,0.0,0.0,0.0,0.0,0.0,0.0,0.0,0.0,0.0,0.0,0.0,0.0,0.0,0.0,0.0,0.0,0.0,0.0,0.0,0.0,0.0,0.0,0.0,0.0,0.0,0.0,0.0,0.0,0.0,0.0,0.0,0.0,0.0,0.0,0.0,0.0,0.0,0.0,0.0,0.0,0.0,0.0,0.0,0.0,0.0,0.0,0.0,0.0,0.0,0.0,0.0,0.0,0.0,0.0,0.0,0.0,0.0,0.0,0.0,0.0,0.0,0.0,0.0,0.0,0.0,0.0,0.0,0.0,0.0,0.0,0.0,0.0,0.0,0.0,0.0,0.0,0.0,0.0,0.0,0.0,0.0,0.0,0.0,0.0,0.0,0.0,0.0,0.0,0.0,0.0,0.0,0.0,0.0,0.0,0.0,0.0,0.0,0.0,0.0,0.0,0.0,0.0,0.0,0.0,0.0,0.0,0.0,0.0,0.0,0.0,0.0,0.0,0.0,0.0,0.0,0.0,0.0,0.0,0.0,0.0,0.0,0.0,0.0,0.0,0.0,0.0,0.0,0.0,0.0,0.0,0.0,0.0,0.0,0.0,0.0,0.0,0.0,0.0,0.0,0.0,0.0,0.0,0.0,0.0,0.0,0.0,0.0,0.0,0.0,0.0,0.0,0.0,0.0,0.0,0.0,0.0,0.0,0.0,0.0,0.0,0.0,0.0,0.0,0.0,0.0,0.0,0.0,0.0,0.0,0.0,0.0,0.0,0.0,0.0,0.0,0.0,0.0,0.0,0.0,0.0,0.0,0.0,0.0,0.0,0.0,0.0,0.0,0.0,0.0,0.0,0.0,0.0,0.0,0.0,0.0,0.0,0.0,0.0,0.0,0.0,0.0,0.0,0.0,0.0,0.0,0.0,0.0,0.0,0.0,0.0,0.0,0.0,0.0,0.0,0.0,0.0,0.0,0.0,0.0,0.0,0.0,0.0,0.0,0.0,0.0,0.0,0.0,0.0,0.0,0.0,0.0,0.0,0.0,0.0,0.0,0.0,0.0,0.0,0.0,0.0,0.0,0.0,0.0,0.0,0.0,0.0,0.0,0.0,0.0,0.0,0.0,0.0,0.0,0.0,0.0,0.0,0.0,0.0,0.0,0.0,0.0,0.0,0.0,0.0,0.0,0.0,0.0,0.0,0.0,0.0,0.0,0.0,0.0,0.0,0.0,0.0,0.0,0.0,0.0,0.0,0.0,0.0,0.0,0.0,0.0,0.0,0.0,0.0,0.0,0.0,0.0,0.0,0.0,0.0,0.0,0.0,0.0,0.0,0.0,0.0,0.0,0.0,0.0,0.0,0.0,0.0,0.0,0.0,0.0,0.0,0.0,0.0,0.0,0.0,0.0,0.0,0.0,0.0,0.0,0.0,0.0,0.0,0.0,0.0,0.0,0.0,0.0,0.0,0.0,0.0,0.0,0.0,0.0,0.0,0.0,0.0,0.0,0.0,0.0,0.0,0.0,0.0,0.0,0.0,0.0,0.0,0.0,0.0,0.0,0.0,0.0,0.0,0.0,0.0,0.0,0.0,0.0,0.0,0.0,0.0,0.0,0.0,0.0,0.0,0.0,0.0,0.0,0.0,0.0,0.0,0.0,0.0,0.0,0.0,0.0,0.0,0.0,0.0,0.0,0.0,0.0,0.0,0.0,0.0,0.0,0.0,0.0,0.0,0.0,0.0,0.0,0.0,0.0,0.0,0.0,0.0,0.0,0.0,0.0,0.0,0.0,0.0,0.0,0.0,0.0,0.0,0.0,0.0,0.0,0.0,0.0,0.0,0.0,0.0,0.0,0.0,0.0,0.0,0.0,0.0,0.0,0.0,0.0,0.0,0.0,0.0,0.0,0.0,0.0,0.0,0.0,0.0,0.0,0.0,0.0,0.0,0.0,0.0,0.0,0.0,0.0,0.0,0.0,0.0,0.0,0.0,-1.0589,0.0,0.0,0.0,0.0,0.0,0.0,0.0,0.0,0.0,0.0,0.0,0.0,0.0,0.0,0.0,0.0,0.0,0.0,0.0,0.0,0.0,0.0,0.0,0.0,0.0,0.0,0.0,0.0,0.0,0.0,0.0,0.0,0.0,0.0,0.0,0.0,0.0,0.0,0.0,0.0,0.0,0.0,0.0,0.0,0.0,0.0,0.0,0.0,0.0,0.0,0.0,0.0,0.0,0.0,0.0,0.0,0.0,0.0,0.0,0.0,0.0,0.0,0.0,0.0,0.0,0.0,0.0,0.0,0.0,0.0,0.0,0.0,0.0,0.0,0.0,0.0,0.0,0.0,0.0,0.0,0.0,0.0,0.0,0.0,0.0,0.0,0.0,0.0,0.0,0.0,0.0,0.0,0.0,0.0,0.0,0.0,0.0,0.0,0.0,0.0,0.0,0.0,0.0,0.0,0.0,0.0,0.0,0.0,0.0,0.0,-1.0589,-1.0589,-1.0589,-1.0589,-1.0589,0.0,0.0,0.0,0.0,0.0,0.0,0.0,0.0,0.0,0.0,0.0,0.0,0.0,0.0,0.0,0.0,0.0,0.0,0.0,0.0,0.0,0.0,0.0,0.0,0.0,0.0,0.0,0.0,0.0,0.0,0.0,0.0,0.0,0.0,0.0,0.0,0.0,0.0,0.0,0.0,0.0,0.0,0.0,0.0,0.0,0.0,0.0,0.0,0.0,0.0,0.0,0.0,0.0,0.0,0.0,0.0,0.0,0.0,0.0,0.0,0.0,0.0,0.0,0.0,0.0,0.0,0.0,0.0,0.0,0.0,0.0,0.0,0.0,0.0,0.0,0.0,0.0,0.0,0.0,0.0,0.0,0.0,0.0,0.0,0.0,0.0,0.0,0.0,0.0,0.0,0.0,0.0,0.0,0.0,0.0,0.0,0.0,0.0,0.0,0.0,0.0,0.0,0.0,0.0,0.0,0.0,0.0,0.0,0.0,0.0,0.0,0.0,-1.0716,-1.0589,-1.0589,0.0,0.0,0.0,0.0,0.0,0.0,0.0,0.0,0.0,0.0,0.0,0.0,0.0,0.0,0.0,0.0,0.0,0.0,0.0,0.0,0.0,0.0,0.0,0.0,0.0,0.0,0.0,0.0,0.0,0.0,0.0,0.0,0.0,0.0,0.0,0.0,0.0,0.0,0.0,0.0,0.0,0.0,0.0,0.0,0.0,0.0,0.0,0.0,0.0,0.0,0.0,0.0,0.0,0.0,0.0,0.0,0.0,0.0,0.0,0.0,0.0,0.0,0.0,0.0,0.0,0.0,0.0,0.0,0.0,0.0,0.0,0.0,0.0,0.0,0.0,0.0,0.0,0.0,0.0,0.0,0.0,0.0,0.0,0.0,0.0,0.0,0.0,0.0,0.0,0.0,0.0,0.0,0.0,0.0,0.0,0.0,0.0,0.0,0.0,0.0,0.0,0.0,0.0,0.0,0.0,0.0,0.0,0.0,0.0,0.0,-1.0954,-1.1652,-1.0982,0.0,-1.0589,0.0,0.0,0.0,0.0,0.0,0.0,0.0,0.0,0.0,0.0,0.0,0.0,0.0,0.0,0.0,0.0,0.0,0.0,0.0,0.0,0.0,0.0,0.0,0.0,0.0,0.0,0.0,0.0,0.0,0.0,0.0,0.0,0.0,0.0,0.0,0.0,0.0,0.0,0.0,0.0,0.0,0.0,0.0,0.0,0.0,0.0,0.0,0.0,0.0,0.0,0.0,0.0,0.0,0.0,0.0,0.0,0.0,0.0,0.0,0.0,0.0,0.0,0.0,0.0,0.0,0.0,0.0,0.0,0.0,0.0,0.0,0.0,0.0,0.0,0.0,0.0,0.0,0.0,0.0,0.0,0.0,0.0,0.0,0.0,0.0,0.0,0.0,0.0,0.0,0.0,0.0,0.0,0.0,0.0,0.0,0.0,0.0,0.0,0.0,0.0,0.0,0.0,0.0,0.0,0.0,0.0,0.0,0.0,0.0,0.0,-1.2162,-1.2516,-1.2185,-1.2031,0.0,0.0,0.0,0.0,0.0,0.0,0.0,0.0,0.0,0.0,0.0,0.0,0.0,0.0,0.0,0.0,0.0,0.0,0.0,0.0,0.0,0.0,0.0,0.0,0.0,0.0,0.0,0.0,0.0,0.0,0.0,0.0,0.0,0.0,0.0,0.0,0.0,0.0,0.0,0.0,0.0,0.0,0.0,0.0,0.0,0.0,0.0,0.0,0.0,0.0,0.0,0.0,0.0,0.0,0.0,0.0,0.0,0.0,0.0,0.0,0.0,0.0,0.0,0.0,0.0,0.0,0.0,0.0,0.0,0.0,0.0,0.0,0.0,0.0,0.0,0.0,0.0,0.0,0.0,0.0,0.0,0.0,0.0,0.0,0.0,0.0,0.0,0.0,0.0,0.0,0.0,0.0,0.0,0.0,0.0,0.0,0.0,0.0,0.0,0.0,0.0,0.0,0.0,0.0,0.0,0.0,0.0,0.0,0.0,0.0,-1.3139,-1.3463,-1.3021,-1.3217,-1.3217,-1.3005,0.0,0.0,0.0,0.0,0.0,0.0,0.0,0.0,0.0,0.0,0.0,0.0,0.0,0.0,0.0,0.0,0.0,0.0,0.0,0.0,0.0,0.0,0.0,0.0,0.0,0.0,0.0,0.0,0.0,0.0,0.0,0.0,0.0,0.0,0.0,0.0,0.0,0.0,0.0,0.0,0.0,0.0,0.0,0.0,0.0,0.0,0.0,0.0,0.0,0.0,0.0,0.0,0.0,0.0,0.0,0.0,0.0,0.0,0.0,0.0,0.0,0.0,0.0,0.0,0.0,0.0,0.0,0.0,0.0,0.0,0.0,0.0,0.0,0.0,0.0,0.0,0.0,0.0,0.0,0.0,0.0,0.0,0.0,0.0,0.0,0.0,0.0,0.0,0.0,0.0,0.0,0.0,0.0,0.0,0.0,0.0,0.0,0.0,0.0,0.0,0.0,0.0,0.0,0.0,0.0,0.0,0.0,0.0,-1.2913,-1.4454,-1.4568,-1.3143,-1.3765,-1.379,0.0,0.0,0.0,0.0,0.0,0.0,0.0,0.0,0.0,0.0,0.0,0.0,0.0,0.0,0.0,0.0,0.0,0.0,0.0,0.0,0.0,0.0,0.0,0.0,0.0,0.0,0.0,0.0,0.0,0.0,0.0,0.0,0.0,0.0,0.0,0.0,0.0,0.0,0.0,0.0,0.0,0.0,0.0,0.0,0.0,0.0,0.0,0.0,0.0,0.0,0.0,0.0,0.0,0.0,0.0,0.0,0.0,0.0,0.0,0.0,0.0,0.0,0.0,0.0,0.0,0.0,0.0,0.0,0.0,0.0,0.0,0.0,0.0,0.0,0.0,0.0,0.0,0.0,0.0,0.0,0.0,0.0,0.0,0.0,0.0,0.0,0.0,0.0,0.0,0.0,0.0,0.0,0.0,0.0,0.0,0.0,0.0,0.0,0.0,0.0,0.0,0.0,0.0,0.0,0.0,0.0,0.0,0.0,0.0,-1.3726,-1.4838,-1.5144,-1.4574,-1.4844,-1.484,0.0,0.0,0.0,0.0,0.0,0.0,0.0,0.0,0.0,0.0,0.0,0.0,0.0,0.0,0.0,0.0,0.0,0.0,0.0,0.0,0.0,0.0,0.0,0.0,0.0,0.0,0.0,0.0,0.0,0.0,0.0,0.0,0.0,0.0,0.0,0.0,0.0,0.0,0.0,0.0,0.0,0.0,0.0,0.0,0.0,0.0,0.0,0.0,0.0,0.0,0.0,0.0,0.0,0.0,0.0,0.0,0.0,0.0,0.0,0.0,0.0,0.0,0.0,0.0,0.0,0.0,0.0,0.0,0.0,0.0,0.0,0.0,0.0,0.0,0.0,0.0,0.0,0.0,0.0,0.0,0.0,0.0,0.0,0.0,0.0,0.0,0.0,0.0,0.0,0.0,0.0,0.0,0.0,0.0,0.0,0.0,0.0,0.0,0.0,0.0,0.0,0.0,0.0,0.0,0.0,0.0,0.0,0.0,0.0,-1.4569,0.0,-1.5415,-1.5415,-1.5415,-1.5415,0.0,0.0,0.0,0.0,0.0,0.0,0.0,0.0,0.0,0.0,0.0,0.0,0.0,0.0,0.0,0.0,0.0,0.0,0.0,0.0,0.0,0.0,0.0,0.0,0.0,0.0,0.0,0.0,0.0,0.0,0.0,0.0,0.0,0.0,0.0,0.0,0.0,0.0,0.0,0.0,0.0,0.0,0.0,0.0,0.0,0.0,0.0,0.0,0.0,0.0,0.0,0.0,0.0,0.0,0.0,0.0,0.0,0.0,0.0,0.0,0.0,0.0,0.0,0.0,0.0,0.0,0.0,0.0,0.0,0.0,0.0,0.0,0.0,0.0,0.0,0.0,0.0,0.0,0.0,0.0,0.0,0.0,0.0,0.0,0.0,0.0,0.0,0.0,0.0,0.0,0.0,0.0,0.0,0.0,0.0,0.0,0.0,0.0,0.0,0.0,0.0,0.0,0.0,0.0,0.0,0.0,0.0,0.0,-1.5386,-1.5386,-1.5386,-1.5415,-1.5415,-1.5415,-1.5415,0.0,0.0,0.0,0.0,0.0,0.0,0.0,0.0,0.0,0.0,0.0,0.0,0.0,0.0,0.0,0.0,0.0,0.0,0.0,0.0,0.0,0.0,0.0,0.0,0.0,0.0,0.0,0.0,0.0,0.0,0.0,0.0,0.0,0.0,0.0,0.0,0.0,0.0,0.0,0.0,0.0,0.0,0.0,0.0,0.0,0.0,0.0,0.0,0.0,0.0,0.0,0.0,0.0,0.0,0.0,0.0,0.0,0.0,0.0,0.0,0.0,0.0,0.0,0.0,0.0,0.0,0.0,0.0,0.0,0.0,0.0,0.0,0.0,0.0,0.0,0.0,0.0,0.0,0.0,0.0,0.0,0.0,0.0,0.0,0.0,0.0,0.0,0.0,0.0,0.0,0.0,0.0,0.0,0.0,0.0,0.0,0.0,0.0,0.0,0.0,0.0,0.0,0.0,0.0,0.0,0.0,0.0,0.0,0.0,-1.5415,-1.5415,-1.5415,-1.5415,-1.5415,-1.5415,0.0,0.0,0.0,0.0,0.0,0.0,0.0,0.0,0.0,0.0,0.0,0.0,0.0,0.0,0.0,0.0,0.0,0.0,0.0,0.0,0.0,0.0,0.0,0.0,0.0,0.0,0.0,0.0,0.0,0.0,0.0,0.0,0.0,0.0,0.0,0.0,0.0,0.0,0.0,0.0,0.0,0.0,0.0,0.0,0.0,0.0,0.0,0.0,0.0,0.0,0.0,0.0,0.0,0.0,0.0,0.0,0.0,0.0,0.0,0.0,0.0,0.0,0.0,0.0,0.0,0.0,0.0,0.0,0.0,0.0,0.0,0.0,0.0,0.0,0.0,0.0,0.0,0.0,0.0,0.0,0.0,0.0,0.0,0.0,0.0,0.0,0.0,0.0,0.0,0.0,0.0,0.0,0.0,0.0,0.0,0.0,0.0,0.0,0.0,0.0,0.0,0.0,0.0,0.0,0.0,0.0,0.0,0.0,0.0,-1.5415,-1.5415,-1.5415,-1.5415,-1.5415,-1.5415,-1.5415,0.0,0.0,0.0,0.0,0.0,0.0,0.0,0.0,0.0,0.0,0.0,0.0,0.0,0.0,0.0,0.0,0.0,0.0,0.0,0.0,0.0,0.0,0.0,0.0,0.0,0.0,0.0,0.0,0.0,0.0,0.0,0.0,0.0,0.0,0.0,0.0,0.0,0.0,0.0,0.0,0.0,0.0,0.0,0.0,0.0,0.0,0.0,0.0,0.0,0.0,0.0,0.0,0.0,0.0,0.0,0.0,0.0,0.0,0.0,0.0,0.0,0.0,0.0,0.0,0.0,0.0,0.0,0.0,0.0,0.0,0.0,0.0,0.0,0.0,0.0,0.0,0.0,0.0,0.0,0.0,0.0,0.0,0.0,0.0,0.0,0.0,0.0,0.0,0.0,0.0,0.0,0.0,0.0,0.0,0.0,0.0,0.0,0.0,0.0,0.0,0.0,0.0,0.0,0.0,0.0,0.0,0.0,0.0,-1.5415,-1.5415,-1.5415,-1.5415,-1.5415,-1.5415,0.0,0.0,0.0,0.0,0.0,0.0,0.0,0.0,0.0,0.0,0.0,0.0,0.0,0.0,0.0,0.0,0.0,0.0,0.0,0.0,0.0,0.0,0.0,0.0,0.0,0.0,0.0,0.0,0.0,0.0,0.0,0.0,0.0,0.0,0.0,0.0,0.0,0.0,0.0,0.0,0.0,0.0,0.0,0.0,0.0,0.0,0.0,0.0,0.0,0.0,0.0,0.0,0.0,0.0,0.0,0.0,0.0,0.0,0.0,0.0,0.0,0.0,0.0,0.0,0.0,0.0,0.0,0.0,0.0,0.0,0.0,0.0,0.0,0.0,0.0,0.0,0.0,0.0,0.0,0.0,0.0,0.0,0.0,0.0,0.0,0.0,0.0,0.0,0.0,0.0,0.0,0.0,0.0,0.0,0.0,0.0,0.0,0.0,0.0,0.0,0.0,0.0,0.0,0.0,0.0,0.0,0.0,0.0,0.0,-1.5415,-1.5415,-1.5415,-1.5415,-1.5415,-1.5415,0.0,0.0,0.0,0.0,0.0,0.0,0.0,0.0,0.0,0.0,0.0,0.0,0.0,0.0,0.0,0.0,0.0,0.0,0.0,0.0,0.0,0.0,0.0,0.0,0.0,0.0,0.0,0.0,0.0,0.0,0.0,0.0,0.0,0.0,0.0,0.0,0.0,0.0,0.0,0.0,0.0,0.0,0.0,0.0,0.0,0.0,0.0,0.0,0.0,0.0,0.0,0.0,0.0,0.0,0.0,0.0,0.0,0.0,0.0,0.0,0.0,0.0,0.0,0.0,0.0,0.0,0.0,0.0,0.0,0.0,0.0,0.0,0.0,0.0,0.0,0.0,0.0,0.0,0.0,0.0,0.0,0.0,0.0,0.0,0.0,0.0,0.0,0.0,0.0,0.0,0.0,0.0,0.0,0.0,0.0,0.0,0.0,0.0,0.0,0.0,0.0,0.0,0.0,0.0,0.0,0.0,0.0,0.0,-1.5415,-1.5415,-1.5415,-1.5415,-1.5415,-1.5415,-1.5415,0.0,0.0,0.0,0.0,0.0,0.0,0.0,0.0,0.0,0.0,0.0,0.0,0.0,0.0,0.0,0.0,0.0,0.0,0.0,0.0,0.0,0.0,0.0,0.0,0.0,0.0,0.0,0.0,0.0,0.0,0.0,0.0,0.0,0.0,0.0,0.0,0.0,0.0,0.0,0.0,0.0,0.0,0.0,0.0,0.0,0.0,0.0,0.0,0.0,0.0,0.0,0.0,0.0,0.0,0.0,0.0,0.0,0.0,0.0,0.0,0.0,0.0,0.0,0.0,0.0,0.0,0.0,0.0,0.0,0.0,0.0,0.0,0.0,0.0,0.0,0.0,0.0,0.0,0.0,0.0,0.0,0.0,0.0,0.0,0.0,0.0,0.0,0.0,0.0,0.0,0.0,0.0,0.0,0.0,0.0,0.0,0.0,0.0,0.0,0.0,0.0,0.0,0.0,0.0,0.0,0.0,0.0,0.0,-1.5415,-1.5415,-1.5415,-1.5415,-1.5415,-1.5415,-1.5415,0.0,0.0,0.0,0.0,0.0,0.0,0.0,0.0,0.0,0.0,0.0,0.0,0.0,0.0,0.0,0.0,0.0,0.0,0.0,0.0,0.0,0.0,0.0,0.0,0.0,0.0,0.0,0.0,0.0,0.0,0.0,0.0,0.0,0.0,0.0,0.0,0.0,0.0,0.0,0.0,0.0,0.0,0.0,0.0,0.0,0.0,0.0,0.0,0.0,0.0,0.0,0.0,0.0,0.0,0.0,0.0,0.0,0.0,0.0,0.0,0.0,0.0,0.0,0.0,0.0,0.0,0.0,0.0,0.0,0.0,0.0,0.0,0.0,0.0,0.0,0.0,0.0,0.0,0.0,0.0,0.0,0.0,0.0,0.0,0.0,0.0,0.0,0.0,0.0,0.0,0.0,0.0,0.0,0.0,0.0,0.0,0.0,0.0,0.0,0.0,0.0,0.0,0.0,0.0,0.0,0.0,0.0,0.0,-1.5415,-1.5415,-1.5415,-1.5415,-1.5415,-1.5415,-1.5415,0.0,0.0,0.0,0.0,0.0,0.0,0.0,0.0,0.0,0.0,0.0,0.0,0.0,0.0,0.0,0.0,0.0,0.0,0.0,0.0,0.0,0.0,0.0,0.0,0.0,0.0,0.0,0.0,0.0,0.0,0.0,0.0,0.0,0.0,0.0,0.0,0.0,0.0,0.0,0.0,0.0,0.0,0.0,0.0,0.0,0.0,0.0,0.0,-1.6787,0.0,0.0,0.0,0.0,0.0,0.0,0.0,0.0,0.0,0.0,0.0,0.0,0.0,0.0,0.0,0.0,0.0,0.0,0.0,0.0,0.0,0.0,0.0,0.0,0.0,0.0,0.0,0.0,0.0,0.0,0.0,0.0,0.0,0.0,0.0,0.0,0.0,0.0,0.0,0.0,0.0,0.0,0.0,0.0,0.0,0.0,0.0,0.0,0.0,0.0,0.0,0.0,0.0,0.0,0.0,0.0,0.0,0.0,0.0,-1.5415,-1.5415,-1.5415,-1.5415,-1.5415,-1.5415,-1.5415,0.0,0.0,0.0,0.0,0.0,0.0,0.0,0.0,0.0,0.0,0.0,0.0,0.0,0.0,0.0,0.0,0.0,0.0,0.0,0.0,0.0,0.0,0.0,0.0,0.0,0.0,0.0,0.0,0.0,0.0,0.0,0.0,0.0,0.0,0.0,0.0,0.0,0.0,0.0,0.0,0.0,0.0,0.0,0.0,0.0,0.0,0.0,0.0,0.0,0.0,0.0,0.0,0.0,0.0,0.0,0.0,0.0,0.0,0.0,0.0,0.0,0.0,0.0,0.0,0.0,0.0,0.0,0.0,0.0,0.0,0.0,0.0,0.0,0.0,0.0,0.0,0.0,0.0,0.0,0.0,0.0,0.0,0.0,0.0,0.0,0.0,0.0,0.0,0.0,0.0,0.0,0.0,0.0,0.0,0.0,0.0,0.0,0.0,0.0,0.0,0.0,0.0,0.0,0.0,0.0,0.0,0.0,-1.5415,-1.5415,-1.5415,-1.5415,-1.5415,-1.5415,-1.5415,-1.5415,-1.5415,0.0,0.0,0.0,0.0,0.0,0.0,0.0,0.0,0.0,0.0,0.0,0.0,0.0,0.0,0.0,0.0,0.0,0.0,0.0,0.0,0.0,0.0,0.0,0.0,0.0,0.0,0.0,0.0,0.0,0.0,0.0,0.0,0.0,0.0,0.0,0.0,0.0,0.0,-1.6562,-1.7224,0.0,0.0,0.0,0.0,0.0,0.0,0.0,0.0,-1.8274,0.0,0.0,0.0,0.0,0.0,0.0,0.0,0.0,0.0,0.0,0.0,0.0,0.0,0.0,0.0,0.0,0.0,0.0,0.0,0.0,0.0,0.0,0.0,0.0,0.0,0.0,0.0,0.0,0.0,0.0,0.0,0.0,0.0,0.0,0.0,0.0,0.0,0.0,0.0,0.0,0.0,0.0,0.0,0.0,0.0,0.0,0.0,0.0,0.0,0.0,0.0,0.0,0.0,0.0,0.0,0.0,-1.5415,-1.5415,-1.5415,-1.5415,-1.5415,-1.5415,-1.5415,-1.5415,-1.5415,-1.5415,0.0,0.0,0.0,0.0,0.0,0.0,0.0,0.0,0.0,0.0,0.0,0.0,0.0,0.0,0.0,0.0,0.0,0.0,0.0,0.0,0.0,0.0,0.0,0.0,0.0,0.0,0.0,0.0,0.0,0.0,0.0,0.0,0.0,0.0,0.0,0.0,0.0,0.0,0.0,-1.7528,-1.7792,0.0,0.0,0.0,0.0,0.0,0.0,0.0,0.0,-1.9208,0.0,0.0,0.0,0.0,0.0,0.0,0.0,0.0,0.0,0.0,0.0,0.0,0.0,0.0,0.0,0.0,0.0,0.0,0.0,0.0,0.0,0.0,0.0,0.0,0.0,0.0,0.0,0.0,0.0,0.0,0.0,0.0,0.0,0.0,0.0,0.0,0.0,0.0,0.0,0.0,0.0,0.0,0.0,0.0,0.0,0.0,0.0,0.0,0.0,0.0,0.0,0.0,0.0,0.0,0.0,-1.5415,-1.5415,-1.5415,-1.5415,-1.5415,-1.5415,-1.5415,-1.5415,-1.5415,0.0,0.0,0.0,0.0,0.0,0.0,0.0,0.0,0.0,0.0,0.0,0.0,0.0,0.0,0.0,0.0,0.0,0.0,0.0,0.0,0.0,0.0,0.0,0.0,0.0,0.0,0.0,0.0,0.0,0.0,0.0,0.0,0.0,0.0,0.0,0.0,0.0,0.0,0.0,0.0,-1.8248,-1.8741,-1.8727,0.0,0.0,0.0,0.0,0.0,0.0,-1.9313,-1.9553,0.0,0.0,0.0,0.0,0.0,0.0,0.0,0.0,0.0,0.0,0.0,0.0,0.0,0.0,0.0,0.0,0.0,0.0,0.0,0.0,0.0,0.0,0.0,0.0,0.0,0.0,0.0,0.0,0.0,0.0,0.0,0.0,0.0,0.0,0.0,0.0,0.0,0.0,0.0,0.0,0.0,0.0,0.0,0.0,0.0,0.0,0.0,0.0,0.0,0.0,0.0,0.0,0.0,0.0,0.0,-1.5415,-1.5415,-1.5415,-1.5415,-1.5415,-1.5415,-1.5415,-1.5415,-1.5415,0.0,0.0,0.0,0.0,0.0,0.0,0.0,0.0,0.0,0.0,0.0,0.0,0.0,0.0,0.0,0.0,0.0,0.0,0.0,0.0,0.0,0.0,0.0,0.0,0.0,0.0,0.0,0.0,0.0,0.0,0.0,0.0,0.0,0.0,0.0,0.0,0.0,0.0,0.0,0.0,0.0,-1.9579,-1.9018,-1.9417,0.0,0.0,0.0,0.0,-1.9006,-1.9423,0.0,0.0,0.0,0.0,0.0,0.0,0.0,0.0,0.0,0.0,0.0,0.0,0.0,0.0,0.0,0.0,0.0,0.0,0.0,0.0,0.0,0.0,0.0,0.0,0.0,0.0,0.0,0.0,0.0,0.0,0.0,0.0,0.0,0.0,0.0,0.0,0.0,0.0,0.0,0.0,0.0,0.0,0.0,0.0,0.0,0.0,0.0,0.0,0.0,0.0,0.0,0.0,0.0,0.0,0.0,0.0,-1.5415,-1.5415,-1.5415,-1.5415,-1.5415,-1.5415,-1.5415,-1.5415,-1.5415,0.0,0.0,0.0,0.0,0.0,0.0,0.0,0.0,0.0,0.0,0.0,0.0,0.0,0.0,0.0,0.0,0.0,0.0,0.0,0.0,0.0,0.0,0.0,0.0,0.0,0.0,0.0,0.0,0.0,0.0,0.0,0.0,0.0,0.0,0.0,0.0,0.0,0.0,0.0,0.0,0.0,-1.9773,-1.9695,-1.9741,-1.9798,0.0,0.0,-1.9779,-1.9689,-1.9747,0.0,0.0,0.0,0.0,0.0,0.0,0.0,0.0,0.0,0.0,0.0,0.0,0.0,0.0,0.0,0.0,0.0,0.0,0.0,0.0,0.0,0.0,0.0,0.0,0.0,0.0,0.0,0.0,0.0,0.0,0.0,0.0,0.0,0.0,0.0,0.0,0.0,0.0,0.0,0.0,0.0,0.0,0.0,0.0,0.0,0.0,0.0,0.0,0.0,0.0,0.0,0.0,0.0,0.0,0.0,-1.5415,-1.5415,-1.5415,-1.5415,-1.5415,-1.5415,-1.5415,-1.5415,-1.5415,-1.5415,0.0,0.0,0.0,0.0,0.0,0.0,0.0,0.0,0.0,0.0,0.0,0.0,0.0,0.0,0.0,0.0,0.0,0.0,0.0,0.0,0.0,0.0,0.0,0.0,0.0,0.0,0.0,0.0,0.0,0.0,0.0,0.0,0.0,0.0,0.0,0.0,0.0,0.0,0.0,0.0,0.0,0.0,-1.9798,-2.0125,0.0,0.0,0.0,-2.0245,-1.985,0.0,0.0,0.0,0.0,0.0,0.0,0.0,0.0,0.0,0.0,0.0,0.0,0.0,0.0,0.0,0.0,0.0,0.0,0.0,0.0,0.0,0.0,0.0,0.0,0.0,0.0,0.0,0.0,0.0,0.0,0.0,0.0,0.0,0.0,0.0,0.0,0.0,0.0,0.0,0.0,0.0,0.0,0.0,0.0,0.0,0.0,0.0,0.0,0.0,0.0,0.0,0.0,0.0,0.0,0.0,0.0,0.0,-1.5415,-1.5415,-1.5415,-1.5415,-1.5415,-1.5415,-1.5415,-1.5415,0.0,0.0,0.0,0.0,0.0,0.0,0.0,0.0,0.0,0.0,0.0,0.0,0.0,0.0,0.0,0.0,0.0,0.0,0.0,0.0,0.0,0.0,0.0,0.0,0.0,0.0,0.0,-1.5415,0.0,0.0,0.0,0.0,0.0,0.0,0.0,0.0,0.0,0.0,0.0,0.0,0.0,0.0,-1.9798,-1.9798,-2.022,-2.0378,0.0,0.0,-2.0378,-1.9882,-1.9798,-1.9798,0.0,0.0,0.0,0.0,0.0,0.0,0.0,0.0,0.0,0.0,0.0,0.0,0.0,0.0,0.0,0.0,0.0,0.0,0.0,0.0,0.0,0.0,0.0,0.0,0.0,0.0,0.0,0.0,0.0,0.0,0.0,0.0,0.0,0.0,0.0,0.0,0.0,0.0,0.0,0.0,0.0,0.0,0.0,0.0,0.0,0.0,0.0,0.0,0.0,0.0,0.0,0.0,0.0,0.0,-1.5415,-1.5415,-1.5415,-1.5415,-1.5415,-1.5415,-1.5415,-1.5415,-1.5415,-1.5415,0.0,0.0,0.0,0.0,0.0,0.0,0.0,0.0,0.0,0.0,0.0,0.0,0.0,0.0,0.0,0.0,0.0,0.0,0.0,0.0,0.0,0.0,0.0,0.0,0.0,0.0,0.0,0.0,0.0,0.0,0.0,0.0,0.0,0.0,0.0,0.0,0.0,0.0,0.0,0.0,0.0,-1.9798,-1.9798,-1.9856,-1.9856,0.0,-1.983,-1.985,-1.9798,-1.9798,-1.9798,-1.9798,0.0,0.0,0.0,0.0,0.0,0.0,0.0,0.0,0.0,0.0,0.0,0.0,0.0,0.0,0.0,0.0,0.0,0.0,0.0,0.0,0.0,0.0,0.0,0.0,0.0,0.0,0.0,0.0,0.0,0.0,0.0,0.0,0.0,0.0,0.0,0.0,0.0,0.0,0.0,0.0,0.0,0.0,0.0,0.0,0.0,0.0,0.0,0.0,0.0,0.0,0.0,0.0,0.0,-1.5415,-1.5415,-1.5415,-1.5415,-1.5415,-1.5415,-1.5415,-1.5415,-1.5415,-1.5415,0.0,0.0,0.0,0.0,0.0,0.0,0.0,0.0,0.0,0.0,0.0,0.0,0.0,0.0,0.0,0.0,0.0,0.0,0.0,0.0,0.0,0.0,0.0,0.0,0.0,0.0,0.0,0.0,-1.5666,-1.5738,-1.6659,0.0,0.0,0.0,0.0,0.0,0.0,0.0,0.0,0.0,0.0,-1.9798,-1.9798,-2.015,0.0,0.0,-2.0163,-2.027,-1.9856,-1.9798,-1.9798,-1.9798,-1.9798,0.0,0.0,0.0,0.0,0.0,0.0,0.0,0.0,0.0,0.0,0.0,0.0,0.0,0.0,0.0,0.0,0.0,0.0,0.0,0.0,0.0,0.0,0.0,0.0,0.0,0.0,0.0,0.0,0.0,0.0,0.0,0.0,0.0,0.0,0.0,0.0,0.0,0.0,0.0,0.0,0.0,0.0,0.0,0.0,0.0,0.0,0.0,0.0,0.0,0.0,0.0,0.0,-1.5415,-1.5415,-1.5415,-1.5415,-1.5415,-1.5415,-1.5415,-1.5415,-1.5415,-1.5415,0.0,0.0,0.0,0.0,0.0,0.0,0.0,0.0,0.0,0.0,0.0,0.0,0.0,0.0,0.0,0.0,0.0,0.0,0.0,0.0,0.0,0.0,0.0,0.0,0.0,0.0,0.0,0.0,-1.6358,-1.6551,-1.7792,0.0,0.0,0.0,0.0,0.0,0.0,0.0,0.0,0.0,0.0,-1.9798,-1.9798,-2.0207,-2.0327,-1.9875,-2.0201,-2.0327,-1.9875,-1.9798,-1.9798,-1.9798,0.0,0.0,0.0,0.0,0.0,0.0,0.0,0.0,0.0,0.0,0.0,0.0,0.0,0.0,0.0,0.0,0.0,0.0,0.0,0.0,0.0,0.0,0.0,0.0,0.0,0.0,0.0,-1.5381,0.0,0.0,-1.5415,0.0,0.0,0.0,0.0,0.0,0.0,0.0,0.0,0.0,0.0,0.0,0.0,0.0,0.0,0.0,0.0,0.0,0.0,0.0,0.0,0.0,0.0,-1.5415,-1.5415,-1.5415,-1.5415,-1.5415,-1.5415,-1.5415,-1.5415,-1.5415,-1.5415,-1.5386,0.0,0.0,0.0,0.0,0.0,0.0,0.0,0.0,0.0,0.0,0.0,0.0,0.0,0.0,0.0,0.0,0.0,0.0,0.0,0.0,0.0,0.0,0.0,0.0,0.0,0.0,-1.7495,-1.7567,-1.7846,0.0,0.0,0.0,0.0,0.0,0.0,0.0,0.0,0.0,-1.9798,-1.9798,-1.9798,-1.9798,-1.983,-1.985,-1.9798,-1.9837,-1.983,-1.9798,-1.9798,-1.9798,0.0,0.0,0.0,0.0,0.0,0.0,0.0,0.0,0.0,0.0,0.0,0.0,0.0,0.0,0.0,0.0,0.0,0.0,0.0,0.0,0.0,0.0,0.0,0.0,0.0,0.0,0.0,-1.4115,-1.4628,0.0,0.0,0.0,0.0,0.0,0.0,0.0,0.0,0.0,0.0,0.0,-1.6122,-1.6122,0.0,0.0,0.0,0.0,0.0,0.0,0.0,0.0,0.0,0.0,0.0,0.0,-1.5415,-1.5415,-1.5415,-1.5415,-1.5415,-1.5415,-1.5415,-1.5415,-1.5415,-1.5143,-1.4604,0.0,0.0,0.0,0.0,0.0,0.0,0.0,0.0,0.0,0.0,0.0,0.0,0.0,0.0,0.0,0.0,0.0,0.0,0.0,0.0,0.0,0.0,0.0,0.0,0.0,-1.733,0.0,0.0,0.0,0.0,0.0,0.0,0.0,0.0,0.0,0.0,0.0,-1.9798,-1.9798,-1.9798,-1.9798,-1.9798,-1.9798,-1.9798,0.0,0.0,0.0,0.0,0.0,0.0,0.0,0.0,0.0,0.0,0.0,0.0,0.0,0.0,-1.9798,-1.9798,-1.9798,-1.9798,-1.9798,0.0,0.0,0.0,0.0,0.0,0.0,0.0,0.0,0.0,0.0,0.0,0.0,0.0,0.0,-1.3511,-1.385,-1.4633,0.0,0.0,0.0,0.0,0.0,0.0,0.0,0.0,-1.5642,-1.5666,-1.6117,-1.6122,-1.5864,0.0,-1.6151,-1.6122,0.0,0.0,0.0,0.0,0.0,0.0,0.0,0.0,-1.5415,-1.5415,-1.5415,-1.5415,-1.5415,-1.5415,-1.5415,-1.5415,-1.5415,-1.5021,-1.4238,-1.4183,-1.382,0.0,0.0,0.0,0.0,0.0,0.0,0.0,0.0,0.0,0.0,0.0,0.0,0.0,0.0,0.0,0.0,0.0,0.0,0.0,0.0,0.0,0.0,0.0,-1.7983,0.0,0.0,0.0,0.0,0.0,0.0,0.0,0.0,0.0,-1.9798,-1.9798,-1.9798,-1.9798,-1.9798,-1.9798,-1.9798,0.0,0.0,0.0,0.0,0.0,0.0,0.0,-1.9798,-1.9798,-1.9798,-1.9798,-1.9798,-1.9798,-1.9798,-1.9798,0.0,0.0,-1.9798,-1.9798,-1.9798,-1.9798,-1.9798,-1.9798,-1.9798,-1.9798,-1.9798,0.0,0.0,0.0,0.0,0.0,0.0,0.0,0.0,-1.1861,-1.2328,0.0,-1.385,0.0,0.0,0.0,0.0,-1.5415,-1.5415,0.0,0.0,-1.5415,-1.5415,-1.5415,-1.5415,-1.5415,-1.5444,-1.6117,-1.6104,-1.5488,-1.542,0.0,0.0,0.0,0.0,0.0,0.0,-1.5415,-1.5415,-1.5415,-1.5415,-1.5415,-1.5415,-1.5415,-1.5415,-1.5415,-1.5025,-1.4243,-1.4154,-1.3786,-1.3031,-1.37,0.0,0.0,0.0,0.0,0.0,0.0,0.0,0.0,0.0,0.0,0.0,0.0,0.0,0.0,0.0,0.0,0.0,0.0,0.0,0.0,-1.8248,0.0,0.0,0.0,0.0,0.0,0.0,0.0,0.0,0.0,0.0,-1.9798,-1.9798,-1.9824,-1.985,0.0,0.0,0.0,0.0,-1.9798,-1.9798,-1.9798,-1.9798,-1.9798,-1.9798,-1.9798,-1.9798,0.0,0.0,-1.9798,-1.9798,-1.9798,-1.9798,-1.9798,-1.9798,-1.9798,-1.9798,-1.9798,-1.9798,-1.9798,-1.9798,-1.9798,-1.9798,-1.9798,-1.2814,0.0,0.0,0.0,0.0,-1.2761,-1.2669,-1.2634,-1.2665,-1.2791,-1.3005,-1.3247,0.0,0.0,0.0,0.0,0.0,0.0,-1.5415,-1.5415,-1.5415,-1.5415,-1.5415,-1.5415,-1.5415,-1.5415,-1.5609,-1.5964,-1.6408,-1.5732,-1.5415,-1.5415,0.0,0.0,0.0,0.0,-1.5415,-1.5415,-1.5415,-1.5415,-1.5415,-1.5415,-1.5415,-1.5415,-1.5415,-1.5021,-1.4243,-1.364,-1.3247,-1.3005,-1.2657,0.0,0.0,0.0,0.0,0.0,0.0,0.0,0.0,0.0,0.0,0.0,0.0,0.0,0.0,0.0,0.0,0.0,0.0,0.0,-1.7528,-1.7792,-1.814,0.0,0.0,0.0,0.0,0.0,0.0,0.0,0.0,0.0,-1.9798,-1.9798,-1.9965,0.0,0.0,-1.9972,-2.0428,-2.0099,-1.9798,-1.9798,-1.9798,0.0,-1.9798,-1.9798,-1.9798,-1.9798,-1.9798,-1.9798,-1.9798,-1.9798,-1.9798,-1.9798,-1.9798,-1.9798,-1.9798,-1.9798,-1.9798,-1.9798,-1.9798,-1.9798,-1.9798,-1.9798,-1.9798,-1.1624,-1.2097,-1.273,-1.2822,-1.2547,-1.2547,-1.2332,-1.2031,-1.2066,-1.2066,-1.2093,-1.2366,-1.2543,-1.2573,-1.3691,0.0,0.0,0.0,-1.5415,-1.5415,-1.5415,-1.5415,-1.5415,-1.5415,-1.5415,-1.5415,-1.57,-1.5973,-1.6319,-1.6007,-1.5666,-1.5415,0.0,0.0,-1.5415,-1.5415,-1.5415,-1.5415,-1.5415,-1.5415,-1.5415,-1.5415,-1.5415,-1.5415,-1.5415,-1.4874,-1.376,-1.3252,-1.2704,-1.2093,-1.2212,-1.2358,0.0,0.0,0.0,0.0,0.0,0.0,0.0,0.0,0.0,0.0,0.0,-1.5415,-1.5415,0.0,0.0,0.0,-1.6521,-1.6567,-1.6715,-1.7241,0.0,0.0,0.0,0.0,0.0,0.0,0.0,-1.9798,-1.9798,-1.9798,-1.9798,-1.9798,-1.9959,-2.0346,-2.0055,-1.9946,-2.0346,0.0,-1.9798,-1.9798,-1.9798,-1.9798,-1.9798,-1.9798,-1.9798,-1.9798,-1.9798,-1.9798,-1.9798,-1.9798,-1.9798,-1.9798,-1.9798,-1.9798,-1.9798,-1.9798,-1.9798,-1.9798,-1.9553,-1.9443,-1.9747,-1.9798,-1.9798,-1.0589,-1.0744,-1.2182,-1.2362,-1.171,-1.1714,-1.1285,-1.0589,-1.0589,-1.0589,-1.0653,-1.1379,-1.1776,-1.1981,-1.3507,0.0,-1.5415,-1.5415,-1.5415,-1.5415,-1.5415,-1.5415,-1.5415,-1.5415,-1.5415,-1.5415,-1.6088,-1.6065,-1.5468,-1.6088,-1.6065,-1.5405,-1.5415,-1.5415,-1.5415,-1.5415,-1.5415,-1.5415,-1.5415,-1.5415,-1.5415,-1.5415,-1.5381,-1.5294,-1.5294,-1.4569,-1.3096,-1.2917,-1.2212,-1.0835,-1.2031,-1.2481,-1.183,0.0,0.0,0.0,0.0,0.0,0.0,0.0,0.0,0.0,0.0,0.0,0.0,0.0,0.0,0.0,-1.6464,0.0,-1.5555,-1.6828,0.0,0.0,0.0,-1.9798,-1.9798,-1.9798,-1.9798,-1.9798,0.0,0.0,-1.9798,-1.9798,-1.9798,-1.9798,-1.9798,-1.9837,-1.9875,-1.985,-1.9798,-1.9798,-1.9798,-1.9798,-1.9798,-1.9798,-1.9798,-1.9798,-1.9798,-1.9798,-1.9798,-1.9798,-1.9798,-1.9798,-1.9798,-1.9798,-1.9798,-1.9747,-1.9727,-1.9798,-1.9228,-1.8927,-1.9501,-1.9579,-1.9495,-1.0589,-1.0624,-1.1024,-1.1048,-1.0898,-1.0898,-1.0776,-1.0589,-1.0589,-1.0589,-1.0621,-1.08,-1.1569,-1.2783,-1.3756,-1.4628,-1.5415,-1.5415,-1.5415,-1.5415,-1.5415,-1.5415,-1.5415,-1.5415,-1.5415,-1.541,-1.558,-1.5551,-1.541,-1.5551,-1.558,-1.541,-1.5415,-1.5415,-1.5415,-1.5415,-1.5415,-1.5415,-1.5415,-1.5415,-1.5415,-1.5415,-1.5108,-1.4501,-1.4485,-1.403,-1.3035,-1.2393,-1.19,-1.1531,-1.1288,-1.1083,-1.093,-1.2577,0.0,0.0,0.0,0.0,0.0,0.0,0.0,0.0,0.0,-1.5415,-1.5415,0.0,-1.5671,0.0,-1.6174,-1.6436,-1.6255,-1.7578,0.0,0.0,-1.9254,-1.9798,-1.9798,-1.9798,-1.9798,-1.9798,-1.9798,-1.9798,-1.9798,-1.9798,-1.9798,-1.9798,-1.9798,-1.9978,-2.044,-2.0099,-1.9798,-1.9798,-1.9798,-1.9798,-1.9798,-1.9798,-1.9798,-1.9798,-1.9798,-1.9798,-1.9798,-1.9798,-1.9798,-1.9798,-1.9798,-1.9798,-1.9798,-1.9371,-1.9228,-1.9611,-1.9202,-1.8735,-1.8927,-1.8555,-1.814,-1.0589,-1.0589,-1.0589,-1.0589,-1.0589,-1.0589,-1.0589,-1.0589,-1.0589,-1.0804,-1.1174,-1.1511,-1.2366,-1.3541,-1.4,-1.4624,-1.5386,-1.5415,-1.5415,-1.5415,-1.5415,-1.5415,-1.5415,-1.5415,-1.5415,-1.5415,-1.5415,-1.5415,-1.5415,-1.5415,-1.5415,-1.5415,-1.5415,-1.5415,-1.5415,-1.5415,-1.5415,-1.5415,-1.5415,-1.5415,-1.5415,-1.5415,-1.5025,-1.4243,-1.4183,-1.3661,-1.2508,-1.205,-1.1807,-1.1807,-1.1717,-1.1511,-1.1198,-1.2992,-1.3756,0.0,0.0,0.0,0.0,0.0,0.0,0.0,0.0,0.0,0.0,0.0,-1.5551,-1.5869,-1.6567,-1.6984,-1.6973,-1.8004,-1.87,-1.8721,-1.9365,-1.9798,-1.9798,-1.9798,-1.9798,-1.9798,-1.9798,-1.9798,-1.9798,-1.9798,-1.9798,-1.9798,-1.9798,-1.9927,-2.0258,-2.0029,-1.9798,-1.9798,-1.9798,-1.9798,-1.9798,-1.9798,-1.9798,-1.9798,-1.9798,-1.9798,-1.9798,-1.9798,-1.9798,-1.9798,-1.9798,-1.9798,-1.9798,-1.9501,-1.9267,-1.9156,-1.8715,-1.8388,-1.8608,-1.8382,-1.8037,-1.0589,-1.0589,-1.0589,-1.0589,-1.0589,-1.0589,-1.0589,-1.0589,-1.0713,-1.1198,-1.2012,-1.2822,-1.3545,-1.4209,-1.4328,-1.4717,-1.5415,-1.5415,-1.5415,-1.5415,-1.5415,-1.5415,-1.5415,-1.5415,-1.5415,-1.5415,-1.5415,-1.5415,-1.5415,-1.5415,-1.5415,-1.5415,-1.5415,-1.5415,-1.5415,-1.5415,-1.5415,-1.5415,-1.5415,-1.5323,-1.5191,-1.5318,-1.4898,-1.3965,-1.4,-1.3291,-1.1741,-1.1648,-1.1644,-1.1652,-1.2305,-1.2424,-1.1896,-1.3897,-1.4515,0.0,-1.4569,0.0,0.0,0.0,0.0,0.0,0.0,0.0,0.0,-1.5415,-1.5695,-1.6436,-1.7174,-1.7633,-1.7743,-1.8421,-1.8841,-1.8847,-1.9339,-1.9695,-1.9779,-1.9715,-1.9701,-1.9798,-1.9798,-1.9798,-1.9798,-1.9798,-1.9798,-1.9798,-1.9798,-1.9824,-1.983,-1.9824,-1.9798,-1.9798,-1.9798,-1.9798,-1.9798,-1.9798,-1.9798,-1.9798,-1.9798,-1.9798,-1.9798,-1.9798,-1.9798,-1.9798,-1.9798,-1.9798,-1.9798,-1.9798,-1.9521,-1.8906,-1.828,-1.7961,-1.8226,-1.8248,-1.8178,-1.0589,-1.0589,-1.0589,-1.0589,-1.0589,-1.0589,-1.0589,-1.0653,-1.1288,-1.2023,-1.2822,-1.364,-1.4055,-1.4238,-1.4898,-1.5259,-1.5415,-1.5415,-1.5415,-1.5415,-1.5415,-1.5415,-1.5415,-1.5415,-1.5415,-1.5415,-1.5415,-1.5415,-1.5415,-1.5415,-1.5415,-1.5415,-1.5415,-1.5415,-1.5415,0.0,0.0,0.0,-1.5415,-1.4972,-1.418,-1.4967,-1.4408,-1.2351,-1.2879,0.0,-1.093,-1.0835,-1.0804,-1.0835,-1.0961,0.0,0.0,0.0,0.0,0.0,0.0,0.0,0.0,0.0,0.0,0.0,-1.5415,-1.5415,-1.5415,-1.5415,-1.5724,-1.6425,-1.7168,-1.7852,-1.8447,-1.915,-1.9579,-1.9585,-1.9176,-1.9123,-1.9689,-1.9287,-1.9117,-1.9747,-1.9798,-1.9798,-1.9773,-1.9798,-1.9798,-1.9773,-1.9798,-1.9798,-1.9766,-1.9773,-1.9798,-1.9798,-1.9798,-1.9798,-1.9798,-1.9798,-1.9798,-1.9798,-1.9798,-1.9798,-1.9798,-1.9798,-1.9798,-1.9798,-1.9798,-1.9798,-1.9798,-1.9798,-1.956,-1.8841,-1.8549,-1.8178,-1.7146,-1.6928,-1.6703,-1.0589,-1.0589,-1.0589,-1.0589,0.0,-1.0589,-1.0589,-1.0656,-1.1476,-1.2477,-1.364,-1.4421,-1.4785,-1.4835,-1.523,-1.5415,-1.5415,-1.5415,-1.5415,-1.5415,-1.5415,-1.5415,-1.5415,-1.5415,-1.5415,-1.5415,-1.5415,-1.5415,-1.5415,-1.5415,-1.5415,-1.5415,-1.5415,-1.5415,-1.5415,-1.5415,-1.5415,-1.5415,-1.5415,-1.5123,-1.4646,-1.5094,-1.4442,-1.2508,-1.2787,0.0,0.0,0.0,0.0,0.0,0.0,0.0,0.0,-1.3545,0.0,-1.4213,-1.4962,-1.5415,-1.5415,-1.5415,-1.5415,-1.5415,-1.5415,-1.5415,-1.5415,-1.5719,-1.6093,-1.6487,-1.749,-1.8145,-1.8172,-1.8833,-1.9097,-1.8741,-1.8382,-1.8447,-1.9071,-1.8933,-1.8853,-1.9202,-1.9598,-1.9695,-1.9307,-1.9611,-1.9618,-1.9339,-1.9585,-1.9669,-1.9391,-1.9579,-1.9798,-1.9798,-1.9798,-1.9798,-1.9798,-1.9798,-1.9798,-1.9798,-1.9798,-1.9798,-1.9798,-1.9798,-1.9798,-1.9798,-1.9798,-1.9798,-1.9798,-1.9798,-1.9443,-1.8468,-1.8145,-1.7677,-1.634,-1.6231,-1.6402,-1.0589,-1.0589,-1.0589,-1.0589,-1.0589,-1.0589,-1.0776,-1.1048,-1.1745,0.0,0.0,-1.5108,-1.5415,-1.5415,-1.5415,-1.5415,-1.5415,-1.5415,-1.5415,-1.5415,-1.5415,-1.5415,-1.5415,-1.5415,-1.5415,-1.5415,-1.5415,-1.5415,-1.5415,-1.5415,-1.5415,-1.5415,-1.5415,-1.5415,-1.5415,-1.5415,-1.5415,-1.5415,-1.5415,-1.5323,-1.5201,-1.5323,-1.456,-1.2822,-1.2944,-1.2247,-1.0653,-1.0589,-1.0986,-1.1764,-1.2424,-1.2944,-1.3247,-1.4476,-1.4962,-1.451,-1.5025,-1.5415,-1.5415,-1.5415,-1.5415,-1.5415,-1.5415,-1.5415,-1.5415,-1.595,-1.6374,-1.6492,-1.76,-1.8085,-1.7649,-1.814,-1.8259,-1.766,-1.749,-1.7688,-1.8367,-1.8361,-1.8313,-1.8522,-1.8992,-1.917,-1.8608,-1.898,-1.9248,-1.8906,-1.9202,-1.9508,-1.9103,-1.9443,-1.9798,-1.9798,-1.9798,-1.9798,-1.9798,-1.9798,-1.9798,-1.9798,-1.9798,-1.9798,-1.9798,-1.9695,-1.9611,-1.9553,-1.9521,-1.9359,-1.9397,-1.9307,-1.8953,-1.766,-1.7418,-1.7057,-1.5974,-1.5945,-1.6241,-1.0589,-1.0589,-1.0589,-1.0589,-1.0589,-1.0589,-1.1389,-1.2642,-1.2795,-1.3726,-1.523,-1.5347,-1.5415,-1.5415,-1.5415,-1.5415,-1.5415,-1.5415,-1.5415,-1.5415,-1.5415,-1.5415,-1.5415,-1.5415,-1.5415,-1.5415,-1.5415,-1.5415,-1.5415,-1.5415,-1.5415,-1.5415,-1.5415,-1.5415,-1.5415,-1.5415,-1.5415,-1.5415,-1.5415,-1.5079,-1.4392,-1.5021,-1.428,-1.2139,-1.2638,-1.2243,-1.0681,-1.0589,-1.0951,-1.1772,-1.1892,-1.2596,-1.3936,-1.4268,-1.4633,-1.5172,-1.5357,-1.5415,-1.5415,-1.5415,-1.5415,-1.5415,-1.5415,-1.5415,-1.5415,-1.5497,-1.5806,-1.6425,-1.6742,-1.7034,-1.749,-1.7682,-1.7682,-1.7523,-1.7001,-1.695,-1.7655,-1.7246,-1.7113,-1.7682,-1.7846,-1.7928,-1.7819,-1.7907,-1.8226,-1.8581,-1.8827,-1.9032,-1.9501,-1.9721,-1.9798,-1.9798,-1.9798,-1.9798,-1.9798,-1.9798,-1.9798,-1.9798,-1.9766,-1.9721,-1.9715,-1.9234,-1.8874,-1.8841,-1.8447,-1.807,-1.8004,-1.7928,-1.7655,-1.69,-1.6759,-1.6572,-1.6208,-1.5916,-1.5609,-1.0589,-1.0589,-1.0589,-1.0832,-1.1288,-1.1725,-1.2547,-1.3636,-1.367,-1.4302,-1.5357,-1.5415,-1.5415,-1.5415,-1.5415,-1.5415,-1.5415,-1.5415,-1.5415,-1.5415,-1.5415,-1.5415,-1.5415,-1.5415,-1.5415,-1.5415,-1.5415,-1.5415,-1.5415,-1.5415,-1.5415,-1.5415,-1.5415,-1.5415,-1.5415,-1.5415,-1.5415,-1.5415,-1.5415,-1.523,-1.4869,-1.4781,-1.3991,-1.2481,-1.242,-1.1814,-1.0653,-1.1014,-1.1441,-1.1772,-1.2653,-1.3446,-1.4149,-1.4604,-1.5016,-1.5386,-1.5415,-1.5415,-1.5415,-1.5415,-1.5415,-1.5415,-1.5415,-1.5415,-1.5415,-1.5415,-1.5555,-1.5897,-1.6265,-1.6454,-1.6438,-1.6749,-1.6861,-1.6433,-1.6088,-1.6231,-1.6821,-1.6736,-1.6647,-1.6984,-1.7363,-1.744,-1.7034,-1.7357,-1.7682,-1.8085,-1.84,-1.8953,-1.9637,-1.9773,-1.9798,-1.9798,-1.9798,-1.9798,-1.9798,-1.9798,-1.9798,-1.9798,-1.9449,-1.9267,-1.9143,-1.8602,-1.8172,-1.8091,-1.7786,-1.7633,-1.7584,-1.7611,-1.728,-1.6714,-1.6521,-1.6407,-1.6002,-1.5613,-1.5444,-1.0716,-1.0863,-1.087,-1.1351,-1.2139,-1.294,-1.3631,-1.4209,-1.4392,-1.481,-1.5357,-1.5415,-1.5415,-1.5415,-1.5415,-1.5415,-1.5415,-1.5415,-1.5415,-1.5415,-1.5415,-1.5415,-1.5415,-1.5415,-1.5415,-1.5415,-1.5415,-1.5415,-1.5415,-1.5415,-1.5415,-1.5415,-1.5415,-1.5415,-1.5415,-1.5415,-1.5415,-1.5415,-1.5415,-1.5318,-1.5108,-1.451,-1.373,-1.2757,-1.2139,-1.1531,-1.0954,-1.1472,-1.1954,-1.2347,-1.3356,-1.3995,-1.4213,-1.4628,-1.484,-1.4869,-1.5021,-1.523,-1.5381,-1.5415,-1.5415,-1.5415,-1.5415,-1.5415,-1.5415,-1.5415,-1.5415,-1.5473,-1.5921,-1.6007,-1.5637,-1.5921,-1.6002,-1.5473,-1.5415,-1.5666,-1.6151,-1.627,-1.6236,-1.6317,-1.6777,-1.6861,-1.651,-1.6754,-1.7102,-1.7385,-1.7983,-1.8688,-1.9202,-1.9301,-1.9307,-1.9333,-1.9411,-1.9391,-1.9365,-1.9254,-1.9222,-1.9307,-1.8821,-1.8528,-1.834,-1.7846,-1.7407,-1.7335,-1.7163,-1.6996,-1.7052,-1.7052,-1.6805,-1.6288,-1.6151,-1.6041,-1.5575,-1.5444,-1.5415,-1.1048,-1.1648,-1.1686,-1.2143,-1.2944,-1.3756,-1.4145,-1.4302,-1.4962,-1.5318,-1.5415,-1.5415,-1.5415,-1.5415,-1.5415,-1.5415,-1.5415,-1.5415,-1.5415,-1.5415,-1.5415,-1.5415,-1.5415,-1.5415,-1.5415,-1.5415,-1.5415,-1.5415,-1.5415,-1.5415,-1.5415,-1.5415,-1.5415,-1.5415,-1.5415,-1.5415,-1.5415,-1.5415,-1.5415,-1.5055,-1.4348,-1.4234,-1.3476,-1.1958,-1.1861,-1.1772,-1.1686,-1.1768,-1.2473,-1.3786,-1.3399,-1.3459,-1.4034,-1.3606,-1.3247,-1.3278,-1.3936,-1.4628,-1.5294,-1.5415,-1.5415,-1.5415,-1.5415,-1.5415,-1.5415,-1.5415,-1.5415,-1.5439,-1.5463,-1.5497,-1.5415,-1.5497,-1.5526,-1.5444,-1.5415,-1.5444,-1.5526,-1.5502,-1.5492,-1.5502,-1.5719,-1.5584,-1.5637,-1.5777,-1.6002,-1.6652,-1.739,-1.7879,-1.8015,-1.8037,-1.7983,-1.8004,-1.8334,-1.8474,-1.8097,-1.7825,-1.8031,-1.7944,-1.7819,-1.7797,-1.7693,-1.7224,-1.659,-1.6562,-1.6145,-1.5859,-1.5782,-1.5609,-1.5695,-1.5753,-1.5642,-1.5531,-1.5415,-1.5415,-1.5415,-1.2212,-1.2512,-1.2508,-1.297,-1.376,-1.4569,-1.4903,-1.4962,-1.5264,-1.5415,-1.5415,-1.5415,-1.5415,-1.5415,-1.5415,-1.5415,-1.5415,-1.5415,-1.5415,-1.5415,-1.5415,-1.5415,-1.5415,-1.5415,-1.5415,-1.5415,-1.5415,-1.5415,-1.5415,-1.5415,-1.5415,-1.5415,-1.5415,-1.5415,-1.5415,-1.5415,-1.5415,-1.5415,-1.5415,-1.5021,-1.4243,-1.3726,-1.3425,-1.314,-1.2316,-1.2047,-1.2508,-1.2962,-1.3541,-1.4119,-1.3876,-1.3846,-1.4179,-1.3429,-1.3005,-1.3035,-1.3765,-1.4332,-1.4653,-1.5108,-1.5415,-1.5415,-1.5415,-1.5415,-1.5415,-1.5415,-1.5415,-1.5415,-1.5415,-1.5415,-1.5415,-1.5415,-1.5415,-1.5415,-1.5415,-1.5415,-1.5415,-1.5415,-1.5415,-1.5415,-1.5415,-1.5415,-1.5473,-1.5782,-1.6145,-1.6544,-1.7118,-1.7501,-1.7578,-1.7611,-1.7418,-1.7085,-1.7224,-1.7495,-1.7528,-1.7611,-1.7764,-1.8037,-1.7874,-1.76,-1.7501,-1.6984,-1.6402,-1.5984,-1.5642,-1.5415,-1.5502,-1.5415,-1.5415,-1.5415,-1.5415,-1.5415,-1.5415,-1.5415,-1.5415,-1.3126,-1.3338,-1.3554,-1.3995,-1.4569,-1.5138,-1.5415,-1.5415,-1.5415,-1.5415,-1.5415,-1.5415,-1.5415,-1.5415,-1.5415,-1.5415,-1.5415,-1.5415,-1.5415,-1.5415,-1.5415,-1.5415,-1.5415,-1.5415,-1.5415,-1.5415,-1.5415,-1.5415,-1.5415,-1.5415,-1.5415,-1.5415,-1.5415,-1.5415,-1.5415,-1.5415,-1.5294,-1.5079,-1.5055,-1.4688,-1.388,-1.3092,-1.297,-1.3386,-1.2439,-1.2077,-1.2638,-1.3239,-1.3661,-1.3855,-1.3666,-1.3537,-1.3511,-1.2783,-1.252,-1.2978,-1.3545,-1.4089,-1.4476,-1.5084,-1.5415,-1.5415,-1.5415,-1.5415,-1.5415,-1.5415,-1.5415,-1.5415,-1.5415,-1.5415,-1.5415,-1.5415,-1.5415,-1.5415,-1.5415,-1.5415,-1.5415,-1.5415,-1.5415,-1.5415,-1.5415,-1.5415,-1.5473,-1.5811,-1.6117,-1.6208,-1.6618,-1.6996,-1.699,-1.6945,-1.6754,-1.6317,-1.6374,-1.6736,-1.7202,-1.7257,-1.7633,-1.8037,-1.7846,-1.7605,-1.7556,-1.6956,-1.6492,-1.6151,-1.57,-1.5415,-1.5415,-1.5415,-1.5415,-1.5415,-1.5415,-1.5415,-1.5415,-1.5415,-1.5294,-1.3463,-1.4213,-1.4957,-1.523,-1.5352,-1.5381,-1.5415,-1.5415,-1.5415,-1.5415,-1.5415,-1.5415,-1.5415,-1.5415,-1.5415,-1.5415,-1.5415,-1.5415,-1.5415,-1.5415,-1.5415,-1.5415,-1.5415,-1.5415,-1.5415,-1.5415,-1.5415,-1.5415,-1.5415,-1.5415,-1.5415,-1.5415,-1.5415,-1.5415,-1.5415,-1.5352,-1.4991,-1.4417,-1.4298,-1.3906,-1.3126,-1.2328,-1.1985,-1.2012,-1.1834,-1.1865,-1.195,-1.1927,-1.2324,-1.3035,-1.242,-1.1985,-1.1896,-1.123,-1.1514,-1.2795,-1.307,-1.376,-1.5021,-1.5318,-1.5415,-1.5415,-1.5415,-1.5415,-1.5415,-1.5415,-1.5415,-1.5415,-1.5415,-1.5415,-1.5415,-1.5415,-1.5415,-1.5415,-1.5415,-1.5415,-1.5415,-1.5415,-1.5415,-1.5415,-1.5415,-1.5415,-1.5415,-1.5415,-1.5526,-1.5551,-1.5551,-1.5695,-1.5864,-1.5719,-1.5772,-1.5882,-1.6169,-1.6572,-1.6595,-1.6894,-1.7146,-1.7633,-1.801,-1.7693,-1.7357,-1.7057,-1.6703,-1.6293,-1.5748,-1.5463,-1.5444,-1.5415,-1.5415,-1.5415,-1.5415,-1.5415,-1.5415,-1.5415,-1.5294,-1.4692,-1.4991,-1.5289,-1.5415,-1.5415,-1.5415,-1.5415,-1.5415,-1.5415,-1.5415,-1.5415,-1.5415,-1.5415,-1.5415,-1.5415,-1.5415,-1.5415,-1.5415,-1.5415,-1.5415,-1.5415,-1.5415,-1.5415,-1.5415,-1.5415,-1.5415,-1.5415,-1.5415,-1.5415,-1.5415,-1.5415,-1.5415,-1.5415,-1.5415,-1.5323,-1.4869,-1.4485,-1.4183,-1.373,-1.3282,-1.2974,-1.2726,-1.2358,-1.1834,-1.1807,-1.2047,-1.2543,-1.2569,-1.2696,-1.3005,-1.2235,-1.1807,-1.1772,-1.1531,-1.1841,-1.2887,-1.3489,-1.403,-1.4599,-1.5104,-1.5415,-1.5415,-1.5415,-1.5415,-1.5415,-1.5415,-1.5415,-1.5415,-1.5415,-1.5415,-1.5415,-1.5415,-1.5415,-1.5415,-1.5415,-1.5415,-1.5415,-1.5415,-1.5415,-1.5415,-1.5415,-1.5415,-1.5415,-1.5415,-1.5415,-1.5449,-1.5811,-1.6036,-1.6179,-1.6482,-1.6715,-1.6794,-1.7029,-1.7363,-1.7901,-1.7468,-1.744,-1.7983,-1.8334,-1.8313,-1.8124,-1.749,-1.7057,-1.643,-1.5859,-1.5463,-1.5415,-1.5415,-1.5415,-1.5415,-1.5415,-1.5415,-1.5415,-1.5415,-1.5264,-1.5415,-1.5415,-1.5415,-1.5415,-1.5415,-1.5415,-1.5415,-1.5415,-1.5415,-1.5488,-1.5596,-1.5625,-1.5698,-1.5786,-1.5845,-1.5805,-1.5761,-1.5532,-1.5415,-1.5415,-1.5415,-1.5415,-1.5415,-1.5415,-1.5415,-1.5415,-1.5415,-1.5415,-1.5415,-1.5415,-1.5415,-1.5415,-1.5415,-1.5259,-1.4957,-1.4446,-1.4021,-1.3446,-1.2879,-1.2516,-1.2278,-1.2216,-1.1969,-1.1503,-1.1406,-1.1655,-1.2212,-1.2239,-1.2243,-1.2178,-1.1927,-1.1923,-1.2174,-1.2205,-1.2535,-1.3334,-1.388,-1.4323,-1.4599,-1.5108,-1.5415,-1.5415,-1.5415,-1.5415,-1.5415,-1.5415,-1.5415,-1.5415,-1.5415,-1.5439,-1.569,-1.5753,-1.5666,-1.5468,-1.5415,-1.5415,-1.5415,-1.5415,-1.5415,-1.5415,-1.5415,-1.5415,-1.5415,-1.5415,-1.5531,-1.5695,-1.6197,-1.6539,-1.6866,-1.7224,-1.7611,-1.7611,-1.7528,-1.7721,-1.7907,-1.76,-1.8064,-1.8661,-1.8468,-1.8587,-1.8394,-1.7792,-1.7191,-1.6562,-1.6036,-1.5613,-1.5415,-1.5415,-1.5415,-1.5415,-1.5415,-1.5415,-1.5415,-1.5415,-1.5172,-1.5415,-1.5415,-1.5415,-1.5415,-1.5415,-1.5415,-1.5415,-1.5415,-1.5415,-1.5601,-1.5899,-1.6031,-1.6182,-1.6526,-1.6521,-1.6629,-1.6453,-1.5849,-1.5561,-1.5522,-1.5527,-1.5493,-1.5478,-1.5483,-1.5449,-1.542,-1.5415,-1.5415,-1.5415,-1.5415,-1.5381,-1.5357,-1.5289,-1.4869,-1.4213,-1.4,-1.3295,-1.2289,-1.1892,-1.1434,-1.0744,-1.0772,-1.0776,-1.0681,-1.0681,-1.0744,-1.0811,-1.0804,-1.0926,-1.0926,-1.1531,-1.217,-1.2883,-1.3005,-1.3368,-1.4055,-1.4273,-1.4604,-1.5235,-1.5357,-1.5415,-1.5439,-1.5444,-1.5522,-1.5555,-1.5609,-1.5637,-1.569,-1.5666,-1.5806,-1.6402,-1.6516,-1.6283,-1.5575,-1.5609,-1.5555,-1.5584,-1.5473,-1.5473,-1.556,-1.558,-1.5439,-1.5463,-1.5661,-1.595,-1.6397,-1.668,-1.6928,-1.7357,-1.7627,-1.766,-1.7611,-1.7633,-1.777,-1.771,-1.7704,-1.8575,-1.9208,-1.8715,-1.8447,-1.8118,-1.76,-1.7006,-1.6374,-1.5887,-1.5463,-1.5415,-1.5415,-1.5415,-1.5415,-1.5415,-1.5415,-1.5415,-1.5328,-1.4962,-1.5415,-1.5415,-1.5415,-1.5415,-1.5415,-1.5415,-1.5415,-1.5415,-1.5415,-1.5498,-1.5654,-1.5963,-1.6173,-1.6323,-1.6541,-1.6702,-1.6672,-1.64,-1.6287,-1.6283,-1.6278,-1.6128,-1.5919,-1.588,-1.5693,-1.5459,-1.5415,-1.5415,-1.5415,-1.5415,-1.5143,-1.4688,-1.4594,-1.4145,-1.3394,-1.2836,-1.2189,-1.183,-1.1257,-1.0839,-1.0589,-1.0589,-1.0589,-1.0589,-1.0589,-1.0835,-1.1379,-1.1441,-1.1445,-1.1434,-1.2205,-1.3,-1.3666,-1.3816,-1.4209,-1.4898,-1.5021,-1.5113,-1.5323,-1.5415,-1.5415,-1.5497,-1.5864,-1.6117,-1.6226,-1.6557,-1.6794,-1.685,-1.6912,-1.7057,-1.7224,-1.7252,-1.7107,-1.6906,-1.6472,-1.634,-1.6664,-1.6448,-1.6448,-1.6749,-1.6477,-1.6392,-1.6743,-1.6856,-1.6889,-1.7163,-1.7605,-1.7961,-1.7737,-1.8037,-1.807,-1.7748,-1.7743,-1.7737,-1.7846,-1.795,-1.8468,-1.8933,-1.8641,-1.8253,-1.7901,-1.7357,-1.6765,-1.6231,-1.5714,-1.5492,-1.5444,-1.5415,-1.5415,-1.5415,-1.5415,-1.5415,-1.5415,-1.5143,-1.4751,-1.5415,-1.5415,-1.5415,-1.5415,-1.5415,-1.5415,-1.5415,-1.5415,-1.5415,-1.5503,-1.5698,-1.5972,-1.6167,-1.6338,-1.6585,-1.6794,-1.6921,-1.6941,-1.6973,-1.6906,-1.675,-1.6494,-1.6105,-1.5904,-1.5703,-1.5474,-1.5415,-1.5415,-1.5415,-1.5386,-1.4982,-1.4332,-1.4183,-1.3631,-1.263,-1.2081,-1.171,-1.1347,-1.0867,-1.0589,-1.0589,-1.0589,-1.0589,-1.0589,-1.0589,-1.1017,-1.1737,-1.2074,-1.2232,-1.2385,-1.3035,-1.3816,-1.454,-1.4663,-1.4869,-1.5264,-1.5415,-1.5415,-1.5415,-1.5415,-1.5555,-1.5777,-1.5979,-1.6368,-1.6703,-1.7057,-1.6822,-1.7141,-1.6861,-1.6894,-1.7113,-1.7468,-1.7682,-1.7977,-1.7324,-1.7135,-1.7468,-1.7202,-1.709,-1.7335,-1.7174,-1.7085,-1.7135,-1.7523,-1.7584,-1.7688,-1.8226,-1.8608,-1.8194,-1.8415,-1.8145,-1.7852,-1.7666,-1.7825,-1.8118,-1.828,-1.8415,-1.8501,-1.8426,-1.8097,-1.7764,-1.7118,-1.6498,-1.6002,-1.5517,-1.5468,-1.5415,-1.5415,-1.5415,-1.5415,-1.5386,-1.5201,-1.5084,-1.4874,-1.4481,-1.5444,-1.5468,-1.5415,-1.5415,-1.5415,-1.5415,-1.5415,-1.5415,-1.5415,-1.5605,-1.5948,-1.6051,-1.6265,-1.6597,-1.6648,-1.6882,-1.727,-1.7241,-1.7207,-1.7134,-1.6899,-1.6494,-1.6095,-1.5679,-1.5469,-1.5425,-1.5415,-1.5415,-1.5415,-1.5415,-1.5021,-1.4268,-1.4154,-1.3451,-1.2355,-1.1888,-1.1589,-1.0982,-1.0776,-1.0741,-1.0621,-1.0589,-1.0649,-1.0713,-1.0649,-1.1017,-1.1927,-1.2665,-1.3096,-1.3213,-1.3906,-1.4569,-1.523,-1.5381,-1.5352,-1.5415,-1.5415,-1.5415,-1.5415,-1.5415,-1.5642,-1.6093,-1.5926,-1.6002,-1.7006,-1.6585,-1.6306,-1.6726,-1.6278,-1.606,-1.6726,-1.7219,-1.7846,-1.8394,-1.8085,-1.7868,-1.7688,-1.7688,-1.7743,-1.7715,-1.7605,-1.739,-1.6866,-1.7307,-1.7528,-1.7715,-1.8151,-1.8307,-1.8253,-1.8118,-1.8145,-1.7874,-1.7473,-1.7901,-1.8194,-1.8361,-1.8495,-1.8528,-1.8421,-1.8124,-1.7655,-1.6956,-1.6265,-1.5777,-1.5492,-1.5439,-1.5415,-1.5415,-1.5415,-1.5415,-1.5235,-1.4957,-1.4688,-1.451,-1.3965,-1.5724,-1.614,-1.5637,-1.5415,-1.5415,-1.5415,-1.5415,-1.5415,-1.5444,-1.5566,-1.5674,-1.5958,-1.6195,-1.63,-1.6577,-1.677,-1.6912,-1.6904,-1.6872,-1.6858,-1.677,-1.6484,-1.608,-1.5625,-1.5415,-1.5415,-1.5415,-1.5415,-1.5415,-1.5415,-1.4996,-1.4213,-1.4183,-1.3696,-1.2822,-1.2634,-1.2266,-1.1589,-1.1472,-1.1136,-1.0649,-1.0589,-1.0895,-1.1379,-1.0895,-1.1327,-1.2577,-1.3455,-1.4209,-1.4722,-1.4932,-1.5138,-1.5357,-1.5415,-1.5415,-1.5415,-1.5415,-1.5415,-1.5415,-1.5415,-1.5531,-1.569,-1.5979,-1.6374,-1.6703,-1.6968,-1.7057,-1.728,-1.7079,-1.7052,-1.7274,-1.7495,-1.777,-1.7961,-1.8602,-1.8847,-1.8415,-1.8421,-1.8409,-1.8355,-1.7907,-1.7528,-1.7335,-1.7413,-1.7611,-1.766,-1.7792,-1.7901,-1.7846,-1.7907,-1.8015,-1.7446,-1.7202,-1.7813,-1.8242,-1.8409,-1.8522,-1.8608,-1.8474,-1.8226,-1.7627,-1.6889,-1.6226,-1.5609,-1.5497,-1.5415,-1.5415,-1.5415,-1.5415,-1.5415,-1.5201,-1.4928,-1.4506,-1.4174,-1.3352,-1.6288,-1.6922,-1.65,-1.633,-1.633,-1.6324,-1.6169,-1.5979,-1.6197,-1.614,-1.6034,-1.6489,-1.6535,-1.6316,-1.6502,-1.6738,-1.6858,-1.6569,-1.6631,-1.6838,-1.6388,-1.6108,-1.5972,-1.562,-1.5415,-1.5415,-1.5415,-1.5415,-1.5415,-1.5415,-1.4932,-1.4332,-1.4183,-1.3786,-1.3005,-1.2974,-1.2608,-1.1923,-1.1776,-1.1406,-1.0653,-1.0589,-1.1041,-1.1469,-1.108,-1.1358,-1.2826,-1.376,-1.4569,-1.5196,-1.5415,-1.5415,-1.5415,-1.5415,-1.5415,-1.5415,-1.5415,-1.5415,-1.5415,-1.5415,-1.5555,-1.5782,-1.6093,-1.6528,-1.7113,-1.7385,-1.7224,-1.7961,-1.7792,-1.7633,-1.7666,-1.7879,-1.8199,-1.8635,-1.9307,-1.9365,-1.8382,-1.8167,-1.8221,-1.8112,-1.7879,-1.7446,-1.723,-1.7413,-1.7578,-1.7688,-1.7977,-1.7901,-1.777,-1.7852,-1.783,-1.7368,-1.7418,-1.8091,-1.8489,-1.8655,-1.8415,-1.8474,-1.7977,-1.7841,-1.7324,-1.6613,-1.6078,-1.5551,-1.5468,-1.5386,-1.5323,-1.5323,-1.5415,-1.5352,-1.5172,-1.4628,-1.4025,-1.3532,-1.2744,-1.7062,-1.771,-1.7633,-1.7611,-1.7556,-1.7578,-1.7141,-1.681,-1.7191,-1.7135,-1.6826,-1.7285,-1.7155,-1.6624,-1.6759,-1.6853,-1.7198,-1.6725,-1.6695,-1.6658,-1.622,-1.5822,-1.5869,-1.5586,-1.5425,-1.5415,-1.5415,-1.5415,-1.5415,-1.5415,-1.5055,-1.4604,-1.4392,-1.4,-1.358,-1.3308,-1.2696,-1.2139,-1.1865,-1.141,-1.0807,-1.0769,-1.1288,-1.1869,-1.1745,-1.1965,-1.3061,-1.385,-1.4574,-1.5376,-1.5415,-1.5415,-1.5415,-1.5415,-1.5415,-1.5415,-1.5415,-1.5415,-1.5415,-1.5415,-1.5695,-1.6184,-1.5864,-1.6348,-1.7649,-1.7435,-1.7274,-1.8221,-1.795,-1.766,-1.7682,-1.8221,-1.8655,-1.9032,-1.9423,-1.8992,-1.8037,-1.771,-1.7792,-1.7743,-1.7743,-1.7357,-1.7057,-1.7146,-1.7611,-1.7633,-1.7901,-1.7901,-1.7955,-1.8172,-1.7988,-1.7584,-1.7907,-1.8528,-1.8768,-1.8927,-1.8555,-1.8232,-1.7374,-1.6962,-1.6636,-1.6083,-1.5743,-1.5434,-1.5172,-1.5055,-1.5021,-1.5113,-1.5084,-1.4815,-1.4302,-1.37,-1.3096,-1.2692,-1.205,-1.7797,-1.8415,-1.7852,-1.7611,-1.7611,-1.7611,-1.7523,-1.739,-1.7545,-1.7605,-1.744,-1.755,-1.7545,-1.7346,-1.7363,-1.7429,-1.7517,-1.728,-1.7124,-1.6561,-1.6446,-1.5928,-1.5669,-1.5444,-1.5425,-1.5415,-1.5415,-1.5415,-1.5415,-1.5386,-1.5328,-1.5143,-1.5021,-1.5055,-1.4785,-1.4124,-1.355,-1.2783,-1.217,-1.15,-1.0986,-1.1254,-1.1861,-1.2604,-1.3023,-1.3481,-1.382,-1.4094,-1.4599,-1.5172,-1.5444,-1.5502,-1.5415,-1.5415,-1.5444,-1.5497,-1.5468,-1.5439,-1.5444,-1.5584,-1.5748,-1.643,-1.6482,-1.6698,-1.7605,-1.7655,-1.749,-1.7841,-1.7682,-1.777,-1.7846,-1.8307,-1.8602,-1.8623,-1.8794,-1.8715,-1.8064,-1.8581,-1.8762,-1.8522,-1.8334,-1.8178,-1.744,-1.7418,-1.7611,-1.7633,-1.7743,-1.7852,-1.8118,-1.8442,-1.8118,-1.7715,-1.7955,-1.8361,-1.8199,-1.8248,-1.7934,-1.7605,-1.6856,-1.6301,-1.5974,-1.5892,-1.569,-1.5255,-1.481,-1.4722,-1.4717,-1.4025,-1.382,-1.361,-1.3459,-1.294,-1.2451,-1.1958,-1.1562,-1.8555,-1.9176,-1.8794,-1.8629,-1.8641,-1.8608,-1.8442,-1.8232,-1.8501,-1.8421,-1.8253,-1.8442,-1.8447,-1.8118,-1.8118,-1.8118,-1.801,-1.771,-1.7001,-1.6213,-1.595,-1.5753,-1.5526,-1.5415,-1.5415,-1.5415,-1.5415,-1.5415,-1.5415,-1.5415,-1.5415,-1.5415,-1.5415,-1.5357,-1.5415,-1.4932,-1.4357,-1.3627,-1.3032,-1.2239,-1.1465,-1.1676,-1.2296,-1.3023,-1.3756,-1.4183,-1.4183,-1.4183,-1.4628,-1.5255,-1.5724,-1.5724,-1.5463,-1.5444,-1.5555,-1.5869,-1.5921,-1.614,-1.6306,-1.6443,-1.6641,-1.6978,-1.7034,-1.7435,-1.7901,-1.8118,-1.8334,-1.8522,-1.8661,-1.8635,-1.8635,-1.89,-1.89,-1.8847,-1.8959,-1.9012,-1.8741,-1.8768,-1.8655,-1.828,-1.8085,-1.7928,-1.7715,-1.7825,-1.7988,-1.8178,-1.8205,-1.8313,-1.834,-1.8555,-1.8199,-1.7928,-1.7983,-1.7977,-1.7655,-1.7413,-1.7096,-1.6731,-1.6244,-1.5887,-1.5609,-1.5666,-1.5782,-1.5284,-1.481,-1.4421,-1.4243,-1.3459,-1.3005,-1.3061,-1.294,-1.2389,-1.1931,-1.1655,-1.1261,-1.9228,-1.9798,-1.9798,-1.9798,-1.9798,-1.9747,-1.9397,-1.9018,-1.9527,-1.9339,-1.9044,-1.9566,-1.9313,-1.8953,-1.8847,-1.8827,-1.8501,-1.7874,-1.6945,-1.5945,-1.583,-1.5637,-1.5473,-1.5415,-1.5415,-1.5415,-1.5415,-1.5415,-1.5415,-1.5415,-1.5415,-1.5415,-1.5415,-1.5415,-1.5381,-1.5196,-1.4746,-1.408,-1.3459,-1.2916,-1.2104,-1.2169,-1.2544,-1.3618,-1.4119,-1.4624,-1.4737,-1.4801,-1.5036,-1.5685,-1.6335,-1.6255,-1.5945,-1.5772,-1.5968,-1.6652,-1.6652,-1.6872,-1.7224,-1.744,-1.7523,-1.7715,-1.7764,-1.8118,-1.8667,-1.888,-1.9097,-1.9417,-1.9611,-1.9611,-1.9779,-1.9689,-1.9715,-1.9721,-1.9747,-1.9798,-1.9585,-1.8635,-1.8334,-1.8199,-1.8468,-1.8495,-1.8328,-1.8334,-1.8522,-1.8667,-1.8694,-1.8667,-1.8641,-1.8426,-1.7955,-1.7545,-1.7462,-1.7096,-1.6771,-1.6692,-1.6345,-1.6179,-1.5719,-1.5609,-1.5415,-1.5502,-1.558,-1.5313,-1.4898,-1.4451,-1.4004,-1.3489,-1.3126,-1.2909,-1.2726,-1.2481,-1.2027,-1.1417,-1.1233,-1.9695,-1.9798,-1.9798,-1.9798,-1.9798,-1.9798,-1.9715,-1.9643,-1.9721,-1.9747,-1.9637,-1.9753,-1.9747,-1.9585,-1.9605,-1.9281,-1.8635,-1.7922,-1.7107,-1.6312,-1.6145,-1.5926,-1.5473,-1.5415,-1.5415,-1.5415,-1.5415,-1.5415,-1.5415,-1.5415,-1.5415,-1.5415,-1.5415,-1.5415,-1.5235,-1.484,-1.4569,-1.4259,-1.3506,-1.2904,-1.2791,-1.2637,-1.3254,-1.4601,-1.5104,-1.5444,-1.5963,-1.6135,-1.6466,-1.7158,-1.7352,-1.7324,-1.7208,-1.7185,-1.733,-1.7363,-1.7418,-1.7584,-1.7825,-1.7737,-1.7988,-1.834,-1.8528,-1.8821,-1.9365,-1.956,-1.9592,-1.9695,-1.9798,-1.9798,-1.9798,-1.9798,-1.9798,-1.9798,-1.9798,-1.9798,-1.9721,-1.9475,-1.915,-1.8959,-1.9143,-1.9248,-1.9059,-1.89,-1.8986,-1.8939,-1.8774,-1.8501,-1.8232,-1.7879,-1.7418,-1.7029,-1.6669,-1.6249,-1.5772,-1.5772,-1.5671,-1.5758,-1.5526,-1.5526,-1.5415,-1.5415,-1.5323,-1.523,-1.4869,-1.4332,-1.3885,-1.3463,-1.3187,-1.2944,-1.2822,-1.2761,-1.2455,-1.212,-1.2208,-1.9798,-1.9798,-1.9798,-1.9798,-1.9798,-1.9798,-1.9798,-1.9798,-1.9798,-1.9798,-1.9798,-1.9798,-1.9798,-1.9798,-1.9798,-1.9391,-1.8655,-1.7922,-1.7191,-1.6595,-1.6088,-1.5777,-1.5444,-1.5444,-1.5415,-1.5415,-1.5415,-1.5415,-1.5415,-1.5415,-1.5415,-1.5415,-1.5415,-1.5415,-1.5357,-1.5079,-1.4815,-1.4615,-1.4164,-1.3703,-1.3661,-1.3374,-1.4307,-1.5453,-1.6002,-1.6363,-1.6922,-1.7057,-1.7219,-1.7578,-1.7955,-1.8112,-1.8253,-1.8442,-1.8522,-1.8259,-1.8178,-1.8361,-1.8661,-1.8741,-1.8959,-1.9202,-1.9254,-1.9417,-1.9689,-1.9773,-1.9798,-1.9798,-1.9798,-1.9798,-1.9798,-1.9798,-1.9798,-1.9798,-1.9798,-1.9798,-1.9798,-1.9798,-1.9637,-1.9443,-1.9417,-1.9475,-1.9663,-1.9553,-1.9534,-1.9293,-1.8906,-1.8421,-1.7874,-1.7385,-1.6928,-1.6698,-1.6392,-1.614,-1.5714,-1.5637,-1.5439,-1.5415,-1.5415,-1.5415,-1.5415,-1.5415,-1.5415,-1.5357,-1.4874,-1.4392,-1.3974,-1.3644,-1.3308,-1.3065,-1.3065,-1.3096,-1.3005,-1.2944,-1.3035,-1.9798,-1.9798,-1.9798,-1.9798,-1.9798,-1.9798,-1.9798,-1.9798,-1.9798,-1.9798,-1.9798,-1.9798,-1.9798,-1.9773,-1.9579,-1.9196,-1.8635,-1.7922,-1.7191,-1.6595,-1.6249,-1.5877,-1.5661,-1.5777,-1.5921,-1.5875,-1.5729,-1.556,-1.5415,-1.5415,-1.5415,-1.5415,-1.5415,-1.5415,-1.5357,-1.5323,-1.5415,-1.5415,-1.5386,-1.5084,-1.4951,-1.4943,-1.539,-1.6567,-1.6736,-1.7057,-1.7743,-1.7819,-1.795,-1.8253,-1.8614,-1.8933,-1.9012,-1.9475,-1.9508,-1.9044,-1.8939,-1.9287,-1.956,-1.9721,-1.9585,-1.9689,-1.9773,-1.9798,-1.9798,-1.9798,-1.9798,-1.9798,-1.9798,-1.9798,-1.9798,-1.9798,-1.9798,-1.9798,-1.9798,-1.9798,-1.9721,-1.9637,-1.9417,-1.9365,-1.9475,-1.9339,-1.9176,-1.9006,-1.8715,-1.8447,-1.8064,-1.7955,-1.744,-1.7006,-1.6624,-1.6415,-1.6244,-1.6107,-1.594,-1.5892,-1.5637,-1.5405,-1.541,-1.5415,-1.5415,-1.5415,-1.5415,-1.5386,-1.5143,-1.4663,-1.4213,-1.403,-1.4055,-1.3965,-1.3636,-1.3606,-1.391,-1.394,-1.391,-1.9798,-1.9798,-1.9798,-1.9798,-1.9798,-1.9798,-1.9798,-1.9798,-1.9798,-1.9798,-1.9798,-1.9798,-1.9798,-1.9689,-1.9176,-1.8853,-1.8555,-1.8031,-1.7385,-1.6872,-1.6973,-1.6805,-1.6562,-1.7079,-1.683,-1.6516,-1.6337,-1.5979,-1.5686,-1.5546,-1.5415,-1.5415,-1.5415,-1.5415,-1.5415,-1.5415,-1.5415,-1.5415,-1.5444,-1.5973,-1.6871,-1.6992,-1.7141,-1.7379,-1.7528,-1.7825,-1.8447,-1.8602,-1.8768,-1.9339,-1.9527,-1.9663,-1.9695,-1.9721,-1.9779,-1.9695,-1.9701,-1.9727,-1.9798,-1.9798,-1.9798,-1.9798,-1.9798,-1.9798,-1.9798,-1.9798,-1.9798,-1.9798,-1.9798,-1.9798,-1.9798,-1.9798,-1.9798,-1.9798,-1.9798,-1.9798,-1.9773,-1.9611,-1.9365,-1.915,-1.9234,-1.8581,-1.8172,-1.7977,-1.7759,-1.7517,-1.733,-1.733,-1.7219,-1.6922,-1.6572,-1.6477,-1.6358,-1.6221,-1.5859,-1.5835,-1.5719,-1.5434,-1.541,-1.5415,-1.5415,-1.5415,-1.5415,-1.5357,-1.5143,-1.5084,-1.4874,-1.484,-1.4986,-1.4835,-1.451,-1.4751,-1.5143,-1.5025,-1.4544,-1.9798,-1.9798,-1.9798,-1.9798,-1.9798,-1.9798,-1.9798,-1.9798,-1.9798,-1.9798,-1.9798,-1.9798,-1.9798,-1.9721,-1.9423,-1.9339,-1.9143,-1.8549,-1.8091,-1.7633,-1.7655,-1.7457,-1.7163,-1.7186,-1.7113,-1.7191,-1.6526,-1.6374,-1.6134,-1.5769,-1.5415,-1.5468,-1.5444,-1.5415,-1.5555,-1.5444,-1.5415,-1.5526,-1.5869,-1.6713,-1.7617,-1.7839,-1.7819,-1.8194,-1.8232,-1.8641,-1.9097,-1.9345,-1.9449,-1.9798,-1.9798,-1.9798,-1.9798,-1.9798,-1.9798,-1.9798,-1.9798,-1.9798,-1.9798,-1.9824,-1.9798,-1.9798,-1.9798,-1.9798,-1.9798,-1.9798,-1.9798,-1.9798,-1.9798,-1.9798,-1.9798,-1.9798,-1.9798,-1.9798,-1.9798,-1.9798,-1.9773,-1.9618,-1.943,-1.9182,-1.8933,-1.8447,-1.8178,-1.8501,-1.8388,-1.795,-1.7819,-1.7792,-1.7627,-1.7357,-1.7034,-1.6708,-1.6562,-1.6448,-1.5945,-1.5637,-1.5609,-1.5439,-1.541,-1.5415,-1.5415,-1.5415,-1.5415,-1.5415,-1.5323,-1.5328,-1.5415,-1.5352,-1.523,-1.5294,-1.5386,-1.5415,-1.5357,-1.4815,-1.4302,-1.9798,-1.9798,-1.9798,-1.9798,-1.9798,-1.9798,-1.9798,-1.9798,-1.9798,-1.9798,-1.9798,-1.9798,-1.9798,-1.9798,-1.9779,-1.9721,-1.9747,-1.9228,-1.8874,-1.8575,-1.8361,-1.8112,-1.7954,-1.7707,-1.7947,-1.8075,-1.6706,-1.6301,-1.6327,-1.6261,-1.5864,-1.5911,-1.5892,-1.5916,-1.5968,-1.6073,-1.612,-1.5983,-1.6722,-1.7673,-1.8518,-1.8451,-1.8578,-1.8821,-1.9032,-1.9234,-1.9695,-1.9779,-1.9779,-1.9798,-1.9798,-1.9798,-1.9798,-1.9798,-1.9798,-1.9875,-1.9952,-2.0156,-2.0055,-1.9978,-1.985,-1.9798,-1.9798,-1.9798,-1.9798,-1.9798,-1.9798,-1.9798,-1.9798,-1.9798,-1.9798,-1.9798,-1.9798,-1.9798,-1.9798,-1.9798,-1.9747,-1.9501,-1.9423,-1.9391,-1.915,-1.88,-1.8774,-1.9319,-1.9182,-1.8522,-1.8307,-1.8253,-1.8118,-1.7901,-1.771,-1.7413,-1.7085,-1.6861,-1.626,-1.5806,-1.5666,-1.5526,-1.5497,-1.5444,-1.5473,-1.5444,-1.5415,-1.5415,-1.5415,-1.5415,-1.5415,-1.5415,-1.5415,-1.5415,-1.5415,-1.5415,-1.5235,-1.4692,-1.4421,-1.9798,-1.9798,-1.9798,-1.9798,-1.9798,-1.9798,-1.9798,-1.9798,-1.9798,-1.9798,-1.9798,-1.9798,-1.9798,-1.9798,-1.9798,-1.9798,-1.9798,-1.9753,-1.9339,-1.915,-1.9234,-1.9018,-1.8776,-1.8857,-1.9256,-1.9115,-1.7329,-1.6097,-1.5968,-1.6348,-1.6664,-1.7274,-1.6698,-1.6912,-1.7079,-1.7052,-1.702,-1.7059,-1.7757,-1.8661,-1.9309,-1.9486,-1.9534,-1.9585,-1.9689,-1.9773,-1.9798,-1.9798,-1.9798,-1.9798,-1.9927,-1.9946,-1.9997,-2.0086,-2.0137,-2.0207,-2.0484,-2.0701,-2.0738,-2.0377,-1.9946,-1.985,-1.992,-2.0086,-2.0156,-1.9927,-1.9856,-1.9991,-2.0093,-1.9927,-1.9901,-1.9798,-1.9798,-1.9798,-1.9798,-1.9798,-1.9663,-1.9307,-1.9254,-1.9463,-1.9359,-1.9097,-1.9097,-1.9585,-1.9482,-1.8853,-1.8655,-1.8602,-1.8741,-1.8608,-1.8555,-1.828,-1.7819,-1.7357,-1.6685,-1.6402,-1.634,-1.6054,-1.5859,-1.5695,-1.5555,-1.5497,-1.5415,-1.5415,-1.5415,-1.5415,-1.5415,-1.5415,-1.5415,-1.5415,-1.5386,-1.5328,-1.5177,-1.4785,-1.4785,-1.9798,-1.9798,-1.9798,-1.9798,-1.9798,-1.9798,-1.9798,-1.9798,-1.9798,-1.9798,-1.9798,-1.9798,-1.9798,-1.9798,-1.9798,-1.9798,-1.9798,-1.9798,-1.956,-1.9534,-1.9585,-1.9339,-1.9053,-1.8893,-1.9129,-1.9058,-1.7338,-1.5879,-1.5592,-1.6226,-1.7235,-1.766,-1.7523,-1.739,-1.7556,-1.7797,-1.7801,-1.8109,-1.8454,-1.9064,-1.9646,-1.9809,-1.9798,-1.9798,-1.9798,-1.9798,-1.9798,-1.9798,-1.9798,-1.992,-2.022,-2.0339,-2.0459,-2.0688,-2.0841,-2.0908,-2.1263,-2.1517,-2.1702,-2.1311,-2.0988,-2.0964,-2.0995,-2.0928,-2.0823,-2.0922,-2.0977,-2.091,-2.0602,-2.0421,-2.0396,-2.0074,-1.9798,-1.9798,-1.985,-1.9875,-1.9715,-1.9411,-1.9327,-1.9625,-1.9657,-1.9527,-1.9611,-1.9773,-1.9508,-1.9188,-1.9065,-1.898,-1.9117,-1.9097,-1.8906,-1.8661,-1.8167,-1.7786,-1.7168,-1.7062,-1.7034,-1.6669,-1.6306,-1.6197,-1.6031,-1.5497,-1.5439,-1.5415,-1.5526,-1.5661,-1.5633,-1.5468,-1.5415,-1.5439,-1.5323,-1.5177,-1.4996,-1.4844,-1.4932,-1.9798,-1.9798,-1.9798,-1.9798,-1.9798,-1.9798,-1.9798,-1.9798,-1.9798,-1.9798,-1.9798,-1.9798,-1.9798,-1.9798,-1.9798,-1.9798,-1.9721,-1.956,-1.9469,-1.9307,-1.9071,-1.8847,-1.8439,-1.8211,-1.823,-1.8385,-1.7009,-1.5484,-1.6237,-1.6631,-1.7512,-1.8199,-1.8447,-1.8367,-1.834,-1.8286,-1.8522,-1.89,-1.9097,-1.9208,-1.9779,-1.9805,-1.9798,-1.9798,-1.9798,-1.9997,-2.0099,-2.0201,-2.0333,-2.0527,-2.0818,-2.1028,-2.1203,-2.1424,-2.1737,-2.1927,-2.2176,-2.2467,-2.2693,-2.2348,-2.1904,-2.1571,-2.1554,-2.1609,-2.1697,-2.172,-2.1513,-2.1561,-2.1252,-2.1053,-2.1004,-2.0584,-2.0245,-2.027,-2.0251,-2.0258,-2.0055,-1.9805,-1.976,-1.9818,-1.9792,-1.9747,-1.9792,-1.985,-1.9786,-1.9553,-1.9449,-1.9391,-1.9417,-1.9281,-1.8953,-1.8682,-1.8307,-1.7977,-1.7655,-1.7517,-1.7385,-1.7274,-1.6968,-1.6894,-1.6647,-1.614,-1.6021,-1.6353,-1.6381,-1.6125,-1.6159,-1.6358,-1.594,-1.5463,-1.5405,-1.5371,-1.5177,-1.5055,-1.4932,-1.983,-1.9798,-1.9798,-1.9798,-1.985,-1.9798,-1.9798,-1.9798,-1.9798,-1.9798,-1.9798,-1.9798,-1.9798,-1.9798,-1.9798,-1.9798,-1.9689,-1.9202,-1.8986,-1.8959,-1.8555,-1.7928,-1.7583,-1.7456,-1.7296,-1.7197,-1.6291,-1.604,-1.7352,-1.7323,-1.7961,-1.8655,-1.9097,-1.9423,-1.9663,-1.9721,-1.9741,-1.9741,-1.9689,-1.9741,-1.9766,-1.9798,-1.9824,-1.9978,-1.9978,-2.0226,-2.0633,-2.0758,-2.0935,-2.1256,-2.1513,-2.1727,-2.1871,-2.1988,-2.2276,-2.2664,-2.3186,-2.3651,-2.4007,-2.3082,-2.2611,-2.2229,-2.2328,-2.2174,-2.1908,-2.1815,-2.1869,-2.2,-2.1656,-2.1575,-2.1414,-2.1064,-2.0683,-2.059,-2.0553,-2.0478,-2.0251,-2.0048,-1.9946,-2.0099,-1.9972,-1.985,-1.9869,-1.992,-1.9991,-1.9914,-1.9824,-1.9773,-1.9747,-1.9553,-1.9222,-1.9065,-1.8768,-1.8575,-1.8334,-1.7955,-1.7764,-1.7682,-1.7627,-1.7611,-1.7495,-1.7158,-1.718,-1.7374,-1.7152,-1.6794,-1.7074,-1.7413,-1.6557,-1.5748,-1.5777,-1.5719,-1.5492,-1.5405,-1.542,-2.0055,-2.0421,-1.9972,-2.0055,-2.0346,-1.9978,-1.9798,-1.9798,-1.9798,-1.9798,-1.9798,-1.9798,-1.9798,-1.9798,-1.9798,-1.9798,-1.9715,-1.9689,-1.9423,-1.9287,-1.8549,-1.8064,-1.7605,-1.7036,-1.6573,-1.611,-1.5627,-1.6257,-1.7534,-1.7688,-1.8054,-1.8688,-1.9449,-1.9747,-1.9798,-1.9798,-1.9798,-1.9798,-1.9798,-1.9798,-1.9798,-1.985,-2.0023,-2.0421,-2.0472,-2.0782,-2.1348,-2.1397,-2.1592,-2.1925,-2.2158,-2.2554,-2.2885,-2.3106,-2.3652,-2.411,-2.4597,-2.4649,-2.4937,-2.4638,-2.4402,-2.3821,-2.3339,-2.3172,-2.3025,-2.295,-2.2778,-2.2369,-2.2039,-2.1765,-2.1095,-2.0509,-2.022,-2.0515,-2.0547,-2.0478,-2.0302,-2.0074,-1.9972,-2.0396,-2.0472,-2.0695,-2.0805,-2.0657,-2.0632,-2.0452,-2.0333,-1.9997,-1.9875,-1.9798,-1.9579,-1.9585,-1.9423,-1.9261,-1.9012,-1.8715,-1.8661,-1.8741,-1.8555,-1.834,-1.8199,-1.8058,-1.7868,-1.7813,-1.7649,-1.749,-1.7572,-1.7462,-1.6641,-1.6065,-1.6306,-1.6523,-1.6546,-1.6438,-1.6381,-2.0048,-2.0396,-1.9978,-2.0029,-2.0352,-1.9972,-1.9798,-1.9798,-1.9798,-1.9798,-1.9798,-1.9798,-1.9798,-1.9798,-1.9798,-1.9798,-1.9773,-1.9501,-1.9397,-1.9319,-1.8635,-1.8037,-1.7523,-1.713,-1.6765,-1.6102,-1.6254,-1.6967,-1.8422,-1.8143,-1.8447,-1.9097,-1.956,-1.9747,-1.9798,-1.9798,-1.9798,-1.9798,-1.9824,-1.9952,-2.0105,-2.0277,-2.049,-2.0917,-2.1172,-2.1397,-2.1873,-2.2116,-2.2234,-2.2592,-2.304,-2.3549,-2.4055,-2.4452,-2.4961,-2.5316,-2.5646,-2.5674,-2.5837,-2.5936,-2.5558,-2.4988,-2.4704,-2.415,-2.373,-2.345,-2.3319,-2.2972,-2.2515,-2.217,-2.166,-2.0946,-2.0794,-2.1161,-2.1144,-2.1119,-2.0892,-2.0688,-2.0738,-2.1119,-2.121,-2.1479,-2.1663,-2.1561,-2.1417,-2.1141,-2.0837,-2.0477,-2.0099,-1.9901,-1.9824,-1.9779,-1.9753,-1.9585,-1.9527,-1.9527,-1.9553,-1.9773,-1.9449,-1.9018,-1.9044,-1.89,-1.8575,-1.8334,-1.8447,-1.8388,-1.7862,-1.7429,-1.7074,-1.7029,-1.7252,-1.744,-1.76,-1.7296,-1.6945,-1.9798,-1.9824,-1.9798,-1.9824,-1.985,-1.9856,-1.9798,-1.9798,-1.9798,-1.9798,-1.9798,-1.9798,-1.9798,-1.9798,-1.9798,-1.9798,-1.9747,-1.9176,-1.9044,-1.8747,-1.8367,-1.7928,-1.7764,-1.7539,-1.7208,-1.7181,-1.7308,-1.7832,-1.9486,-1.9247,-1.9294,-1.9702,-2.0055,-2.0181,-2.0181,-2.0181,-2.0137,-2.0099,-2.0213,-2.0459,-2.0733,-2.0825,-2.1238,-2.1656,-2.1875,-2.2264,-2.2689,-2.2943,-2.3412,-2.3861,-2.4353,-2.4729,-2.5023,-2.5224,-2.5588,-2.6034,-2.6531,-2.6649,-2.6716,-2.6791,-2.6505,-2.5916,-2.5162,-2.4386,-2.3948,-2.3829,-2.3637,-2.3442,-2.3091,-2.3201,-2.3039,-2.2605,-2.2191,-2.2267,-2.2291,-2.2114,-2.1859,-2.1788,-2.1866,-2.196,-2.1922,-2.2032,-2.2132,-2.2102,-2.2312,-2.2174,-2.1848,-2.1321,-2.0841,-1.9972,-1.9869,-1.9798,-1.9798,-1.9798,-1.9798,-1.9798,-1.9798,-1.9798,-1.9798,-1.9527,-1.9637,-1.9611,-1.9313,-1.9176,-1.9482,-1.9208,-1.8199,-1.7955,-1.8037,-1.7988,-1.7446,-1.755,-1.7462,-1.7324,-1.7107,-2.0074,-2.0446,-1.9997,-2.0048,-2.0403,-1.9997,-1.9798,-1.9798,-1.9798,-1.9798,-1.9798,-1.9798,-1.9869,-1.9798,-1.9798,-1.9824,-1.9773,-1.9618,-1.9553,-1.9222,-1.8829,-1.8516,-1.8248,-1.8025,-1.7833,-1.7821,-1.8024,-1.8462,-1.9582,-1.9799,-2.0099,-2.0515,-2.0713,-2.0897,-2.1013,-2.1152,-2.0928,-2.0794,-2.0971,-2.1207,-2.1448,-2.1554,-2.212,-2.2661,-2.2667,-2.3186,-2.393,-2.3931,-2.4353,-2.4827,-2.4973,-2.5287,-2.606,-2.6156,-2.6438,-2.7234,-2.7491,-2.756,-2.7545,-2.7536,-2.7296,-2.6794,-2.6174,-2.5527,-2.4933,-2.4427,-2.4099,-2.3903,-2.3599,-2.3542,-2.3347,-2.2973,-2.2899,-2.3032,-2.2965,-2.2704,-2.2502,-2.2601,-2.2705,-2.2869,-2.281,-2.2988,-2.2995,-2.3054,-2.3245,-2.3201,-2.2936,-2.2359,-2.1564,-2.0668,-1.992,-1.985,-1.9798,-1.9798,-1.9798,-1.9798,-1.9798,-1.9798,-1.9798,-1.9798,-1.9747,-1.9747,-1.9798,-1.9747,-1.9643,-1.8992,-1.8076,-1.8015,-1.8091,-1.739,-1.6877,-1.7168,-1.7352,-1.7352,-1.749,-2.0434,-2.0678,-2.0067,-2.0169,-2.0653,-2.0378,-2.0314,-2.0471,-2.0314,-2.0074,-1.985,-2.0099,-2.0194,-2.0226,-2.0245,-2.0358,-2.0632,-2.0632,-2.0601,-2.0438,-1.9767,-1.9677,-1.9302,-1.8809,-1.877,-1.8732,-1.8764,-1.905,-1.9837,-2.0182,-2.0403,-2.0802,-2.1245,-2.1472,-2.169,-2.2051,-2.2229,-2.2044,-2.2021,-2.2176,-2.2352,-2.2587,-2.3323,-2.3836,-2.3726,-2.4363,-2.5004,-2.4835,-2.5104,-2.5597,-2.5709,-2.6147,-2.6841,-2.7089,-2.7144,-2.7779,-2.7817,-2.7817,-2.7803,-2.7831,-2.7669,-2.7455,-2.7171,-2.6834,-2.6095,-2.5445,-2.4982,-2.4582,-2.4099,-2.3704,-2.3352,-2.3105,-2.3388,-2.3676,-2.3433,-2.3164,-2.3215,-2.3309,-2.3518,-2.3754,-2.3937,-2.414,-2.4217,-2.4212,-2.4204,-2.4179,-2.3939,-2.3429,-2.2461,-2.1335,-2.0408,-1.985,-1.9824,-1.9798,-1.9888,-2.0105,-2.0086,-2.0042,-1.9798,-1.9798,-1.9824,-1.9798,-1.9798,-1.9663,-1.9501,-1.8959,-1.8507,-1.8015,-1.7819,-1.7224,-1.6956,-1.7252,-1.7627,-1.7819,-1.8037,-2.087,-2.0845,-2.022,-2.039,-2.0838,-2.0888,-2.1161,-2.1646,-2.1168,-2.0608,-2.0245,-2.0615,-2.0856,-2.085,-2.085,-2.1099,-2.128,-2.1393,-2.1238,-2.1585,-2.0787,-2.0434,-2.0144,-2.0105,-1.9619,-1.9734,-1.9863,-1.9876,-2.0004,-2.0459,-2.093,-2.0901,-2.1272,-2.1694,-2.222,-2.3018,-2.3367,-2.3495,-2.3385,-2.3439,-2.3664,-2.4069,-2.4559,-2.5046,-2.5128,-2.5243,-2.5368,-2.5494,-2.5682,-2.6294,-2.6736,-2.7097,-2.7534,-2.7946,-2.8006,-2.8066,-2.8183,-2.8215,-2.8224,-2.8233,-2.8125,-2.8011,-2.7936,-2.7759,-2.7125,-2.6286,-2.5745,-2.5538,-2.515,-2.4846,-2.4551,-2.4197,-2.4266,-2.4391,-2.4274,-2.4176,-2.423,-2.4312,-2.4388,-2.4561,-2.4601,-2.4784,-2.4784,-2.4732,-2.4843,-2.4957,-2.476,-2.4278,-2.3644,-2.2395,-2.161,-2.0695,-2.0744,-2.0919,-2.0853,-2.0961,-2.0634,-2.0419,-2.0263,-2.0181,-2.045,-2.0206,-1.9798,-1.9689,-1.9611,-1.9553,-1.9208,-1.8629,-1.814,-1.7874,-1.766,-1.7633,-1.7868,-1.8305,-1.8172,-2.1472,-2.1479,-2.1321,-2.1345,-2.1479,-2.1503,-2.1568,-2.1744,-2.2144,-2.1826,-2.1369,-2.14,-2.1479,-2.1486,-2.1486,-2.1639,-2.1703,-2.1915,-2.1462,-2.1234,-2.0912,-2.0671,-2.0207,-2.008,-2.0099,-2.0421,-2.0622,-2.0751,-2.1026,-2.1455,-2.1748,-2.167,-2.2139,-2.2772,-2.3069,-2.3956,-2.4421,-2.4733,-2.5161,-2.497,-2.4928,-2.4945,-2.5208,-2.5542,-2.5654,-2.5986,-2.6163,-2.6404,-2.6835,-2.737,-2.7531,-2.7853,-2.8232,-2.857,-2.8836,-2.8957,-2.8799,-2.8793,-2.8828,-2.8787,-2.8691,-2.8593,-2.8509,-2.8346,-2.7903,-2.7121,-2.666,-2.6529,-2.6295,-2.6018,-2.574,-2.5384,-2.507,-2.5109,-2.5117,-2.5174,-2.5243,-2.527,-2.5278,-2.533,-2.5311,-2.5308,-2.5327,-2.5373,-2.5449,-2.5384,-2.5186,-2.4909,-2.4825,-2.4058,-2.3637,-2.2906,-2.2533,-2.2518,-2.2211,-2.1958,-2.1678,-2.1622,-2.1582,-2.1397,-2.1161,-2.0891,-2.0616,-2.0023,-1.9747,-2.0105,-2.0016,-1.904,-1.8611,-1.8837,-1.8859,-1.9045,-1.8937,-1.921,-1.8581,-2.2146,-2.2146,-2.2146,-2.2154,-2.2154,-2.2146,-2.2285,-2.2545,-2.2672,-2.2657,-2.2485,-2.2285,-2.2154,-2.2154,-2.2154,-2.2202,-2.2248,-2.2469,-2.2023,-2.1486,-2.1155,-2.0807,-2.0465,-2.0245,-2.0428,-2.0771,-2.1113,-2.1407,-2.1892,-2.1953,-2.2023,-2.251,-2.3347,-2.3846,-2.4194,-2.4929,-2.5435,-2.5809,-2.6671,-2.672,-2.6302,-2.6362,-2.6472,-2.6664,-2.6755,-2.6973,-2.7045,-2.7278,-2.7596,-2.808,-2.8358,-2.8606,-2.8909,-2.914,-2.9346,-2.9416,-2.9387,-2.9357,-2.9426,-2.9396,-2.9274,-2.9151,-2.9152,-2.9013,-2.9044,-2.834,-2.7982,-2.7788,-2.7009,-2.6656,-2.6597,-2.631,-2.6001,-2.59,-2.5772,-2.5699,-2.5882,-2.6052,-2.6259,-2.6543,-2.6454,-2.6251,-2.625,-2.6187,-2.6291,-2.6472,-2.6179,-2.6217,-2.6029,-2.5682,-2.5308,-2.484,-2.4311,-2.3567,-2.2921,-2.2812,-2.2834,-2.2827,-2.2885,-2.254,-2.2209,-2.1818,-2.1431,-2.1182,-2.1151,-2.1444,-2.1084,-2.0356,-2.0569,-2.1145,-2.0924,-2.0636,-2.0452,-2.0368,-2.0317,-2.2877,-2.3002,-2.295,-2.2995,-2.301,-2.3024,-2.3318,-2.3672,-2.3275,-2.3348,-2.3715,-2.3274,-2.3024,-2.2935,-2.3017,-2.301,-2.3172,-2.3584,-2.3003,-2.2289,-2.2004,-2.153,-2.1148,-2.0899,-2.1071,-2.1462,-2.1932,-2.2127,-2.2419,-2.2737,-2.33,-2.3666,-2.3978,-2.4351,-2.5282,-2.6051,-2.6547,-2.6841,-2.7382,-2.7858,-2.7932,-2.7922,-2.7756,-2.7785,-2.7918,-2.7955,-2.7983,-2.8094,-2.8254,-2.8609,-2.9045,-2.9214,-2.9338,-2.9495,-2.9615,-2.9687,-2.9643,-2.9642,-2.9704,-2.966,-2.9633,-2.9633,-2.9704,-2.9695,-2.9677,-2.9486,-2.911,-2.8665,-2.7905,-2.7514,-2.7452,-2.7265,-2.6971,-2.6779,-2.6597,-2.6455,-2.6705,-2.6926,-2.7248,-2.7621,-2.7443,-2.7233,-2.7167,-2.7096,-2.7177,-2.7387,-2.7516,-2.7678,-2.7625,-2.7176,-2.6764,-2.6194,-2.5612,-2.477,-2.4047,-2.3968,-2.4199,-2.4118,-2.4126,-2.368,-2.3209,-2.2673,-2.2503,-2.282,-2.2856,-2.2717,-2.2739,-2.2318,-2.2761,-2.2964,-2.2401,-2.1891,-2.2087,-2.2116,-2.2607,-2.385,-2.4689,-2.4243,-2.4313,-2.4641,-2.4673,-2.4788,-2.4871,-2.4729,-2.4816,-2.4756,-2.4784,-2.4528,-2.4093,-2.4569,-2.4553,-2.4192,-2.4589,-2.4096,-2.3324,-2.2996,-2.2352,-2.192,-2.1846,-2.1946,-2.2533,-2.3302,-2.3788,-2.3793,-2.4417,-2.4765,-2.4656,-2.5481,-2.5775,-2.5916,-2.6643,-2.7282,-2.7636,-2.8022,-2.8455,-2.8449,-2.8292,-2.7936,-2.7942,-2.8045,-2.8328,-2.8567,-2.88,-2.9096,-2.9391,-2.9551,-2.9616,-2.9687,-2.9738,-2.985,-2.9931,-2.9878,-2.9886,-2.9916,-2.9874,-2.9867,-2.9817,-2.9825,-2.9809,-2.9794,-2.9771,-2.9541,-2.9494,-2.893,-2.8661,-2.8528,-2.8244,-2.7963,-2.7958,-2.7843,-2.7843,-2.7958,-2.802,-2.8155,-2.8273,-2.8236,-2.8171,-2.8208,-2.8135,-2.808,-2.8202,-2.8194,-2.831,-2.8251,-2.8173,-2.8085,-2.7458,-2.6757,-2.6622,-2.6137,-2.5696,-2.5704,-2.5597,-2.5279,-2.472,-2.4098,-2.3372,-2.3329,-2.3948,-2.3756,-2.3456,-2.3527,-2.4009,-2.3727,-2.3712,-2.3343,-2.3079,-2.3406,-2.3779,-2.4216]},{"header":{"parameterUnit":"m.s-1","parameterCategory":1,"la1":31.0,"la2":29.5877,"lo1":-88.7671,"lo2":-86.6584,"dy":0.0162,"dx":0.0185,"nx":115,"ny":88,"refTime":"2023-07-15T06:00:00:Z","depth":0,"parameterNumber":3,"parameterNumberName":"V-component_of_WINDS"},"data":[0.0,0.0,0.0,0.0,0.0,0.0,0.0,0.0,0.0,0.0,0.0,0.0,0.0,0.0,0.0,0.0,0.0,0.0,0.0,0.0,0.0,0.0,0.0,0.0,0.0,0.0,0.0,0.0,0.0,0.0,0.0,0.0,0.0,0.0,0.0,0.0,0.0,0.0,0.0,0.0,0.0,0.0,0.0,0.0,0.0,0.0,0.0,0.0,0.0,0.0,0.0,0.0,0.0,0.0,0.0,0.0,0.0,0.0,0.0,0.0,0.0,0.0,0.0,0.0,0.0,0.0,0.0,0.0,0.0,0.0,0.0,0.0,0.0,0.0,0.0,0.0,0.0,0.0,0.0,0.0,0.0,0.0,0.0,0.0,0.0,0.0,0.0,0.0,0.0,0.0,0.0,0.0,0.0,0.0,0.0,0.0,0.0,0.0,0.0,0.0,0.0,0.0,0.0,0.0,0.0,0.0,0.0,0.0,0.0,0.0,0.0,0.0,0.0,0.0,0.0,0.0,0.0,0.0,0.0,0.0,0.0,0.0,0.0,0.0,0.0,0.0,0.0,0.0,0.0,0.0,0.0,0.0,0.0,0.0,0.0,0.0,0.0,0.0,0.0,0.0,0.0,0.0,0.0,0.0,0.0,0.0,0.0,0.0,0.0,0.0,0.0,0.0,0.0,0.0,0.0,0.0,0.0,0.0,0.0,0.0,0.0,0.0,0.0,0.0,0.0,0.0,0.0,0.0,0.0,0.0,0.0,0.0,0.0,0.0,0.0,0.0,0.0,0.0,0.0,0.0,0.0,0.0,0.0,0.0,0.0,0.0,0.0,0.0,0.0,0.0,0.0,0.0,0.0,0.0,0.0,0.0,0.0,0.0,0.0,0.0,0.0,0.0,0.0,0.0,0.0,0.0,0.0,0.0,0.0,0.0,0.0,0.0,0.0,0.0,0.0,0.0,0.0,0.0,0.0,0.0,0.0,0.0,0.0,0.0,0.0,0.0,0.0,0.0,0.0,0.0,0.0,0.0,0.0,0.0,0.0,0.0,0.0,0.0,0.0,0.0,0.0,0.0,0.0,0.0,0.0,0.0,0.0,0.0,0.0,0.0,0.0,0.0,0.0,0.0,0.0,0.0,0.0,0.0,0.0,0.0,0.0,0.0,0.0,0.0,0.0,0.0,0.0,0.0,0.0,0.0,0.0,0.0,0.0,0.0,0.0,0.0,0.0,0.0,0.0,0.0,0.0,0.0,0.0,0.0,0.0,0.0,0.0,0.0,0.0,0.0,0.0,0.0,0.0,0.0,0.0,0.0,0.0,0.0,0.0,0.0,0.0,0.0,0.0,0.0,0.0,0.0,0.0,0.0,0.0,0.0,0.0,0.0,0.0,0.0,0.0,0.0,0.0,0.0,0.0,0.0,0.0,0.0,0.0,0.0,0.0,0.0,0.0,0.0,0.0,0.0,0.0,0.0,0.0,0.0,0.0,0.0,0.0,0.0,0.0,0.0,0.0,0.0,0.0,0.0,0.0,0.0,0.0,0.0,0.0,0.0,0.0,0.0,0.0,0.0,0.0,0.0,0.0,0.0,0.0,0.0,0.0,0.0,0.0,0.0,0.0,0.0,0.0,0.0,0.0,0.0,0.0,0.0,0.0,0.0,0.0,0.0,0.0,0.0,0.0,0.0,0.0,0.0,0.0,0.0,0.0,0.0,0.0,0.0,0.0,0.0,0.0,0.0,0.0,0.0,0.0,0.0,0.0,0.0,0.0,0.0,0.0,0.0,0.0,0.0,0.0,0.0,0.0,0.0,0.0,0.0,0.0,0.0,0.0,0.0,0.0,0.0,0.0,0.0,0.0,0.0,0.0,0.0,0.0,0.0,0.0,0.0,0.0,0.0,0.0,0.0,0.0,0.0,0.0,0.0,0.0,0.0,0.0,0.0,0.0,0.0,0.0,0.0,0.0,0.0,0.0,0.0,0.0,0.0,0.0,0.0,0.0,0.0,0.0,0.0,0.0,0.0,0.0,0.0,0.0,0.0,0.0,0.0,0.0,0.0,0.0,0.0,0.0,0.0,0.0,0.0,0.0,0.0,0.0,0.0,0.0,0.0,0.0,0.0,0.0,0.0,0.0,0.0,0.0,0.0,0.0,0.0,0.0,0.0,0.0,0.0,0.0,0.0,0.0,0.0,0.0,0.0,0.0,0.0,0.0,0.0,0.0,0.0,0.0,0.0,0.0,0.0,0.0,0.0,0.0,0.0,0.0,0.0,0.0,0.0,0.0,0.0,0.0,0.0,0.0,0.0,0.0,0.0,0.0,0.0,0.0,0.0,0.0,0.0,0.0,0.0,0.0,0.0,0.0,0.0,0.0,0.0,0.0,0.0,0.0,0.0,0.0,0.0,0.0,0.0,0.0,0.0,0.0,0.0,0.0,0.0,0.0,0.0,0.0,0.0,0.0,0.0,0.0,0.0,0.0,0.0,0.0,0.0,0.0,0.0,0.0,0.0,0.0,0.0,0.0,0.0,0.0,0.0,0.0,0.0,0.0,0.0,0.0,0.0,0.0,0.0,0.0,0.0,0.0,0.0,0.0,0.0,0.0,0.0,0.0,0.0,0.0,0.0,0.0,0.0,0.0,0.0,0.0,0.0,0.0,0.0,0.0,0.0,0.0,0.0,0.0,0.0,0.0,0.0,0.0,0.0,0.0,0.0,0.0,0.0,0.0,0.0,0.0,0.0,0.0,0.0,0.0,0.0,0.0,0.0,0.0,0.0,0.0,0.0,0.0,0.0,0.0,0.0,0.0,0.0,0.0,0.0,0.0,0.0,0.0,0.0,0.0,0.0,0.0,0.0,0.0,0.0,0.0,0.0,0.0,0.0,0.0,0.0,0.0,0.0,0.0,0.0,0.0,0.0,0.0,0.0,0.0,0.0,0.0,0.0,0.0,0.0,0.0,0.0,0.0,0.0,0.0,0.0,0.0,0.0,0.0,0.0,0.0,0.0,0.0,0.0,0.0,0.0,0.0,0.0,0.0,0.0,0.0,0.0,0.0,0.0,0.0,0.0,0.0,0.0,0.0,0.0,0.0,0.0,0.0,0.0,0.0,0.0,0.0,0.0,0.0,0.0,0.0,0.0,0.0,0.0,0.0,0.0,0.0,0.0,0.0,0.0,0.0,0.0,0.0,0.0,0.0,0.0,0.0,0.0,0.0,0.0,0.0,0.0,0.0,0.0,0.0,0.0,0.0,0.0,0.0,0.0,0.0,0.0,0.0,0.0,0.0,0.0,0.0,0.0,0.0,0.0,0.0,0.0,0.0,0.0,0.0,0.0,0.0,0.0,0.0,0.0,0.0,0.0,0.0,0.0,0.0,0.0,0.0,0.0,0.0,0.0,0.0,0.0,0.0,0.0,0.0,0.0,0.0,0.0,0.0,0.0,0.0,0.0,0.0,0.0,0.0,0.0,0.0,0.0,0.0,0.0,0.0,0.0,0.0,0.0,0.0,0.0,0.0,0.0,0.0,0.0,0.0,0.0,0.0,0.0,0.0,0.0,0.0,0.0,0.0,0.0,0.0,0.0,0.0,0.0,0.0,0.0,0.0,0.0,0.0,0.0,0.0,0.0,0.0,0.0,0.0,0.0,0.0,0.0,0.0,0.0,0.0,0.0,0.0,0.0,0.0,0.0,0.0,0.0,0.0,0.0,0.0,0.0,0.0,0.0,0.0,0.0,0.0,0.0,0.0,0.0,0.0,0.0,0.0,0.0,0.0,0.0,0.0,0.0,0.0,0.0,0.0,0.0,0.0,0.0,0.0,0.0,0.0,0.0,0.0,0.0,0.0,0.0,0.0,0.0,0.0,0.0,0.0,0.0,0.0,0.0,0.0,0.0,0.0,0.0,0.0,0.0,0.0,0.0,0.0,0.0,0.0,0.0,0.0,0.0,0.0,0.0,0.0,0.0,0.0,0.0,0.0,0.0,0.0,0.0,0.0,0.0,0.0,0.0,0.0,0.0,0.0,0.0,0.0,0.0,0.0,0.0,0.0,0.0,0.0,0.0,0.0,0.0,0.0,0.0,0.0,0.0,0.0,0.0,0.0,0.0,0.0,0.0,0.0,0.0,0.0,0.0,0.0,0.0,0.0,0.0,0.0,0.0,0.0,0.0,0.0,0.0,0.0,0.0,0.0,0.0,0.0,0.0,0.0,0.0,0.0,0.0,0.0,0.0,0.0,0.0,0.0,0.0,0.0,0.0,0.0,0.0,0.0,0.0,0.0,0.0,-2.8996,0.0,0.0,0.0,0.0,0.0,0.0,0.0,0.0,0.0,0.0,0.0,0.0,0.0,0.0,0.0,0.0,0.0,0.0,0.0,0.0,0.0,0.0,0.0,0.0,0.0,0.0,0.0,0.0,0.0,0.0,0.0,0.0,0.0,0.0,0.0,0.0,0.0,0.0,0.0,0.0,0.0,0.0,0.0,0.0,0.0,0.0,0.0,0.0,0.0,0.0,0.0,0.0,0.0,0.0,0.0,0.0,0.0,0.0,0.0,0.0,0.0,0.0,0.0,0.0,0.0,0.0,0.0,0.0,0.0,0.0,0.0,0.0,0.0,0.0,0.0,0.0,0.0,0.0,0.0,0.0,0.0,0.0,0.0,0.0,0.0,0.0,0.0,0.0,0.0,0.0,0.0,0.0,0.0,0.0,0.0,0.0,0.0,0.0,0.0,0.0,0.0,0.0,0.0,0.0,0.0,0.0,0.0,0.0,0.0,0.0,-2.8996,-2.8996,-2.8996,-2.8996,-2.8996,0.0,0.0,0.0,0.0,0.0,0.0,0.0,0.0,0.0,0.0,0.0,0.0,0.0,0.0,0.0,0.0,0.0,0.0,0.0,0.0,0.0,0.0,0.0,0.0,0.0,0.0,0.0,0.0,0.0,0.0,0.0,0.0,0.0,0.0,0.0,0.0,0.0,0.0,0.0,0.0,0.0,0.0,0.0,0.0,0.0,0.0,0.0,0.0,0.0,0.0,0.0,0.0,0.0,0.0,0.0,0.0,0.0,0.0,0.0,0.0,0.0,0.0,0.0,0.0,0.0,0.0,0.0,0.0,0.0,0.0,0.0,0.0,0.0,0.0,0.0,0.0,0.0,0.0,0.0,0.0,0.0,0.0,0.0,0.0,0.0,0.0,0.0,0.0,0.0,0.0,0.0,0.0,0.0,0.0,0.0,0.0,0.0,0.0,0.0,0.0,0.0,0.0,0.0,0.0,0.0,0.0,0.0,0.0,0.0,0.0,0.0,0.0,-2.8949,-2.8996,-2.8996,0.0,0.0,0.0,0.0,0.0,0.0,0.0,0.0,0.0,0.0,0.0,0.0,0.0,0.0,0.0,0.0,0.0,0.0,0.0,0.0,0.0,0.0,0.0,0.0,0.0,0.0,0.0,0.0,0.0,0.0,0.0,0.0,0.0,0.0,0.0,0.0,0.0,0.0,0.0,0.0,0.0,0.0,0.0,0.0,0.0,0.0,0.0,0.0,0.0,0.0,0.0,0.0,0.0,0.0,0.0,0.0,0.0,0.0,0.0,0.0,0.0,0.0,0.0,0.0,0.0,0.0,0.0,0.0,0.0,0.0,0.0,0.0,0.0,0.0,0.0,0.0,0.0,0.0,0.0,0.0,0.0,0.0,0.0,0.0,0.0,0.0,0.0,0.0,0.0,0.0,0.0,0.0,0.0,0.0,0.0,0.0,0.0,0.0,0.0,0.0,0.0,0.0,0.0,0.0,0.0,0.0,0.0,0.0,0.0,0.0,-2.8818,-2.848,-2.8797,0.0,-2.8996,0.0,0.0,0.0,0.0,0.0,0.0,0.0,0.0,0.0,0.0,0.0,0.0,0.0,0.0,0.0,0.0,0.0,0.0,0.0,0.0,0.0,0.0,0.0,0.0,0.0,0.0,0.0,0.0,0.0,0.0,0.0,0.0,0.0,0.0,0.0,0.0,0.0,0.0,0.0,0.0,0.0,0.0,0.0,0.0,0.0,0.0,0.0,0.0,0.0,0.0,0.0,0.0,0.0,0.0,0.0,0.0,0.0,0.0,0.0,0.0,0.0,0.0,0.0,0.0,0.0,0.0,0.0,0.0,0.0,0.0,0.0,0.0,0.0,0.0,0.0,0.0,0.0,0.0,0.0,0.0,0.0,0.0,0.0,0.0,0.0,0.0,0.0,0.0,0.0,0.0,0.0,0.0,0.0,0.0,0.0,0.0,0.0,0.0,0.0,0.0,0.0,0.0,0.0,0.0,0.0,0.0,0.0,0.0,0.0,0.0,-2.8479,-2.8111,-2.8277,-2.8343,0.0,0.0,0.0,0.0,0.0,0.0,0.0,0.0,0.0,0.0,0.0,0.0,0.0,0.0,0.0,0.0,0.0,0.0,0.0,0.0,0.0,0.0,0.0,0.0,0.0,0.0,0.0,0.0,0.0,0.0,0.0,0.0,0.0,0.0,0.0,0.0,0.0,0.0,0.0,0.0,0.0,0.0,0.0,0.0,0.0,0.0,0.0,0.0,0.0,0.0,0.0,0.0,0.0,0.0,0.0,0.0,0.0,0.0,0.0,0.0,0.0,0.0,0.0,0.0,0.0,0.0,0.0,0.0,0.0,0.0,0.0,0.0,0.0,0.0,0.0,0.0,0.0,0.0,0.0,0.0,0.0,0.0,0.0,0.0,0.0,0.0,0.0,0.0,0.0,0.0,0.0,0.0,0.0,0.0,0.0,0.0,0.0,0.0,0.0,0.0,0.0,0.0,0.0,0.0,0.0,0.0,0.0,0.0,0.0,0.0,-2.8257,-2.8147,-2.7924,-2.7788,-2.7788,-2.7888,0.0,0.0,0.0,0.0,0.0,0.0,0.0,0.0,0.0,0.0,0.0,0.0,0.0,0.0,0.0,0.0,0.0,0.0,0.0,0.0,0.0,0.0,0.0,0.0,0.0,0.0,0.0,0.0,0.0,0.0,0.0,0.0,0.0,0.0,0.0,0.0,0.0,0.0,0.0,0.0,0.0,0.0,0.0,0.0,0.0,0.0,0.0,0.0,0.0,0.0,0.0,0.0,0.0,0.0,0.0,0.0,0.0,0.0,0.0,0.0,0.0,0.0,0.0,0.0,0.0,0.0,0.0,0.0,0.0,0.0,0.0,0.0,0.0,0.0,0.0,0.0,0.0,0.0,0.0,0.0,0.0,0.0,0.0,0.0,0.0,0.0,0.0,0.0,0.0,0.0,0.0,0.0,0.0,0.0,0.0,0.0,0.0,0.0,0.0,0.0,0.0,0.0,0.0,0.0,0.0,0.0,0.0,0.0,-2.7931,-2.7915,-2.7911,-2.7867,-2.7532,-2.7508,0.0,0.0,0.0,0.0,0.0,0.0,0.0,0.0,0.0,0.0,0.0,0.0,0.0,0.0,0.0,0.0,0.0,0.0,0.0,0.0,0.0,0.0,0.0,0.0,0.0,0.0,0.0,0.0,0.0,0.0,0.0,0.0,0.0,0.0,0.0,0.0,0.0,0.0,0.0,0.0,0.0,0.0,0.0,0.0,0.0,0.0,0.0,0.0,0.0,0.0,0.0,0.0,0.0,0.0,0.0,0.0,0.0,0.0,0.0,0.0,0.0,0.0,0.0,0.0,0.0,0.0,0.0,0.0,0.0,0.0,0.0,0.0,0.0,0.0,0.0,0.0,0.0,0.0,0.0,0.0,0.0,0.0,0.0,0.0,0.0,0.0,0.0,0.0,0.0,0.0,0.0,0.0,0.0,0.0,0.0,0.0,0.0,0.0,0.0,0.0,0.0,0.0,0.0,0.0,0.0,0.0,0.0,0.0,0.0,-2.753,-2.7258,-2.7112,-2.7123,-2.6988,-2.6979,0.0,0.0,0.0,0.0,0.0,0.0,0.0,0.0,0.0,0.0,0.0,0.0,0.0,0.0,0.0,0.0,0.0,0.0,0.0,0.0,0.0,0.0,0.0,0.0,0.0,0.0,0.0,0.0,0.0,0.0,0.0,0.0,0.0,0.0,0.0,0.0,0.0,0.0,0.0,0.0,0.0,0.0,0.0,0.0,0.0,0.0,0.0,0.0,0.0,0.0,0.0,0.0,0.0,0.0,0.0,0.0,0.0,0.0,0.0,0.0,0.0,0.0,0.0,0.0,0.0,0.0,0.0,0.0,0.0,0.0,0.0,0.0,0.0,0.0,0.0,0.0,0.0,0.0,0.0,0.0,0.0,0.0,0.0,0.0,0.0,0.0,0.0,0.0,0.0,0.0,0.0,0.0,0.0,0.0,0.0,0.0,0.0,0.0,0.0,0.0,0.0,0.0,0.0,0.0,0.0,0.0,0.0,0.0,0.0,-2.7115,0.0,-2.67,-2.67,-2.67,-2.67,0.0,0.0,0.0,0.0,0.0,0.0,0.0,0.0,0.0,0.0,0.0,0.0,0.0,0.0,0.0,0.0,0.0,0.0,0.0,0.0,0.0,0.0,0.0,0.0,0.0,0.0,0.0,0.0,0.0,0.0,0.0,0.0,0.0,0.0,0.0,0.0,0.0,0.0,0.0,0.0,0.0,0.0,0.0,0.0,0.0,0.0,0.0,0.0,0.0,0.0,0.0,0.0,0.0,0.0,0.0,0.0,0.0,0.0,0.0,0.0,0.0,0.0,0.0,0.0,0.0,0.0,0.0,0.0,0.0,0.0,0.0,0.0,0.0,0.0,0.0,0.0,0.0,0.0,0.0,0.0,0.0,0.0,0.0,0.0,0.0,0.0,0.0,0.0,0.0,0.0,0.0,0.0,0.0,0.0,0.0,0.0,0.0,0.0,0.0,0.0,0.0,0.0,0.0,0.0,0.0,0.0,0.0,0.0,-2.6716,-2.6716,-2.6716,-2.67,-2.67,-2.67,-2.67,0.0,0.0,0.0,0.0,0.0,0.0,0.0,0.0,0.0,0.0,0.0,0.0,0.0,0.0,0.0,0.0,0.0,0.0,0.0,0.0,0.0,0.0,0.0,0.0,0.0,0.0,0.0,0.0,0.0,0.0,0.0,0.0,0.0,0.0,0.0,0.0,0.0,0.0,0.0,0.0,0.0,0.0,0.0,0.0,0.0,0.0,0.0,0.0,0.0,0.0,0.0,0.0,0.0,0.0,0.0,0.0,0.0,0.0,0.0,0.0,0.0,0.0,0.0,0.0,0.0,0.0,0.0,0.0,0.0,0.0,0.0,0.0,0.0,0.0,0.0,0.0,0.0,0.0,0.0,0.0,0.0,0.0,0.0,0.0,0.0,0.0,0.0,0.0,0.0,0.0,0.0,0.0,0.0,0.0,0.0,0.0,0.0,0.0,0.0,0.0,0.0,0.0,0.0,0.0,0.0,0.0,0.0,0.0,0.0,-2.67,-2.67,-2.67,-2.67,-2.67,-2.67,0.0,0.0,0.0,0.0,0.0,0.0,0.0,0.0,0.0,0.0,0.0,0.0,0.0,0.0,0.0,0.0,0.0,0.0,0.0,0.0,0.0,0.0,0.0,0.0,0.0,0.0,0.0,0.0,0.0,0.0,0.0,0.0,0.0,0.0,0.0,0.0,0.0,0.0,0.0,0.0,0.0,0.0,0.0,0.0,0.0,0.0,0.0,0.0,0.0,0.0,0.0,0.0,0.0,0.0,0.0,0.0,0.0,0.0,0.0,0.0,0.0,0.0,0.0,0.0,0.0,0.0,0.0,0.0,0.0,0.0,0.0,0.0,0.0,0.0,0.0,0.0,0.0,0.0,0.0,0.0,0.0,0.0,0.0,0.0,0.0,0.0,0.0,0.0,0.0,0.0,0.0,0.0,0.0,0.0,0.0,0.0,0.0,0.0,0.0,0.0,0.0,0.0,0.0,0.0,0.0,0.0,0.0,0.0,0.0,-2.67,-2.67,-2.67,-2.67,-2.67,-2.67,-2.67,0.0,0.0,0.0,0.0,0.0,0.0,0.0,0.0,0.0,0.0,0.0,0.0,0.0,0.0,0.0,0.0,0.0,0.0,0.0,0.0,0.0,0.0,0.0,0.0,0.0,0.0,0.0,0.0,0.0,0.0,0.0,0.0,0.0,0.0,0.0,0.0,0.0,0.0,0.0,0.0,0.0,0.0,0.0,0.0,0.0,0.0,0.0,0.0,0.0,0.0,0.0,0.0,0.0,0.0,0.0,0.0,0.0,0.0,0.0,0.0,0.0,0.0,0.0,0.0,0.0,0.0,0.0,0.0,0.0,0.0,0.0,0.0,0.0,0.0,0.0,0.0,0.0,0.0,0.0,0.0,0.0,0.0,0.0,0.0,0.0,0.0,0.0,0.0,0.0,0.0,0.0,0.0,0.0,0.0,0.0,0.0,0.0,0.0,0.0,0.0,0.0,0.0,0.0,0.0,0.0,0.0,0.0,0.0,-2.67,-2.67,-2.67,-2.67,-2.67,-2.67,0.0,0.0,0.0,0.0,0.0,0.0,0.0,0.0,0.0,0.0,0.0,0.0,0.0,0.0,0.0,0.0,0.0,0.0,0.0,0.0,0.0,0.0,0.0,0.0,0.0,0.0,0.0,0.0,0.0,0.0,0.0,0.0,0.0,0.0,0.0,0.0,0.0,0.0,0.0,0.0,0.0,0.0,0.0,0.0,0.0,0.0,0.0,0.0,0.0,0.0,0.0,0.0,0.0,0.0,0.0,0.0,0.0,0.0,0.0,0.0,0.0,0.0,0.0,0.0,0.0,0.0,0.0,0.0,0.0,0.0,0.0,0.0,0.0,0.0,0.0,0.0,0.0,0.0,0.0,0.0,0.0,0.0,0.0,0.0,0.0,0.0,0.0,0.0,0.0,0.0,0.0,0.0,0.0,0.0,0.0,0.0,0.0,0.0,0.0,0.0,0.0,0.0,0.0,0.0,0.0,0.0,0.0,0.0,0.0,-2.67,-2.67,-2.67,-2.67,-2.67,-2.67,0.0,0.0,0.0,0.0,0.0,0.0,0.0,0.0,0.0,0.0,0.0,0.0,0.0,0.0,0.0,0.0,0.0,0.0,0.0,0.0,0.0,0.0,0.0,0.0,0.0,0.0,0.0,0.0,0.0,0.0,0.0,0.0,0.0,0.0,0.0,0.0,0.0,0.0,0.0,0.0,0.0,0.0,0.0,0.0,0.0,0.0,0.0,0.0,0.0,0.0,0.0,0.0,0.0,0.0,0.0,0.0,0.0,0.0,0.0,0.0,0.0,0.0,0.0,0.0,0.0,0.0,0.0,0.0,0.0,0.0,0.0,0.0,0.0,0.0,0.0,0.0,0.0,0.0,0.0,0.0,0.0,0.0,0.0,0.0,0.0,0.0,0.0,0.0,0.0,0.0,0.0,0.0,0.0,0.0,0.0,0.0,0.0,0.0,0.0,0.0,0.0,0.0,0.0,0.0,0.0,0.0,0.0,0.0,-2.67,-2.67,-2.67,-2.67,-2.67,-2.67,-2.67,0.0,0.0,0.0,0.0,0.0,0.0,0.0,0.0,0.0,0.0,0.0,0.0,0.0,0.0,0.0,0.0,0.0,0.0,0.0,0.0,0.0,0.0,0.0,0.0,0.0,0.0,0.0,0.0,0.0,0.0,0.0,0.0,0.0,0.0,0.0,0.0,0.0,0.0,0.0,0.0,0.0,0.0,0.0,0.0,0.0,0.0,0.0,0.0,0.0,0.0,0.0,0.0,0.0,0.0,0.0,0.0,0.0,0.0,0.0,0.0,0.0,0.0,0.0,0.0,0.0,0.0,0.0,0.0,0.0,0.0,0.0,0.0,0.0,0.0,0.0,0.0,0.0,0.0,0.0,0.0,0.0,0.0,0.0,0.0,0.0,0.0,0.0,0.0,0.0,0.0,0.0,0.0,0.0,0.0,0.0,0.0,0.0,0.0,0.0,0.0,0.0,0.0,0.0,0.0,0.0,0.0,0.0,0.0,-2.67,-2.67,-2.67,-2.67,-2.67,-2.67,-2.67,0.0,0.0,0.0,0.0,0.0,0.0,0.0,0.0,0.0,0.0,0.0,0.0,0.0,0.0,0.0,0.0,0.0,0.0,0.0,0.0,0.0,0.0,0.0,0.0,0.0,0.0,0.0,0.0,0.0,0.0,0.0,0.0,0.0,0.0,0.0,0.0,0.0,0.0,0.0,0.0,0.0,0.0,0.0,0.0,0.0,0.0,0.0,0.0,0.0,0.0,0.0,0.0,0.0,0.0,0.0,0.0,0.0,0.0,0.0,0.0,0.0,0.0,0.0,0.0,0.0,0.0,0.0,0.0,0.0,0.0,0.0,0.0,0.0,0.0,0.0,0.0,0.0,0.0,0.0,0.0,0.0,0.0,0.0,0.0,0.0,0.0,0.0,0.0,0.0,0.0,0.0,0.0,0.0,0.0,0.0,0.0,0.0,0.0,0.0,0.0,0.0,0.0,0.0,0.0,0.0,0.0,0.0,0.0,-2.67,-2.67,-2.67,-2.67,-2.67,-2.67,-2.67,0.0,0.0,0.0,0.0,0.0,0.0,0.0,0.0,0.0,0.0,0.0,0.0,0.0,0.0,0.0,0.0,0.0,0.0,0.0,0.0,0.0,0.0,0.0,0.0,0.0,0.0,0.0,0.0,0.0,0.0,0.0,0.0,0.0,0.0,0.0,0.0,0.0,0.0,0.0,0.0,0.0,0.0,0.0,0.0,0.0,0.0,0.0,0.0,-2.5789,0.0,0.0,0.0,0.0,0.0,0.0,0.0,0.0,0.0,0.0,0.0,0.0,0.0,0.0,0.0,0.0,0.0,0.0,0.0,0.0,0.0,0.0,0.0,0.0,0.0,0.0,0.0,0.0,0.0,0.0,0.0,0.0,0.0,0.0,0.0,0.0,0.0,0.0,0.0,0.0,0.0,0.0,0.0,0.0,0.0,0.0,0.0,0.0,0.0,0.0,0.0,0.0,0.0,0.0,0.0,0.0,0.0,0.0,0.0,-2.67,-2.67,-2.67,-2.67,-2.67,-2.67,-2.67,0.0,0.0,0.0,0.0,0.0,0.0,0.0,0.0,0.0,0.0,0.0,0.0,0.0,0.0,0.0,0.0,0.0,0.0,0.0,0.0,0.0,0.0,0.0,0.0,0.0,0.0,0.0,0.0,0.0,0.0,0.0,0.0,0.0,0.0,0.0,0.0,0.0,0.0,0.0,0.0,0.0,0.0,0.0,0.0,0.0,0.0,0.0,0.0,0.0,0.0,0.0,0.0,0.0,0.0,0.0,0.0,0.0,0.0,0.0,0.0,0.0,0.0,0.0,0.0,0.0,0.0,0.0,0.0,0.0,0.0,0.0,0.0,0.0,0.0,0.0,0.0,0.0,0.0,0.0,0.0,0.0,0.0,0.0,0.0,0.0,0.0,0.0,0.0,0.0,0.0,0.0,0.0,0.0,0.0,0.0,0.0,0.0,0.0,0.0,0.0,0.0,0.0,0.0,0.0,0.0,0.0,0.0,-2.67,-2.67,-2.67,-2.67,-2.67,-2.67,-2.67,-2.67,-2.67,0.0,0.0,0.0,0.0,0.0,0.0,0.0,0.0,0.0,0.0,0.0,0.0,0.0,0.0,0.0,0.0,0.0,0.0,0.0,0.0,0.0,0.0,0.0,0.0,0.0,0.0,0.0,0.0,0.0,0.0,0.0,0.0,0.0,0.0,0.0,0.0,0.0,0.0,-2.5934,-2.5476,0.0,0.0,0.0,0.0,0.0,0.0,0.0,0.0,-2.4697,0.0,0.0,0.0,0.0,0.0,0.0,0.0,0.0,0.0,0.0,0.0,0.0,0.0,0.0,0.0,0.0,0.0,0.0,0.0,0.0,0.0,0.0,0.0,0.0,0.0,0.0,0.0,0.0,0.0,0.0,0.0,0.0,0.0,0.0,0.0,0.0,0.0,0.0,0.0,0.0,0.0,0.0,0.0,0.0,0.0,0.0,0.0,0.0,0.0,0.0,0.0,0.0,0.0,0.0,0.0,0.0,-2.67,-2.67,-2.67,-2.67,-2.67,-2.67,-2.67,-2.67,-2.67,-2.67,0.0,0.0,0.0,0.0,0.0,0.0,0.0,0.0,0.0,0.0,0.0,0.0,0.0,0.0,0.0,0.0,0.0,0.0,0.0,0.0,0.0,0.0,0.0,0.0,0.0,0.0,0.0,0.0,0.0,0.0,0.0,0.0,0.0,0.0,0.0,0.0,0.0,0.0,0.0,-2.5267,-2.5059,0.0,0.0,0.0,0.0,0.0,0.0,0.0,0.0,-2.404,0.0,0.0,0.0,0.0,0.0,0.0,0.0,0.0,0.0,0.0,0.0,0.0,0.0,0.0,0.0,0.0,0.0,0.0,0.0,0.0,0.0,0.0,0.0,0.0,0.0,0.0,0.0,0.0,0.0,0.0,0.0,0.0,0.0,0.0,0.0,0.0,0.0,0.0,0.0,0.0,0.0,0.0,0.0,0.0,0.0,0.0,0.0,0.0,0.0,0.0,0.0,0.0,0.0,0.0,0.0,-2.67,-2.67,-2.67,-2.67,-2.67,-2.67,-2.67,-2.67,-2.67,0.0,0.0,0.0,0.0,0.0,0.0,0.0,0.0,0.0,0.0,0.0,0.0,0.0,0.0,0.0,0.0,0.0,0.0,0.0,0.0,0.0,0.0,0.0,0.0,0.0,0.0,0.0,0.0,0.0,0.0,0.0,0.0,0.0,0.0,0.0,0.0,0.0,0.0,0.0,0.0,-2.4716,-2.4369,-2.4405,0.0,0.0,0.0,0.0,0.0,0.0,-2.3956,-2.3773,0.0,0.0,0.0,0.0,0.0,0.0,0.0,0.0,0.0,0.0,0.0,0.0,0.0,0.0,0.0,0.0,0.0,0.0,0.0,0.0,0.0,0.0,0.0,0.0,0.0,0.0,0.0,0.0,0.0,0.0,0.0,0.0,0.0,0.0,0.0,0.0,0.0,0.0,0.0,0.0,0.0,0.0,0.0,0.0,0.0,0.0,0.0,0.0,0.0,0.0,0.0,0.0,0.0,0.0,0.0,-2.67,-2.67,-2.67,-2.67,-2.67,-2.67,-2.67,-2.67,-2.67,0.0,0.0,0.0,0.0,0.0,0.0,0.0,0.0,0.0,0.0,0.0,0.0,0.0,0.0,0.0,0.0,0.0,0.0,0.0,0.0,0.0,0.0,0.0,0.0,0.0,0.0,0.0,0.0,0.0,0.0,0.0,0.0,0.0,0.0,0.0,0.0,0.0,0.0,0.0,0.0,0.0,-2.3752,-2.4178,-2.3872,0.0,0.0,0.0,0.0,-2.4163,-2.3879,0.0,0.0,0.0,0.0,0.0,0.0,0.0,0.0,0.0,0.0,0.0,0.0,0.0,0.0,0.0,0.0,0.0,0.0,0.0,0.0,0.0,0.0,0.0,0.0,0.0,0.0,0.0,0.0,0.0,0.0,0.0,0.0,0.0,0.0,0.0,0.0,0.0,0.0,0.0,0.0,0.0,0.0,0.0,0.0,0.0,0.0,0.0,0.0,0.0,0.0,0.0,0.0,0.0,0.0,0.0,0.0,-2.67,-2.67,-2.67,-2.67,-2.67,-2.67,-2.67,-2.67,-2.67,0.0,0.0,0.0,0.0,0.0,0.0,0.0,0.0,0.0,0.0,0.0,0.0,0.0,0.0,0.0,0.0,0.0,0.0,0.0,0.0,0.0,0.0,0.0,0.0,0.0,0.0,0.0,0.0,0.0,0.0,0.0,0.0,0.0,0.0,0.0,0.0,0.0,0.0,0.0,0.0,0.0,-2.3616,-2.3681,-2.363,-2.3595,0.0,0.0,-2.3624,-2.3673,-2.3638,0.0,0.0,0.0,0.0,0.0,0.0,0.0,0.0,0.0,0.0,0.0,0.0,0.0,0.0,0.0,0.0,0.0,0.0,0.0,0.0,0.0,0.0,0.0,0.0,0.0,0.0,0.0,0.0,0.0,0.0,0.0,0.0,0.0,0.0,0.0,0.0,0.0,0.0,0.0,0.0,0.0,0.0,0.0,0.0,0.0,0.0,0.0,0.0,0.0,0.0,0.0,0.0,0.0,0.0,0.0,-2.67,-2.67,-2.67,-2.67,-2.67,-2.67,-2.67,-2.67,-2.67,-2.67,0.0,0.0,0.0,0.0,0.0,0.0,0.0,0.0,0.0,0.0,0.0,0.0,0.0,0.0,0.0,0.0,0.0,0.0,0.0,0.0,0.0,0.0,0.0,0.0,0.0,0.0,0.0,0.0,0.0,0.0,0.0,0.0,0.0,0.0,0.0,0.0,0.0,0.0,0.0,0.0,0.0,0.0,-2.3595,-2.3304,0.0,0.0,0.0,-2.3187,-2.3551,0.0,0.0,0.0,0.0,0.0,0.0,0.0,0.0,0.0,0.0,0.0,0.0,0.0,0.0,0.0,0.0,0.0,0.0,0.0,0.0,0.0,0.0,0.0,0.0,0.0,0.0,0.0,0.0,0.0,0.0,0.0,0.0,0.0,0.0,0.0,0.0,0.0,0.0,0.0,0.0,0.0,0.0,0.0,0.0,0.0,0.0,0.0,0.0,0.0,0.0,0.0,0.0,0.0,0.0,0.0,0.0,0.0,-2.67,-2.67,-2.67,-2.67,-2.67,-2.67,-2.67,-2.67,0.0,0.0,0.0,0.0,0.0,0.0,0.0,0.0,0.0,0.0,0.0,0.0,0.0,0.0,0.0,0.0,0.0,0.0,0.0,0.0,0.0,0.0,0.0,0.0,0.0,0.0,0.0,-2.67,0.0,0.0,0.0,0.0,0.0,0.0,0.0,0.0,0.0,0.0,0.0,0.0,0.0,0.0,-2.3595,-2.3595,-2.3209,-2.3083,0.0,0.0,-2.3083,-2.3537,-2.3595,-2.3595,0.0,0.0,0.0,0.0,0.0,0.0,0.0,0.0,0.0,0.0,0.0,0.0,0.0,0.0,0.0,0.0,0.0,0.0,0.0,0.0,0.0,0.0,0.0,0.0,0.0,0.0,0.0,0.0,0.0,0.0,0.0,0.0,0.0,0.0,0.0,0.0,0.0,0.0,0.0,0.0,0.0,0.0,0.0,0.0,0.0,0.0,0.0,0.0,0.0,0.0,0.0,0.0,0.0,0.0,-2.67,-2.67,-2.67,-2.67,-2.67,-2.67,-2.67,-2.67,-2.67,-2.67,0.0,0.0,0.0,0.0,0.0,0.0,0.0,0.0,0.0,0.0,0.0,0.0,0.0,0.0,0.0,0.0,0.0,0.0,0.0,0.0,0.0,0.0,0.0,0.0,0.0,0.0,0.0,0.0,0.0,0.0,0.0,0.0,0.0,0.0,0.0,0.0,0.0,0.0,0.0,0.0,0.0,-2.3595,-2.3595,-2.3559,-2.3559,0.0,-2.3581,-2.3551,-2.3595,-2.3595,-2.3595,-2.3595,0.0,0.0,0.0,0.0,0.0,0.0,0.0,0.0,0.0,0.0,0.0,0.0,0.0,0.0,0.0,0.0,0.0,0.0,0.0,0.0,0.0,0.0,0.0,0.0,0.0,0.0,0.0,0.0,0.0,0.0,0.0,0.0,0.0,0.0,0.0,0.0,0.0,0.0,0.0,0.0,0.0,0.0,0.0,0.0,0.0,0.0,0.0,0.0,0.0,0.0,0.0,0.0,0.0,-2.67,-2.67,-2.67,-2.67,-2.67,-2.67,-2.67,-2.67,-2.67,-2.67,0.0,0.0,0.0,0.0,0.0,0.0,0.0,0.0,0.0,0.0,0.0,0.0,0.0,0.0,0.0,0.0,0.0,0.0,0.0,0.0,0.0,0.0,0.0,0.0,0.0,0.0,0.0,0.0,-2.653,-2.6454,-2.5837,0.0,0.0,0.0,0.0,0.0,0.0,0.0,0.0,0.0,0.0,-2.3595,-2.3595,-2.3282,0.0,0.0,-2.3297,-2.3165,-2.3559,-2.3595,-2.3595,-2.3595,-2.3595,0.0,0.0,0.0,0.0,0.0,0.0,0.0,0.0,0.0,0.0,0.0,0.0,0.0,0.0,0.0,0.0,0.0,0.0,0.0,0.0,0.0,0.0,0.0,0.0,0.0,0.0,0.0,0.0,0.0,0.0,0.0,0.0,0.0,0.0,0.0,0.0,0.0,0.0,0.0,0.0,0.0,0.0,0.0,0.0,0.0,0.0,0.0,0.0,0.0,0.0,0.0,0.0,-2.67,-2.67,-2.67,-2.67,-2.67,-2.67,-2.67,-2.67,-2.67,-2.67,0.0,0.0,0.0,0.0,0.0,0.0,0.0,0.0,0.0,0.0,0.0,0.0,0.0,0.0,0.0,0.0,0.0,0.0,0.0,0.0,0.0,0.0,0.0,0.0,0.0,0.0,0.0,0.0,-2.6052,-2.5918,-2.5059,0.0,0.0,0.0,0.0,0.0,0.0,0.0,0.0,0.0,0.0,-2.3595,-2.3595,-2.3246,-2.3128,-2.353,-2.3238,-2.3128,-2.353,-2.3595,-2.3595,-2.3595,0.0,0.0,0.0,0.0,0.0,0.0,0.0,0.0,0.0,0.0,0.0,0.0,0.0,0.0,0.0,0.0,0.0,0.0,0.0,0.0,0.0,0.0,0.0,0.0,0.0,0.0,0.0,-2.6708,0.0,0.0,-2.67,0.0,0.0,0.0,0.0,0.0,0.0,0.0,0.0,0.0,0.0,0.0,0.0,0.0,0.0,0.0,0.0,0.0,0.0,0.0,0.0,0.0,0.0,-2.67,-2.67,-2.67,-2.67,-2.67,-2.67,-2.67,-2.67,-2.67,-2.67,-2.6716,0.0,0.0,0.0,0.0,0.0,0.0,0.0,0.0,0.0,0.0,0.0,0.0,0.0,0.0,0.0,0.0,0.0,0.0,0.0,0.0,0.0,0.0,0.0,0.0,0.0,0.0,-2.5278,-2.5205,-2.502,0.0,0.0,0.0,0.0,0.0,0.0,0.0,0.0,0.0,-2.3595,-2.3595,-2.3595,-2.3595,-2.3581,-2.3551,-2.3595,-2.3588,-2.3581,-2.3595,-2.3595,-2.3595,0.0,0.0,0.0,0.0,0.0,0.0,0.0,0.0,0.0,0.0,0.0,0.0,0.0,0.0,0.0,0.0,0.0,0.0,0.0,0.0,0.0,0.0,0.0,0.0,0.0,0.0,0.0,-2.7332,-2.7083,0.0,0.0,0.0,0.0,0.0,0.0,0.0,0.0,0.0,0.0,0.0,-2.6244,-2.6244,0.0,0.0,0.0,0.0,0.0,0.0,0.0,0.0,0.0,0.0,0.0,0.0,-2.67,-2.67,-2.67,-2.67,-2.67,-2.67,-2.67,-2.67,-2.67,-2.6833,-2.7108,0.0,0.0,0.0,0.0,0.0,0.0,0.0,0.0,0.0,0.0,0.0,0.0,0.0,0.0,0.0,0.0,0.0,0.0,0.0,0.0,0.0,0.0,0.0,0.0,0.0,-2.5392,0.0,0.0,0.0,0.0,0.0,0.0,0.0,0.0,0.0,0.0,0.0,-2.3595,-2.3595,-2.3595,-2.3595,-2.3595,-2.3595,-2.3595,0.0,0.0,0.0,0.0,0.0,0.0,0.0,0.0,0.0,0.0,0.0,0.0,0.0,0.0,-2.3595,-2.3595,-2.3595,-2.3595,-2.3595,0.0,0.0,0.0,0.0,0.0,0.0,0.0,0.0,0.0,0.0,0.0,0.0,0.0,0.0,-2.7625,-2.7478,-2.7092,0.0,0.0,0.0,0.0,0.0,0.0,0.0,0.0,-2.6556,-2.653,-2.6236,-2.6244,-2.6401,0.0,-2.6227,-2.6244,0.0,0.0,0.0,0.0,0.0,0.0,0.0,0.0,-2.67,-2.67,-2.67,-2.67,-2.67,-2.67,-2.67,-2.67,-2.67,-2.689,-2.7279,-2.7319,-2.7493,0.0,0.0,0.0,0.0,0.0,0.0,0.0,0.0,0.0,0.0,0.0,0.0,0.0,0.0,0.0,0.0,0.0,0.0,0.0,0.0,0.0,0.0,0.0,-2.4922,0.0,0.0,0.0,0.0,0.0,0.0,0.0,0.0,0.0,-2.3595,-2.3595,-2.3595,-2.3595,-2.3595,-2.3595,-2.3595,0.0,0.0,0.0,0.0,0.0,0.0,0.0,-2.3595,-2.3595,-2.3595,-2.3595,-2.3595,-2.3595,-2.3595,-2.3595,0.0,0.0,-2.3595,-2.3595,-2.3595,-2.3595,-2.3595,-2.3595,-2.3595,-2.3595,-2.3595,0.0,0.0,0.0,0.0,0.0,0.0,0.0,0.0,-2.8372,-2.8183,0.0,-2.7478,0.0,0.0,0.0,0.0,-2.67,-2.67,0.0,0.0,-2.67,-2.67,-2.67,-2.67,-2.67,-2.6683,-2.6236,-2.6279,-2.6691,-2.6708,0.0,0.0,0.0,0.0,0.0,0.0,-2.67,-2.67,-2.67,-2.67,-2.67,-2.67,-2.67,-2.67,-2.67,-2.6898,-2.7288,-2.7334,-2.75,-2.7865,-2.7553,0.0,0.0,0.0,0.0,0.0,0.0,0.0,0.0,0.0,0.0,0.0,0.0,0.0,0.0,0.0,0.0,0.0,0.0,0.0,0.0,-2.4716,0.0,0.0,0.0,0.0,0.0,0.0,0.0,0.0,0.0,0.0,-2.3595,-2.3595,-2.3573,-2.3551,0.0,0.0,0.0,0.0,-2.3595,-2.3595,-2.3595,-2.3595,-2.3595,-2.3595,-2.3595,-2.3595,0.0,0.0,-2.3595,-2.3595,-2.3595,-2.3595,-2.3595,-2.3595,-2.3595,-2.3595,-2.3595,-2.3595,-2.3595,-2.3595,-2.3595,-2.3595,-2.3595,-2.7955,0.0,0.0,0.0,0.0,-2.8001,-2.8042,-2.8047,-2.8034,-2.7987,-2.7888,-2.7774,0.0,0.0,0.0,0.0,0.0,0.0,-2.67,-2.67,-2.67,-2.67,-2.67,-2.67,-2.67,-2.67,-2.6564,-2.6569,-2.671,-2.6707,-2.67,-2.67,0.0,0.0,0.0,0.0,-2.67,-2.67,-2.67,-2.67,-2.67,-2.67,-2.67,-2.67,-2.67,-2.689,-2.7288,-2.7583,-2.7774,-2.7888,-2.8016,0.0,0.0,0.0,0.0,0.0,0.0,0.0,0.0,0.0,0.0,0.0,0.0,0.0,0.0,0.0,0.0,0.0,0.0,0.0,-2.5267,-2.5059,-2.4796,0.0,0.0,0.0,0.0,0.0,0.0,0.0,0.0,0.0,-2.3595,-2.3595,-2.3428,0.0,0.0,-2.3435,-2.3039,-2.3326,-2.3595,-2.3595,-2.3595,0.0,-2.3595,-2.3595,-2.3595,-2.3595,-2.3595,-2.3595,-2.3595,-2.3595,-2.3595,-2.3595,-2.3595,-2.3595,-2.3595,-2.3595,-2.3595,-2.3595,-2.3595,-2.3595,-2.3595,-2.3595,-2.3595,-2.8502,-2.8326,-2.8015,-2.7973,-2.8097,-2.8097,-2.8192,-2.8343,-2.8339,-2.8339,-2.8317,-2.8188,-2.8088,-2.8075,-2.7536,0.0,0.0,0.0,-2.67,-2.67,-2.67,-2.67,-2.67,-2.67,-2.67,-2.67,-2.6521,-2.6518,-2.6696,-2.6509,-2.653,-2.67,0.0,0.0,-2.67,-2.67,-2.67,-2.67,-2.67,-2.67,-2.67,-2.67,-2.67,-2.67,-2.67,-2.6971,-2.7523,-2.7783,-2.8037,-2.8317,-2.8255,-2.817,0.0,0.0,0.0,0.0,0.0,0.0,0.0,0.0,0.0,0.0,0.0,-2.67,-2.67,0.0,0.0,0.0,-2.5995,-2.5943,-2.5801,-2.5441,0.0,0.0,0.0,0.0,0.0,0.0,0.0,-2.3595,-2.3595,-2.3595,-2.3595,-2.3595,-2.3472,-2.3098,-2.3377,-2.3457,-2.3098,0.0,-2.3595,-2.3595,-2.3595,-2.3595,-2.3595,-2.3595,-2.3595,-2.3595,-2.3595,-2.3595,-2.3595,-2.3595,-2.3595,-2.3595,-2.3595,-2.3595,-2.3595,-2.3595,-2.3595,-2.3595,-2.3773,-2.385,-2.3638,-2.3595,-2.3595,-2.8996,-2.8929,-2.8268,-2.8179,-2.8446,-2.8455,-2.8648,-2.8996,-2.8996,-2.8996,-2.8973,-2.8611,-2.8429,-2.8311,-2.7616,0.0,-2.67,-2.67,-2.67,-2.67,-2.67,-2.67,-2.67,-2.67,-2.67,-2.67,-2.6254,-2.6279,-2.6657,-2.6254,-2.6279,-2.6683,-2.67,-2.67,-2.67,-2.67,-2.67,-2.67,-2.67,-2.67,-2.67,-2.67,-2.6708,-2.6758,-2.6758,-2.7115,-2.7846,-2.794,-2.8255,-2.8884,-2.8343,-2.8116,-2.8385,0.0,0.0,0.0,0.0,0.0,0.0,0.0,0.0,0.0,0.0,0.0,0.0,0.0,0.0,0.0,-2.6031,0.0,-2.6607,-2.5728,0.0,0.0,0.0,-2.3595,-2.3595,-2.3595,-2.3595,-2.3595,0.0,0.0,-2.3595,-2.3595,-2.3595,-2.3595,-2.3595,-2.3588,-2.353,-2.3551,-2.3595,-2.3595,-2.3595,-2.3595,-2.3595,-2.3595,-2.3595,-2.3595,-2.3595,-2.3595,-2.3595,-2.3595,-2.3595,-2.3595,-2.3595,-2.3595,-2.3595,-2.3638,-2.3667,-2.3595,-2.4012,-2.4225,-2.3815,-2.3752,-2.3808,-2.8996,-2.8994,-2.8813,-2.8782,-2.886,-2.886,-2.8917,-2.8996,-2.8996,-2.8996,-2.8984,-2.8887,-2.8545,-2.7969,-2.7515,-2.7083,-2.67,-2.67,-2.67,-2.67,-2.67,-2.67,-2.67,-2.67,-2.67,-2.6691,-2.6581,-2.6598,-2.6691,-2.6598,-2.6581,-2.6691,-2.67,-2.67,-2.67,-2.67,-2.67,-2.67,-2.67,-2.67,-2.67,-2.67,-2.6841,-2.7129,-2.7171,-2.7387,-2.7874,-2.8165,-2.8377,-2.854,-2.8658,-2.8779,-2.8848,-2.8084,0.0,0.0,0.0,0.0,0.0,0.0,0.0,0.0,0.0,-2.67,-2.67,0.0,-2.6539,0.0,-2.6201,-2.6049,-2.6139,-2.5221,0.0,0.0,-2.3991,-2.3595,-2.3595,-2.3595,-2.3595,-2.3595,-2.3595,-2.3595,-2.3595,-2.3595,-2.3595,-2.3595,-2.3595,-2.3443,-2.3002,-2.3326,-2.3595,-2.3595,-2.3595,-2.3595,-2.3595,-2.3595,-2.3595,-2.3595,-2.3595,-2.3595,-2.3595,-2.3595,-2.3595,-2.3595,-2.3595,-2.3595,-2.3595,-2.3921,-2.4012,-2.3738,-2.4032,-2.4361,-2.4225,-2.4511,-2.4796,-2.8996,-2.8996,-2.8996,-2.8996,-2.8996,-2.8996,-2.8996,-2.8996,-2.8996,-2.8896,-2.8734,-2.858,-2.8188,-2.761,-2.7402,-2.7074,-2.6716,-2.67,-2.67,-2.67,-2.67,-2.67,-2.67,-2.67,-2.67,-2.67,-2.67,-2.67,-2.67,-2.67,-2.67,-2.67,-2.67,-2.67,-2.67,-2.67,-2.67,-2.67,-2.67,-2.67,-2.67,-2.67,-2.6898,-2.7288,-2.7319,-2.7551,-2.8093,-2.8303,-2.8416,-2.8416,-2.8464,-2.858,-2.8703,-2.7862,-2.7515,0.0,0.0,0.0,0.0,0.0,0.0,0.0,0.0,0.0,0.0,0.0,-2.6598,-2.641,-2.5943,-2.566,-2.5644,-2.4894,-2.4425,-2.4397,-2.3914,-2.3595,-2.3595,-2.3595,-2.3595,-2.3595,-2.3595,-2.3595,-2.3595,-2.3595,-2.3595,-2.3595,-2.3595,-2.3486,-2.3201,-2.3399,-2.3595,-2.3595,-2.3595,-2.3595,-2.3595,-2.3595,-2.3595,-2.3595,-2.3595,-2.3595,-2.3595,-2.3595,-2.3595,-2.3595,-2.3595,-2.3595,-2.3595,-2.3815,-2.4006,-2.4082,-2.4389,-2.4624,-2.4471,-2.4617,-2.4883,-2.8996,-2.8996,-2.8996,-2.8996,-2.8996,-2.8996,-2.8996,-2.8996,-2.894,-2.8703,-2.8298,-2.7973,-2.7619,-2.7295,-2.7232,-2.7035,-2.67,-2.67,-2.67,-2.67,-2.67,-2.67,-2.67,-2.67,-2.67,-2.67,-2.67,-2.67,-2.67,-2.67,-2.67,-2.67,-2.67,-2.67,-2.67,-2.67,-2.67,-2.67,-2.67,-2.6741,-2.6783,-2.6733,-2.6947,-2.7409,-2.7402,-2.771,-2.8433,-2.8471,-2.8462,-2.848,-2.8215,-2.8152,-2.8368,-2.7422,-2.7155,0.0,-2.7115,0.0,0.0,0.0,0.0,0.0,0.0,0.0,0.0,-2.67,-2.6513,-2.6049,-2.5521,-2.5182,-2.5105,-2.4612,-2.4279,-2.4287,-2.3935,-2.3681,-2.3624,-2.3652,-2.3688,-2.3595,-2.3595,-2.3595,-2.3595,-2.3595,-2.3595,-2.3595,-2.3595,-2.3573,-2.3581,-2.3573,-2.3595,-2.3595,-2.3595,-2.3595,-2.3595,-2.3595,-2.3595,-2.3595,-2.3595,-2.3595,-2.3595,-2.3595,-2.3595,-2.3595,-2.3595,-2.3595,-2.3595,-2.3595,-2.3787,-2.4253,-2.4704,-2.495,-2.4744,-2.4716,-2.4792,-2.8996,-2.8996,-2.8996,-2.8996,-2.8996,-2.8996,-2.8996,-2.8973,-2.8658,-2.8325,-2.7973,-2.7583,-2.7363,-2.7279,-2.6947,-2.6766,-2.67,-2.67,-2.67,-2.67,-2.67,-2.67,-2.67,-2.67,-2.67,-2.67,-2.67,-2.67,-2.67,-2.67,-2.67,-2.67,-2.67,-2.67,-2.67,0.0,0.0,0.0,-2.67,-2.6872,-2.7167,-2.6864,-2.7168,-2.8152,-2.7936,0.0,-2.8848,-2.8884,-2.8896,-2.8884,-2.8837,0.0,0.0,0.0,0.0,0.0,0.0,0.0,0.0,0.0,0.0,0.0,-2.67,-2.67,-2.67,-2.67,-2.6496,-2.6033,-2.5513,-2.5028,-2.4592,-2.4074,-2.3752,-2.3759,-2.4053,-2.4095,-2.3673,-2.3977,-2.4088,-2.3638,-2.3595,-2.3595,-2.3616,-2.3595,-2.3595,-2.3616,-2.3595,-2.3595,-2.3609,-2.3616,-2.3595,-2.3595,-2.3595,-2.3595,-2.3595,-2.3595,-2.3595,-2.3595,-2.3595,-2.3595,-2.3595,-2.3595,-2.3595,-2.3595,-2.3595,-2.3595,-2.3595,-2.3595,-2.378,-2.4279,-2.4504,-2.4792,-2.554,-2.5697,-2.5844,-2.8996,-2.8996,-2.8996,-2.8996,0.0,-2.8996,-2.8996,-2.8982,-2.8583,-2.8107,-2.7583,-2.7194,-2.702,-2.6971,-2.6783,-2.67,-2.67,-2.67,-2.67,-2.67,-2.67,-2.67,-2.67,-2.67,-2.67,-2.67,-2.67,-2.67,-2.67,-2.67,-2.67,-2.67,-2.67,-2.67,-2.67,-2.67,-2.67,-2.67,-2.67,-2.6799,-2.6974,-2.6815,-2.7161,-2.8093,-2.7978,0.0,0.0,0.0,0.0,0.0,0.0,0.0,0.0,-2.7619,0.0,-2.7303,-2.6923,-2.67,-2.67,-2.67,-2.67,-2.67,-2.67,-2.67,-2.67,-2.6487,-2.6262,-2.6005,-2.527,-2.4804,-2.4784,-2.4323,-2.4116,-2.4369,-2.4617,-2.4592,-2.4137,-2.4233,-2.4295,-2.4032,-2.3774,-2.3681,-2.3948,-2.3738,-2.3745,-2.3935,-2.3759,-2.3702,-2.3893,-2.3752,-2.3595,-2.3595,-2.3595,-2.3595,-2.3595,-2.3595,-2.3595,-2.3595,-2.3595,-2.3595,-2.3595,-2.3595,-2.3595,-2.3595,-2.3595,-2.3595,-2.3595,-2.3595,-2.385,-2.4564,-2.4804,-2.5128,-2.6086,-2.6165,-2.6059,-2.8996,-2.8996,-2.8996,-2.8996,-2.8996,-2.8996,-2.8917,-2.8782,-2.8442,0.0,0.0,-2.6841,-2.67,-2.67,-2.67,-2.67,-2.67,-2.67,-2.67,-2.67,-2.67,-2.67,-2.67,-2.67,-2.67,-2.67,-2.67,-2.67,-2.67,-2.67,-2.67,-2.67,-2.67,-2.67,-2.67,-2.67,-2.67,-2.67,-2.67,-2.6741,-2.68,-2.6741,-2.7098,-2.7973,-2.7917,-2.8251,-2.8973,-2.8996,-2.8806,-2.8402,-2.8152,-2.7917,-2.7774,-2.7154,-2.6923,-2.7147,-2.6898,-2.67,-2.67,-2.67,-2.67,-2.67,-2.67,-2.67,-2.67,-2.6349,-2.6077,-2.6013,-2.5194,-2.4835,-2.5147,-2.4796,-2.4732,-2.5163,-2.527,-2.5144,-2.4652,-2.4644,-2.4692,-2.4524,-2.4199,-2.4046,-2.4471,-2.4184,-2.3983,-2.4253,-2.4032,-2.3823,-2.4124,-2.385,-2.3595,-2.3595,-2.3595,-2.3595,-2.3595,-2.3595,-2.3595,-2.3595,-2.3595,-2.3595,-2.3595,-2.3681,-2.3738,-2.3773,-2.3787,-2.3906,-2.39,-2.3948,-2.4204,-2.5163,-2.5343,-2.5588,-2.6324,-2.6341,-2.6182,-2.8996,-2.8996,-2.8996,-2.8996,-2.8996,-2.8996,-2.8639,-2.8065,-2.7996,-2.753,-2.6783,-2.6716,-2.67,-2.67,-2.67,-2.67,-2.67,-2.67,-2.67,-2.67,-2.67,-2.67,-2.67,-2.67,-2.67,-2.67,-2.67,-2.67,-2.67,-2.67,-2.67,-2.67,-2.67,-2.67,-2.67,-2.67,-2.67,-2.67,-2.67,-2.6857,-2.721,-2.689,-2.7213,-2.8255,-2.8056,-2.8242,-2.8952,-2.8996,-2.8809,-2.842,-2.8359,-2.8043,-2.7424,-2.7264,-2.7092,-2.6816,-2.6733,-2.67,-2.67,-2.67,-2.67,-2.67,-2.67,-2.67,-2.67,-2.6641,-2.6436,-2.6033,-2.5842,-2.5615,-2.527,-2.5136,-2.5136,-2.5259,-2.5625,-2.567,-2.5155,-2.5449,-2.5551,-2.5136,-2.502,-2.4961,-2.5039,-2.4989,-2.4744,-2.4491,-2.4315,-2.4142,-2.3815,-2.3659,-2.3595,-2.3595,-2.3595,-2.3595,-2.3595,-2.3595,-2.3595,-2.3595,-2.3609,-2.3659,-2.3652,-2.4019,-2.4266,-2.4279,-2.4592,-2.4871,-2.4894,-2.4961,-2.5155,-2.5715,-2.5807,-2.5951,-2.6191,-2.6358,-2.6564,-2.8996,-2.8996,-2.8996,-2.8875,-2.8658,-2.8482,-2.8097,-2.7574,-2.7568,-2.7257,-2.6733,-2.67,-2.67,-2.67,-2.67,-2.67,-2.67,-2.67,-2.67,-2.67,-2.67,-2.67,-2.67,-2.67,-2.67,-2.67,-2.67,-2.67,-2.67,-2.67,-2.67,-2.67,-2.67,-2.67,-2.67,-2.67,-2.67,-2.67,-2.67,-2.6783,-2.6963,-2.7011,-2.7385,-2.8116,-2.8143,-2.8434,-2.8973,-2.8785,-2.8586,-2.842,-2.8007,-2.7646,-2.7326,-2.7108,-2.6881,-2.6716,-2.67,-2.67,-2.67,-2.67,-2.67,-2.67,-2.67,-2.67,-2.67,-2.67,-2.6607,-2.6392,-2.6156,-2.6015,-2.599,-2.5791,-2.5717,-2.5982,-2.6254,-2.6165,-2.5779,-2.5834,-2.588,-2.566,-2.5381,-2.5316,-2.5615,-2.5373,-2.5136,-2.4835,-2.464,-2.4204,-2.3716,-2.3616,-2.3595,-2.3595,-2.3595,-2.3595,-2.3595,-2.3595,-2.3595,-2.3595,-2.3858,-2.4006,-2.4067,-2.4463,-2.4784,-2.4843,-2.5051,-2.5182,-2.5229,-2.521,-2.5438,-2.586,-2.5995,-2.6067,-2.6306,-2.6573,-2.6683,-2.8949,-2.8863,-2.8881,-2.8633,-2.8255,-2.7908,-2.7566,-2.7295,-2.721,-2.6995,-2.6733,-2.67,-2.67,-2.67,-2.67,-2.67,-2.67,-2.67,-2.67,-2.67,-2.67,-2.67,-2.67,-2.67,-2.67,-2.67,-2.67,-2.67,-2.67,-2.67,-2.67,-2.67,-2.67,-2.67,-2.67,-2.67,-2.67,-2.67,-2.67,-2.6733,-2.6841,-2.7147,-2.7538,-2.7992,-2.8255,-2.854,-2.8818,-2.8574,-2.8333,-2.8143,-2.7689,-2.7394,-2.7303,-2.7083,-2.6979,-2.6963,-2.689,-2.6783,-2.6708,-2.67,-2.67,-2.67,-2.67,-2.67,-2.67,-2.67,-2.67,-2.6666,-2.6367,-2.6314,-2.6547,-2.6367,-2.6306,-2.6666,-2.67,-2.653,-2.6227,-2.6164,-2.6174,-2.6112,-2.5772,-2.5717,-2.5979,-2.5799,-2.5534,-2.5354,-2.4922,-2.441,-2.4032,-2.3941,-2.3948,-2.3927,-2.3864,-2.3893,-2.3914,-2.3991,-2.4004,-2.3948,-2.4307,-2.4532,-2.4672,-2.502,-2.5327,-2.54,-2.5505,-2.5617,-2.558,-2.558,-2.5754,-2.613,-2.6227,-2.6305,-2.6573,-2.6683,-2.67,-2.8782,-2.8471,-2.8476,-2.8264,-2.7917,-2.7515,-2.7317,-2.7257,-2.6923,-2.6733,-2.67,-2.67,-2.67,-2.67,-2.67,-2.67,-2.67,-2.67,-2.67,-2.67,-2.67,-2.67,-2.67,-2.67,-2.67,-2.67,-2.67,-2.67,-2.67,-2.67,-2.67,-2.67,-2.67,-2.67,-2.67,-2.67,-2.67,-2.67,-2.67,-2.6882,-2.7199,-2.727,-2.7631,-2.8342,-2.8372,-2.842,-2.8476,-2.8411,-2.8098,-2.75,-2.7701,-2.7672,-2.7396,-2.7589,-2.7774,-2.7759,-2.7424,-2.7083,-2.6758,-2.67,-2.67,-2.67,-2.67,-2.67,-2.67,-2.67,-2.67,-2.6674,-2.6649,-2.6641,-2.67,-2.6641,-2.6624,-2.6683,-2.67,-2.6683,-2.6624,-2.6649,-2.6632,-2.6649,-2.6487,-2.659,-2.6547,-2.6453,-2.6306,-2.5888,-2.5362,-2.5008,-2.491,-2.4883,-2.4922,-2.4894,-2.4664,-2.4572,-2.4851,-2.5047,-2.4875,-2.4926,-2.5039,-2.5067,-2.5152,-2.5476,-2.5916,-2.5934,-2.6218,-2.6393,-2.6462,-2.6564,-2.6513,-2.6479,-2.6556,-2.6632,-2.67,-2.67,-2.67,-2.8255,-2.8102,-2.8093,-2.7894,-2.7523,-2.7115,-2.6955,-2.6923,-2.6775,-2.67,-2.67,-2.67,-2.67,-2.67,-2.67,-2.67,-2.67,-2.67,-2.67,-2.67,-2.67,-2.67,-2.67,-2.67,-2.67,-2.67,-2.67,-2.67,-2.67,-2.67,-2.67,-2.67,-2.67,-2.67,-2.67,-2.67,-2.67,-2.67,-2.67,-2.689,-2.7288,-2.753,-2.7678,-2.7782,-2.8157,-2.8294,-2.8093,-2.7876,-2.761,-2.7341,-2.7454,-2.747,-2.731,-2.7687,-2.7888,-2.7874,-2.7532,-2.7241,-2.7058,-2.6841,-2.67,-2.67,-2.67,-2.67,-2.67,-2.67,-2.67,-2.67,-2.67,-2.67,-2.67,-2.67,-2.67,-2.67,-2.67,-2.67,-2.67,-2.67,-2.67,-2.67,-2.67,-2.67,-2.6666,-2.6462,-2.6218,-2.5969,-2.5559,-2.5286,-2.5221,-2.521,-2.5343,-2.5569,-2.5476,-2.5278,-2.5267,-2.521,-2.5078,-2.4883,-2.5,-2.5194,-2.5286,-2.566,-2.6059,-2.634,-2.6556,-2.67,-2.6649,-2.67,-2.67,-2.67,-2.67,-2.67,-2.67,-2.67,-2.67,-2.7831,-2.773,-2.7636,-2.7394,-2.7115,-2.6824,-2.67,-2.67,-2.67,-2.67,-2.67,-2.67,-2.67,-2.67,-2.67,-2.67,-2.67,-2.67,-2.67,-2.67,-2.67,-2.67,-2.67,-2.67,-2.67,-2.67,-2.67,-2.67,-2.67,-2.67,-2.67,-2.67,-2.67,-2.67,-2.67,-2.67,-2.6758,-2.6857,-2.6882,-2.7051,-2.7463,-2.7837,-2.7894,-2.7675,-2.8103,-2.8281,-2.8056,-2.7756,-2.7551,-2.7487,-2.756,-2.7601,-2.7625,-2.7969,-2.812,-2.7911,-2.7619,-2.7356,-2.7154,-2.6866,-2.67,-2.67,-2.67,-2.67,-2.67,-2.67,-2.67,-2.67,-2.67,-2.67,-2.67,-2.67,-2.67,-2.67,-2.67,-2.67,-2.67,-2.67,-2.67,-2.67,-2.67,-2.67,-2.6666,-2.6444,-2.6236,-2.6191,-2.5898,-2.5617,-2.5609,-2.5662,-2.5799,-2.6112,-2.6077,-2.5834,-2.5503,-2.5465,-2.5182,-2.4883,-2.502,-2.5202,-2.5248,-2.5678,-2.6013,-2.6227,-2.6521,-2.67,-2.67,-2.67,-2.67,-2.67,-2.67,-2.67,-2.67,-2.67,-2.6758,-2.7681,-2.7303,-2.6914,-2.6783,-2.6725,-2.6708,-2.67,-2.67,-2.67,-2.67,-2.67,-2.67,-2.67,-2.67,-2.67,-2.67,-2.67,-2.67,-2.67,-2.67,-2.67,-2.67,-2.67,-2.67,-2.67,-2.67,-2.67,-2.67,-2.67,-2.67,-2.67,-2.67,-2.67,-2.67,-2.67,-2.6725,-2.6906,-2.7185,-2.7248,-2.7439,-2.7831,-2.8183,-2.832,-2.8298,-2.8394,-2.8381,-2.8324,-2.8355,-2.8175,-2.7874,-2.8143,-2.832,-2.8368,-2.8691,-2.8589,-2.7996,-2.7869,-2.7523,-2.689,-2.6733,-2.67,-2.67,-2.67,-2.67,-2.67,-2.67,-2.67,-2.67,-2.67,-2.67,-2.67,-2.67,-2.67,-2.67,-2.67,-2.67,-2.67,-2.67,-2.67,-2.67,-2.67,-2.67,-2.67,-2.67,-2.6624,-2.6598,-2.6598,-2.6513,-2.6401,-2.6487,-2.6445,-2.6367,-2.6192,-2.5951,-2.5924,-2.5707,-2.554,-2.5182,-2.4902,-2.5152,-2.5373,-2.5588,-2.5844,-2.6138,-2.647,-2.6649,-2.6683,-2.67,-2.67,-2.67,-2.67,-2.67,-2.67,-2.67,-2.6758,-2.706,-2.6906,-2.675,-2.67,-2.67,-2.67,-2.67,-2.67,-2.67,-2.67,-2.67,-2.67,-2.67,-2.67,-2.67,-2.67,-2.67,-2.67,-2.67,-2.67,-2.67,-2.67,-2.67,-2.67,-2.67,-2.67,-2.67,-2.67,-2.67,-2.67,-2.67,-2.67,-2.67,-2.67,-2.6741,-2.6963,-2.7171,-2.7319,-2.7538,-2.7768,-2.7903,-2.8006,-2.817,-2.8394,-2.8416,-2.8294,-2.8088,-2.8066,-2.802,-2.7888,-2.8224,-2.8416,-2.842,-2.854,-2.8412,-2.7954,-2.7657,-2.7387,-2.7099,-2.6832,-2.67,-2.67,-2.67,-2.67,-2.67,-2.67,-2.67,-2.67,-2.67,-2.67,-2.67,-2.67,-2.67,-2.67,-2.67,-2.67,-2.67,-2.67,-2.67,-2.67,-2.67,-2.67,-2.67,-2.67,-2.67,-2.6691,-2.6444,-2.6297,-2.6209,-2.5997,-2.5801,-2.5738,-2.5606,-2.5381,-2.4981,-2.5297,-2.5316,-2.4922,-2.4664,-2.4692,-2.4831,-2.527,-2.5588,-2.6041,-2.6393,-2.6649,-2.67,-2.67,-2.67,-2.67,-2.67,-2.67,-2.67,-2.67,-2.6775,-2.67,-2.67,-2.67,-2.67,-2.67,-2.67,-2.67,-2.67,-2.67,-2.6826,-2.7012,-2.7063,-2.719,-2.741,-2.7444,-2.7444,-2.7368,-2.697,-2.67,-2.67,-2.67,-2.67,-2.67,-2.67,-2.67,-2.67,-2.67,-2.67,-2.67,-2.67,-2.67,-2.67,-2.67,-2.6766,-2.6914,-2.717,-2.737,-2.7646,-2.7936,-2.8111,-2.8237,-2.8264,-2.8369,-2.8561,-2.859,-2.8489,-2.8255,-2.8233,-2.8242,-2.8259,-2.8355,-2.8346,-2.825,-2.8237,-2.8071,-2.7722,-2.7463,-2.7224,-2.7099,-2.6841,-2.67,-2.67,-2.67,-2.67,-2.67,-2.67,-2.67,-2.67,-2.67,-2.6674,-2.6505,-2.6479,-2.653,-2.6657,-2.67,-2.67,-2.67,-2.67,-2.67,-2.67,-2.67,-2.67,-2.67,-2.67,-2.6632,-2.6513,-2.6175,-2.5961,-2.5726,-2.5476,-2.521,-2.521,-2.5267,-2.5133,-2.4989,-2.5194,-2.4863,-2.443,-2.4564,-2.4499,-2.4632,-2.5059,-2.5486,-2.5934,-2.6297,-2.6573,-2.67,-2.67,-2.67,-2.67,-2.67,-2.67,-2.67,-2.67,-2.6816,-2.67,-2.67,-2.67,-2.67,-2.67,-2.67,-2.67,-2.67,-2.67,-2.7021,-2.7469,-2.7697,-2.8027,-2.8697,-2.8688,-2.8874,-2.857,-2.752,-2.6953,-2.6953,-2.6894,-2.6835,-2.681,-2.6818,-2.6759,-2.6708,-2.67,-2.67,-2.67,-2.67,-2.6708,-2.6733,-2.675,-2.6963,-2.7303,-2.7402,-2.7718,-2.8179,-2.8359,-2.8568,-2.8929,-2.8908,-2.8917,-2.8952,-2.8952,-2.8929,-2.8914,-2.8896,-2.8839,-2.8839,-2.854,-2.8241,-2.7945,-2.7888,-2.7716,-2.7363,-2.7272,-2.7108,-2.6791,-2.6733,-2.67,-2.6674,-2.6683,-2.6615,-2.6607,-2.6564,-2.6547,-2.6505,-2.653,-2.6436,-2.6059,-2.5987,-2.6122,-2.6573,-2.6564,-2.6607,-2.659,-2.6666,-2.6666,-2.6615,-2.6581,-2.6674,-2.6649,-2.6522,-2.6349,-2.605,-2.587,-2.5697,-2.5373,-2.5174,-2.5163,-2.521,-2.5182,-2.5086,-2.5117,-2.5109,-2.4483,-2.404,-2.4389,-2.4592,-2.4824,-2.5194,-2.5633,-2.6077,-2.6376,-2.6649,-2.67,-2.67,-2.67,-2.67,-2.67,-2.67,-2.67,-2.675,-2.6923,-2.67,-2.67,-2.67,-2.67,-2.67,-2.67,-2.67,-2.67,-2.67,-2.6843,-2.7114,-2.7579,-2.7942,-2.8273,-2.8722,-2.9001,-2.895,-2.8477,-2.8282,-2.8273,-2.8265,-2.7934,-2.7503,-2.7435,-2.7182,-2.6776,-2.67,-2.67,-2.67,-2.67,-2.6833,-2.7051,-2.709,-2.7317,-2.7692,-2.7923,-2.8201,-2.8385,-2.867,-2.8893,-2.8996,-2.8996,-2.8996,-2.8996,-2.8996,-2.8884,-2.8611,-2.8586,-2.8596,-2.8568,-2.8237,-2.788,-2.756,-2.7485,-2.7295,-2.6947,-2.689,-2.6849,-2.6741,-2.67,-2.67,-2.6641,-2.6401,-2.6236,-2.6157,-2.5926,-2.5738,-2.5701,-2.5672,-2.5588,-2.5476,-2.5457,-2.5542,-2.5664,-2.598,-2.6086,-2.5845,-2.6006,-2.6006,-2.5791,-2.5988,-2.6042,-2.5783,-2.5709,-2.5699,-2.5505,-2.5202,-2.495,-2.5097,-2.4883,-2.4871,-2.5113,-2.5105,-2.5097,-2.502,-2.4934,-2.4564,-2.4233,-2.4458,-2.4724,-2.4981,-2.5373,-2.5815,-2.6165,-2.6479,-2.6632,-2.6683,-2.67,-2.67,-2.67,-2.67,-2.67,-2.67,-2.6833,-2.7027,-2.67,-2.67,-2.67,-2.67,-2.67,-2.67,-2.67,-2.67,-2.67,-2.6852,-2.719,-2.7596,-2.8002,-2.8298,-2.8798,-2.9162,-2.9382,-2.9416,-2.9397,-2.9357,-2.9086,-2.8569,-2.7824,-2.7477,-2.7199,-2.6801,-2.67,-2.67,-2.67,-2.6716,-2.6889,-2.7241,-2.7319,-2.7566,-2.8038,-2.829,-2.8446,-2.8624,-2.8872,-2.8996,-2.8996,-2.8996,-2.8996,-2.8996,-2.8996,-2.8794,-2.8424,-2.8272,-2.8215,-2.8148,-2.7874,-2.7485,-2.7131,-2.7076,-2.6963,-2.6775,-2.67,-2.67,-2.67,-2.67,-2.6607,-2.6453,-2.6332,-2.6068,-2.5844,-2.5588,-2.5719,-2.5532,-2.5717,-2.5707,-2.5551,-2.5297,-2.5136,-2.4914,-2.5384,-2.5524,-2.5297,-2.5503,-2.5577,-2.54,-2.5521,-2.5569,-2.5524,-2.5259,-2.5229,-2.5144,-2.4744,-2.4471,-2.4756,-2.4604,-2.4804,-2.5028,-2.5171,-2.5047,-2.4824,-2.4704,-2.4604,-2.4552,-2.462,-2.4851,-2.5078,-2.5559,-2.6021,-2.6306,-2.6607,-2.6657,-2.67,-2.67,-2.67,-2.67,-2.6716,-2.68,-2.6866,-2.6971,-2.7162,-2.6683,-2.6657,-2.67,-2.67,-2.67,-2.67,-2.67,-2.67,-2.67,-2.7029,-2.7553,-2.7731,-2.8171,-2.8746,-2.8908,-2.9314,-2.9913,-2.9863,-2.9803,-2.9677,-2.9271,-2.8569,-2.7807,-2.7156,-2.6793,-2.6716,-2.67,-2.67,-2.67,-2.67,-2.689,-2.7264,-2.7334,-2.7654,-2.8161,-2.835,-2.8506,-2.8797,-2.8917,-2.8919,-2.8984,-2.8996,-2.8964,-2.894,-2.8964,-2.8794,-2.8355,-2.8034,-2.7846,-2.7779,-2.7439,-2.7115,-2.6783,-2.6708,-2.6725,-2.67,-2.67,-2.67,-2.67,-2.67,-2.6556,-2.6262,-2.6375,-2.6306,-2.5633,-2.5908,-2.6096,-2.5817,-2.6113,-2.6271,-2.5817,-2.5468,-2.502,-2.4632,-2.4835,-2.4992,-2.5144,-2.5144,-2.5105,-2.5125,-2.5202,-2.5362,-2.5726,-2.5419,-2.5267,-2.5125,-2.4812,-2.4684,-2.4724,-2.4824,-2.4804,-2.5,-2.5305,-2.4981,-2.4756,-2.4644,-2.4544,-2.4532,-2.4612,-2.4831,-2.5155,-2.5678,-2.6156,-2.6453,-2.6632,-2.6674,-2.67,-2.67,-2.67,-2.67,-2.6791,-2.6914,-2.7051,-2.7147,-2.7409,-2.6496,-2.621,-2.6547,-2.67,-2.67,-2.67,-2.67,-2.67,-2.6683,-2.6759,-2.708,-2.757,-2.7839,-2.8162,-2.8712,-2.912,-2.9218,-2.9279,-2.9297,-2.9272,-2.912,-2.8552,-2.7781,-2.7063,-2.67,-2.67,-2.67,-2.67,-2.67,-2.67,-2.6915,-2.7303,-2.7319,-2.7545,-2.7973,-2.8047,-2.821,-2.8506,-2.8574,-2.8728,-2.8964,-2.8996,-2.8851,-2.8611,-2.8851,-2.8663,-2.8084,-2.7663,-2.7295,-2.7044,-2.6939,-2.6824,-2.6733,-2.67,-2.67,-2.67,-2.67,-2.67,-2.67,-2.67,-2.6632,-2.6505,-2.6332,-2.6077,-2.5844,-2.5635,-2.5588,-2.5438,-2.5561,-2.558,-2.543,-2.5278,-2.5086,-2.495,-2.4463,-2.4287,-2.4604,-2.4612,-2.4597,-2.4637,-2.4989,-2.5267,-2.54,-2.5335,-2.521,-2.5163,-2.5059,-2.4981,-2.502,-2.4989,-2.491,-2.5324,-2.5503,-2.5031,-2.4709,-2.4597,-2.4524,-2.4471,-2.4572,-2.4744,-2.5174,-2.5699,-2.6157,-2.6564,-2.6641,-2.67,-2.67,-2.67,-2.67,-2.67,-2.68,-2.693,-2.7138,-2.7301,-2.7681,-2.613,-2.5689,-2.5962,-2.607,-2.607,-2.6061,-2.6192,-2.6332,-2.6175,-2.621,-2.6424,-2.658,-2.685,-2.7087,-2.7533,-2.7926,-2.8196,-2.8412,-2.8376,-2.8163,-2.8031,-2.79,-2.7596,-2.7055,-2.67,-2.67,-2.67,-2.67,-2.67,-2.67,-2.6939,-2.7241,-2.7319,-2.75,-2.7888,-2.7903,-2.807,-2.8346,-2.8429,-2.859,-2.8973,-2.8996,-2.8764,-2.8565,-2.877,-2.8651,-2.7982,-2.7523,-2.7115,-2.6791,-2.67,-2.67,-2.67,-2.67,-2.67,-2.67,-2.67,-2.67,-2.67,-2.67,-2.6607,-2.6462,-2.6262,-2.5944,-2.5551,-2.5354,-2.5476,-2.495,-2.5059,-2.5182,-2.5171,-2.5008,-2.4764,-2.445,-2.3948,-2.3914,-2.4617,-2.4776,-2.4736,-2.4816,-2.5008,-2.5324,-2.5484,-2.5335,-2.5221,-2.5144,-2.4914,-2.4981,-2.5086,-2.5028,-2.5055,-2.5389,-2.5343,-2.4843,-2.4536,-2.4422,-2.4604,-2.4572,-2.4914,-2.5012,-2.5384,-2.589,-2.6237,-2.6598,-2.6657,-2.6716,-2.6741,-2.6741,-2.67,-2.6725,-2.6816,-2.7083,-2.7378,-2.7593,-2.7965,-2.5596,-2.5117,-2.5182,-2.521,-2.5248,-2.5221,-2.5532,-2.5762,-2.5486,-2.5524,-2.5787,-2.5446,-2.5675,-2.5906,-2.6179,-2.6327,-2.693,-2.7226,-2.7244,-2.705,-2.6928,-2.6994,-2.7486,-2.6996,-2.6716,-2.67,-2.67,-2.67,-2.67,-2.67,-2.6882,-2.7108,-2.721,-2.7402,-2.7613,-2.7745,-2.802,-2.8255,-2.8381,-2.8599,-2.8905,-2.8899,-2.8658,-2.839,-2.8442,-2.836,-2.7851,-2.7478,-2.7123,-2.6699,-2.67,-2.67,-2.67,-2.67,-2.67,-2.67,-2.67,-2.67,-2.67,-2.67,-2.6513,-2.6217,-2.6401,-2.6035,-2.5147,-2.5308,-2.543,-2.4736,-2.4934,-2.5163,-2.5136,-2.4736,-2.4422,-2.4142,-2.3879,-2.4199,-2.4883,-2.5117,-2.5059,-2.5105,-2.5105,-2.5373,-2.5588,-2.554,-2.521,-2.5182,-2.4981,-2.4981,-2.4942,-2.4784,-2.493,-2.5229,-2.4989,-2.4532,-2.4348,-2.4225,-2.4511,-2.4752,-2.5338,-2.5627,-2.5864,-2.6245,-2.6462,-2.6666,-2.6816,-2.6882,-2.689,-2.6849,-2.6866,-2.7004,-2.7257,-2.7553,-2.7846,-2.8011,-2.8303,-2.5067,-2.4604,-2.5028,-2.521,-2.521,-2.521,-2.5259,-2.5362,-2.5232,-2.5202,-2.5316,-2.524,-2.5232,-2.5357,-2.5381,-2.5478,-2.5666,-2.5862,-2.5872,-2.6247,-2.6192,-2.6443,-2.6868,-2.675,-2.6716,-2.67,-2.67,-2.67,-2.67,-2.6716,-2.675,-2.6833,-2.689,-2.6882,-2.702,-2.735,-2.7628,-2.7969,-2.8241,-2.8552,-2.8806,-2.8661,-2.8372,-2.8061,-2.7848,-2.764,-2.7493,-2.7365,-2.7099,-2.6816,-2.6683,-2.6649,-2.67,-2.67,-2.6683,-2.6641,-2.6657,-2.6674,-2.6683,-2.659,-2.647,-2.6041,-2.5997,-2.5835,-2.5202,-2.5155,-2.527,-2.5012,-2.5136,-2.5086,-2.502,-2.4684,-2.4463,-2.4435,-2.4328,-2.4389,-2.4863,-2.4491,-2.4341,-2.4524,-2.4664,-2.4792,-2.5316,-2.5343,-2.521,-2.5182,-2.5105,-2.5028,-2.4824,-2.4584,-2.4824,-2.5125,-2.4942,-2.4644,-2.4764,-2.4716,-2.4969,-2.5202,-2.5709,-2.6087,-2.6324,-2.6384,-2.6505,-2.6758,-2.6995,-2.7044,-2.7035,-2.7378,-2.7493,-2.7598,-2.7672,-2.7908,-2.8129,-2.8342,-2.8527,-2.4511,-2.4053,-2.4328,-2.4443,-2.4458,-2.4471,-2.4584,-2.4752,-2.4552,-2.4612,-2.4724,-2.4584,-2.4592,-2.4824,-2.4824,-2.4824,-2.4902,-2.5117,-2.5625,-2.62,-2.6349,-2.6479,-2.6624,-2.67,-2.67,-2.67,-2.67,-2.67,-2.67,-2.67,-2.67,-2.67,-2.67,-2.6733,-2.67,-2.6939,-2.7217,-2.7557,-2.7789,-2.8148,-2.8556,-2.8364,-2.8112,-2.7848,-2.7515,-2.7319,-2.7319,-2.7319,-2.7083,-2.6758,-2.6496,-2.6496,-2.6649,-2.6683,-2.6607,-2.641,-2.6367,-2.621,-2.6096,-2.5998,-2.5872,-2.5652,-2.5615,-2.5308,-2.4981,-2.4824,-2.4664,-2.4524,-2.443,-2.445,-2.445,-2.4246,-2.4246,-2.4287,-2.4212,-2.4171,-2.4369,-2.4348,-2.4422,-2.4704,-2.4835,-2.4961,-2.5125,-2.5047,-2.493,-2.4792,-2.4772,-2.4692,-2.4672,-2.4511,-2.4764,-2.4961,-2.4922,-2.4914,-2.5155,-2.5335,-2.5585,-2.5825,-2.6123,-2.6376,-2.6564,-2.653,-2.6462,-2.6741,-2.6995,-2.7194,-2.7288,-2.7672,-2.7888,-2.7851,-2.7908,-2.8156,-2.8364,-2.8489,-2.8679,-2.4012,-2.3595,-2.3595,-2.3595,-2.3595,-2.3638,-2.39,-2.4178,-2.3794,-2.3935,-2.4158,-2.3788,-2.3956,-2.4204,-2.4287,-2.4315,-2.4552,-2.5,-2.5662,-2.6341,-2.641,-2.6547,-2.6666,-2.67,-2.67,-2.67,-2.67,-2.67,-2.67,-2.67,-2.67,-2.67,-2.67,-2.67,-2.6708,-2.6791,-2.7019,-2.7339,-2.752,-2.7779,-2.8174,-2.7986,-2.7767,-2.7539,-2.7341,-2.7074,-2.7002,-2.6978,-2.6848,-2.6496,-2.6078,-2.6139,-2.6341,-2.6445,-2.6315,-2.5888,-2.5888,-2.5734,-2.5476,-2.5316,-2.5259,-2.5125,-2.5078,-2.4824,-2.4438,-2.4274,-2.4116,-2.3872,-2.3738,-2.3738,-2.3624,-2.3673,-2.3652,-2.3659,-2.3638,-2.3595,-2.3759,-2.445,-2.4664,-2.4764,-2.4564,-2.4544,-2.4657,-2.4664,-2.4524,-2.4438,-2.4418,-2.4438,-2.4458,-2.462,-2.4942,-2.5232,-2.5289,-2.5526,-2.5764,-2.5827,-2.6094,-2.6209,-2.6487,-2.6564,-2.67,-2.6649,-2.6581,-2.6724,-2.6947,-2.7178,-2.7411,-2.7657,-2.7831,-2.7922,-2.8006,-2.8116,-2.8334,-2.8617,-2.87,-2.3681,-2.3595,-2.3595,-2.3595,-2.3595,-2.3595,-2.3652,-2.3724,-2.3659,-2.3638,-2.3716,-2.3645,-2.3638,-2.3759,-2.373,-2.397,-2.445,-2.4953,-2.5542,-2.6104,-2.6218,-2.6375,-2.6666,-2.67,-2.67,-2.67,-2.67,-2.67,-2.67,-2.67,-2.67,-2.67,-2.67,-2.67,-2.6791,-2.6979,-2.7115,-2.7246,-2.7464,-2.7752,-2.7826,-2.7649,-2.725,-2.7031,-2.6832,-2.6615,-2.6307,-2.6202,-2.5972,-2.5497,-2.5365,-2.5384,-2.5451,-2.5478,-2.5392,-2.5381,-2.5343,-2.5229,-2.5047,-2.5097,-2.493,-2.4672,-2.4532,-2.4307,-2.3914,-2.378,-2.3767,-2.3681,-2.3595,-2.3595,-2.3595,-2.3595,-2.3595,-2.3595,-2.3595,-2.3595,-2.3659,-2.3837,-2.4074,-2.4212,-2.4067,-2.3983,-2.4122,-2.4246,-2.4191,-2.4241,-2.4356,-2.4552,-2.4752,-2.5008,-2.5343,-2.5606,-2.5854,-2.6131,-2.6445,-2.6445,-2.6539,-2.6487,-2.6624,-2.6624,-2.67,-2.67,-2.6741,-2.6783,-2.6963,-2.7241,-2.7472,-2.7681,-2.7803,-2.7917,-2.7973,-2.8001,-2.8138,-2.8295,-2.8246,-2.3595,-2.3595,-2.3595,-2.3595,-2.3595,-2.3595,-2.3595,-2.3595,-2.3595,-2.3595,-2.3595,-2.3595,-2.3595,-2.3595,-2.3595,-2.3893,-2.4422,-2.4953,-2.5486,-2.5924,-2.6254,-2.6453,-2.6683,-2.6683,-2.67,-2.67,-2.67,-2.67,-2.67,-2.67,-2.67,-2.67,-2.67,-2.67,-2.6733,-2.6857,-2.7004,-2.7057,-2.7208,-2.741,-2.7551,-2.7344,-2.6978,-2.6497,-2.6306,-2.606,-2.5689,-2.5588,-2.5468,-2.5221,-2.4942,-2.4816,-2.4724,-2.4584,-2.4524,-2.4732,-2.4792,-2.4644,-2.443,-2.4369,-2.4212,-2.4032,-2.3991,-2.3872,-2.3673,-2.3616,-2.3595,-2.3595,-2.3595,-2.3595,-2.3595,-2.3595,-2.3595,-2.3595,-2.3595,-2.3595,-2.3595,-2.3595,-2.3716,-2.385,-2.3872,-2.3837,-2.3695,-2.3773,-2.3802,-2.3985,-2.4253,-2.4612,-2.5,-2.5354,-2.5697,-2.5835,-2.6042,-2.621,-2.6479,-2.6547,-2.6674,-2.67,-2.67,-2.67,-2.67,-2.67,-2.67,-2.6733,-2.6971,-2.721,-2.7426,-2.7592,-2.7745,-2.786,-2.786,-2.7846,-2.7888,-2.7917,-2.7874,-2.3595,-2.3595,-2.3595,-2.3595,-2.3595,-2.3595,-2.3595,-2.3595,-2.3595,-2.3595,-2.3595,-2.3595,-2.3595,-2.3616,-2.3752,-2.4025,-2.445,-2.4953,-2.5486,-2.5924,-2.6131,-2.6359,-2.6522,-2.6453,-2.6367,-2.6486,-2.6504,-2.6615,-2.67,-2.67,-2.67,-2.67,-2.67,-2.67,-2.6733,-2.6741,-2.67,-2.67,-2.6716,-2.6866,-2.6973,-2.6888,-2.659,-2.5943,-2.5834,-2.5588,-2.5105,-2.5039,-2.4934,-2.4724,-2.4479,-2.4233,-2.4171,-2.3837,-2.3823,-2.4158,-2.4241,-2.3977,-2.378,-2.3659,-2.3759,-2.3673,-2.3616,-2.3595,-2.3595,-2.3595,-2.3595,-2.3595,-2.3595,-2.3595,-2.3595,-2.3595,-2.3595,-2.3595,-2.3595,-2.3595,-2.3659,-2.3716,-2.3872,-2.3914,-2.3837,-2.3935,-2.4053,-2.4163,-2.4389,-2.4592,-2.4863,-2.4942,-2.5316,-2.5633,-2.5906,-2.6016,-2.6123,-2.6219,-2.6333,-2.6384,-2.6547,-2.6683,-2.6691,-2.67,-2.67,-2.67,-2.67,-2.6716,-2.6833,-2.7076,-2.7303,-2.7387,-2.7363,-2.7409,-2.7574,-2.7589,-2.7448,-2.7433,-2.7448,-2.3595,-2.3595,-2.3595,-2.3595,-2.3595,-2.3595,-2.3595,-2.3595,-2.3595,-2.3595,-2.3595,-2.3595,-2.3595,-2.3673,-2.4053,-2.4295,-2.4511,-2.4875,-2.5354,-2.5734,-2.5644,-2.5754,-2.5934,-2.5561,-2.5854,-2.6114,-2.6145,-2.6332,-2.6564,-2.6657,-2.67,-2.67,-2.67,-2.67,-2.67,-2.67,-2.67,-2.67,-2.6683,-2.6518,-2.6165,-2.5795,-2.5532,-2.5346,-2.5267,-2.5047,-2.4592,-2.4463,-2.4348,-2.3935,-2.3794,-2.3695,-2.3681,-2.3659,-2.3624,-2.3681,-2.3688,-2.3667,-2.3595,-2.3595,-2.3595,-2.3595,-2.3595,-2.3595,-2.3595,-2.3595,-2.3595,-2.3595,-2.3595,-2.3595,-2.3595,-2.3595,-2.3595,-2.3595,-2.3595,-2.3595,-2.3616,-2.3738,-2.3914,-2.4074,-2.4019,-2.4491,-2.4784,-2.4914,-2.507,-2.5251,-2.5392,-2.5392,-2.5468,-2.5689,-2.5951,-2.5988,-2.6052,-2.6149,-2.6393,-2.6419,-2.6487,-2.6666,-2.6691,-2.67,-2.67,-2.67,-2.67,-2.6733,-2.6833,-2.6866,-2.6971,-2.6979,-2.6898,-2.6971,-2.7147,-2.7027,-2.6833,-2.6898,-2.7139,-2.3595,-2.3595,-2.3595,-2.3595,-2.3595,-2.3595,-2.3595,-2.3595,-2.3595,-2.3595,-2.3595,-2.3595,-2.3595,-2.3659,-2.3879,-2.3935,-2.4067,-2.4504,-2.4843,-2.5182,-2.5155,-2.5281,-2.5446,-2.536,-2.5491,-2.585,-2.6003,-2.6077,-2.6329,-2.6571,-2.67,-2.6657,-2.6683,-2.67,-2.6607,-2.6683,-2.67,-2.6624,-2.641,-2.6046,-2.5633,-2.53,-2.5039,-2.4756,-2.4752,-2.4458,-2.4116,-2.3943,-2.3858,-2.3595,-2.3595,-2.3595,-2.3595,-2.3595,-2.3595,-2.3595,-2.3595,-2.3595,-2.3595,-2.3573,-2.3595,-2.3595,-2.3595,-2.3595,-2.3595,-2.3595,-2.3595,-2.3595,-2.3595,-2.3595,-2.3595,-2.3595,-2.3595,-2.3595,-2.3595,-2.3595,-2.3616,-2.3745,-2.3887,-2.4061,-2.4233,-2.4592,-2.4792,-2.4552,-2.4624,-2.4934,-2.5039,-2.5059,-2.5174,-2.5373,-2.5615,-2.5852,-2.5934,-2.6006,-2.6341,-2.6547,-2.6564,-2.6674,-2.6691,-2.67,-2.67,-2.67,-2.67,-2.67,-2.6741,-2.675,-2.67,-2.6725,-2.6783,-2.6758,-2.6716,-2.67,-2.6733,-2.7004,-2.7257,-2.3595,-2.3595,-2.3595,-2.3595,-2.3595,-2.3595,-2.3595,-2.3595,-2.3595,-2.3595,-2.3595,-2.3595,-2.3595,-2.3595,-2.3624,-2.3659,-2.3638,-2.4012,-2.4266,-2.4483,-2.4644,-2.4816,-2.4882,-2.4939,-2.5103,-2.5814,-2.5725,-2.5961,-2.6256,-2.6342,-2.6401,-2.635,-2.6384,-2.6358,-2.6315,-2.6229,-2.6177,-2.6146,-2.575,-2.5357,-2.5026,-2.4821,-2.4542,-2.4307,-2.4142,-2.4019,-2.3681,-2.3624,-2.3624,-2.3595,-2.3595,-2.3595,-2.3595,-2.3595,-2.3595,-2.353,-2.3465,-2.329,-2.3377,-2.3443,-2.3551,-2.3595,-2.3595,-2.3595,-2.3595,-2.3595,-2.3595,-2.3595,-2.3595,-2.3595,-2.3595,-2.3595,-2.3595,-2.3595,-2.3595,-2.3595,-2.3638,-2.3815,-2.3879,-2.3893,-2.4074,-2.4336,-2.4356,-2.3964,-2.4061,-2.4524,-2.4684,-2.4724,-2.4824,-2.4981,-2.5117,-2.5335,-2.5569,-2.5717,-2.6148,-2.6436,-2.653,-2.6624,-2.6641,-2.6683,-2.6666,-2.6683,-2.67,-2.67,-2.67,-2.67,-2.67,-2.67,-2.67,-2.67,-2.67,-2.67,-2.6791,-2.706,-2.7194,-2.3595,-2.3595,-2.3595,-2.3595,-2.3595,-2.3595,-2.3595,-2.3595,-2.3595,-2.3595,-2.3595,-2.3595,-2.3595,-2.3595,-2.3595,-2.3595,-2.3595,-2.3645,-2.3935,-2.4074,-2.4019,-2.4178,-2.4305,-2.4354,-2.4426,-2.5251,-2.5511,-2.595,-2.6315,-2.6162,-2.5845,-2.543,-2.5835,-2.5672,-2.5561,-2.558,-2.5472,-2.5351,-2.4952,-2.4651,-2.4384,-2.4117,-2.3802,-2.3759,-2.3673,-2.3616,-2.3595,-2.3595,-2.3595,-2.3595,-2.3486,-2.3457,-2.3414,-2.3311,-2.3267,-2.3194,-2.295,-2.2741,-2.2681,-2.3032,-2.3457,-2.3551,-2.3479,-2.3311,-2.3238,-2.3486,-2.3559,-2.3406,-2.3319,-2.3486,-2.3508,-2.3595,-2.3595,-2.3595,-2.3595,-2.3595,-2.3695,-2.3948,-2.3991,-2.3822,-2.3906,-2.4116,-2.4116,-2.3759,-2.3844,-2.4295,-2.4422,-2.4463,-2.4369,-2.4471,-2.4511,-2.4704,-2.5039,-2.5373,-2.5878,-2.6059,-2.6086,-2.6263,-2.6393,-2.6513,-2.6607,-2.6641,-2.67,-2.67,-2.67,-2.67,-2.67,-2.67,-2.67,-2.67,-2.6716,-2.675,-2.6825,-2.702,-2.702,-2.3595,-2.3595,-2.3595,-2.3595,-2.3595,-2.3595,-2.3595,-2.3595,-2.3595,-2.3595,-2.3595,-2.3595,-2.3595,-2.3595,-2.3595,-2.3595,-2.3595,-2.3595,-2.378,-2.3802,-2.3759,-2.3935,-2.4114,-2.44,-2.465,-2.5464,-2.5705,-2.5786,-2.6143,-2.6031,-2.5433,-2.5163,-2.5259,-2.5362,-2.5248,-2.5067,-2.4956,-2.4697,-2.4489,-2.4291,-2.3886,-2.3764,-2.3595,-2.3595,-2.3595,-2.3595,-2.3595,-2.3595,-2.3595,-2.3479,-2.3209,-2.3091,-2.2972,-2.2726,-2.2546,-2.247,-2.2163,-2.1848,-2.1608,-2.2021,-2.2409,-2.2432,-2.2416,-2.2492,-2.2576,-2.2485,-2.2446,-2.2522,-2.2831,-2.3031,-2.3054,-2.3348,-2.3595,-2.3595,-2.3551,-2.353,-2.3652,-2.3864,-2.392,-2.3701,-2.3687,-2.3794,-2.3738,-2.3616,-2.3823,-2.4069,-2.4129,-2.4184,-2.4088,-2.4116,-2.4253,-2.443,-2.4776,-2.5051,-2.5513,-2.5596,-2.5615,-2.5854,-2.6096,-2.6175,-2.6289,-2.6641,-2.6674,-2.67,-2.6624,-2.6522,-2.6539,-2.6657,-2.67,-2.6674,-2.6741,-2.6825,-2.6915,-2.6988,-2.6939,-2.3595,-2.3595,-2.3595,-2.3595,-2.3595,-2.3595,-2.3595,-2.3595,-2.3595,-2.3595,-2.3595,-2.3595,-2.3595,-2.3595,-2.3595,-2.3595,-2.3659,-2.378,-2.3829,-2.3948,-2.4137,-2.4287,-2.4525,-2.478,-2.5092,-2.5835,-2.6005,-2.6026,-2.6047,-2.5855,-2.5243,-2.4764,-2.4592,-2.4652,-2.4672,-2.4712,-2.4524,-2.4246,-2.4116,-2.404,-2.3624,-2.3602,-2.3595,-2.3595,-2.3595,-2.3414,-2.3326,-2.3238,-2.3084,-2.2898,-2.262,-2.2452,-2.2246,-2.1993,-2.1642,-2.1407,-2.1136,-2.0768,-2.0433,-2.084,-2.1431,-2.1808,-2.1838,-2.1798,-2.1697,-2.1673,-2.1892,-2.1845,-2.22,-2.2429,-2.2475,-2.286,-2.3187,-2.3165,-2.3194,-2.3201,-2.3377,-2.3551,-2.3601,-2.3566,-2.3587,-2.3638,-2.3587,-2.3551,-2.358,-2.3773,-2.3858,-2.3893,-2.3872,-2.397,-2.4204,-2.4402,-2.4684,-2.4914,-2.5155,-2.5251,-2.5354,-2.543,-2.5635,-2.5707,-2.588,-2.621,-2.6272,-2.6043,-2.6026,-2.6185,-2.6176,-2.6052,-2.6333,-2.6649,-2.6683,-2.6691,-2.6825,-2.6882,-2.6939,-2.3581,-2.3595,-2.3595,-2.3595,-2.3551,-2.3595,-2.3595,-2.3595,-2.3595,-2.3595,-2.3595,-2.3595,-2.3595,-2.3595,-2.3595,-2.3595,-2.3673,-2.4032,-2.4191,-2.4212,-2.4511,-2.4961,-2.511,-2.5222,-2.5462,-2.5859,-2.6071,-2.6111,-2.5908,-2.5562,-2.495,-2.4422,-2.4116,-2.3879,-2.3695,-2.3659,-2.363,-2.363,-2.3673,-2.363,-2.3609,-2.3595,-2.3573,-2.3443,-2.3443,-2.3216,-2.2815,-2.2703,-2.2499,-2.2156,-2.1892,-2.168,-2.1493,-2.1373,-2.1001,-2.0451,-1.9978,-1.941,-1.8841,-1.9933,-2.0539,-2.1094,-2.1004,-2.118,-2.1482,-2.1578,-2.1537,-2.1431,-2.1751,-2.1859,-2.203,-2.2392,-2.277,-2.2868,-2.2927,-2.2994,-2.3194,-2.337,-2.3457,-2.3326,-2.3435,-2.3551,-2.3522,-2.3479,-2.3406,-2.3471,-2.3573,-2.3616,-2.3638,-2.3773,-2.4004,-2.4129,-2.4348,-2.4483,-2.4664,-2.4942,-2.5078,-2.5136,-2.5174,-2.521,-2.5278,-2.5497,-2.547,-2.5338,-2.5489,-2.5738,-2.5553,-2.5335,-2.5926,-2.647,-2.6453,-2.6487,-2.6632,-2.6683,-2.664,-2.3377,-2.3031,-2.3435,-2.3377,-2.3098,-2.3443,-2.3595,-2.3595,-2.3595,-2.3595,-2.3595,-2.3595,-2.3595,-2.3595,-2.3595,-2.3595,-2.3652,-2.3673,-2.3879,-2.3977,-2.4504,-2.4863,-2.5142,-2.5496,-2.5765,-2.6034,-2.6202,-2.5954,-2.5453,-2.5203,-2.4906,-2.441,-2.3858,-2.3638,-2.3595,-2.3595,-2.3595,-2.3595,-2.3595,-2.3595,-2.3595,-2.3551,-2.3392,-2.3031,-2.2987,-2.268,-2.2107,-2.206,-2.1828,-2.1452,-2.1211,-2.0803,-2.0381,-2.013,-1.9454,-1.8837,-1.8326,-1.824,-1.7828,-1.819,-1.8472,-1.9247,-1.9889,-2.0099,-2.0326,-2.0439,-2.0645,-2.1088,-2.1376,-2.167,-2.2376,-2.2928,-2.3209,-2.2935,-2.292,-2.2994,-2.315,-2.3348,-2.3435,-2.3054,-2.2987,-2.2733,-2.2606,-2.2741,-2.2764,-2.2965,-2.3084,-2.3414,-2.353,-2.3595,-2.3752,-2.3759,-2.3879,-2.3998,-2.4171,-2.4389,-2.443,-2.4369,-2.4511,-2.4672,-2.4764,-2.4855,-2.4992,-2.5031,-2.5147,-2.527,-2.5213,-2.5289,-2.5872,-2.6279,-2.6096,-2.5936,-2.591,-2.599,-2.6026,-2.337,-2.3054,-2.3443,-2.3399,-2.3106,-2.3435,-2.3595,-2.3595,-2.3595,-2.3595,-2.3595,-2.3595,-2.3595,-2.3595,-2.3595,-2.3595,-2.3616,-2.3815,-2.39,-2.3964,-2.445,-2.4883,-2.5259,-2.5516,-2.557,-2.5832,-2.5886,-2.5695,-2.4952,-2.4914,-2.4592,-2.4116,-2.378,-2.3638,-2.3595,-2.3595,-2.3595,-2.3595,-2.3573,-2.3465,-2.3334,-2.3172,-2.2957,-2.2529,-2.2262,-2.206,-2.1588,-2.1311,-2.1145,-2.0748,-2.025,-1.9716,-1.9049,-1.8552,-1.7928,-1.744,-1.6934,-1.6873,-1.6659,-1.6523,-1.6997,-1.7824,-1.828,-1.9038,-1.9605,-1.994,-2.0093,-2.0459,-2.0904,-2.1269,-2.1802,-2.2462,-2.2643,-2.23,-2.233,-2.2353,-2.2552,-2.2726,-2.2681,-2.2353,-2.2253,-2.1953,-2.1758,-2.1845,-2.1986,-2.2278,-2.259,-2.2943,-2.3326,-2.3508,-2.3573,-2.3624,-2.3645,-2.3759,-2.3794,-2.3794,-2.3773,-2.3616,-2.3858,-2.4178,-2.4158,-2.4246,-2.4483,-2.4664,-2.4592,-2.4624,-2.4984,-2.53,-2.5553,-2.5606,-2.5457,-2.5316,-2.5194,-2.5403,-2.5662,-2.3595,-2.3573,-2.3595,-2.3573,-2.3551,-2.3559,-2.3595,-2.3595,-2.3595,-2.3595,-2.3595,-2.3595,-2.3595,-2.3595,-2.3595,-2.3595,-2.3638,-2.4053,-2.4158,-2.4377,-2.4652,-2.4961,-2.5078,-2.5224,-2.5274,-2.5234,-2.5242,-2.5174,-2.4443,-2.4197,-2.3933,-2.3637,-2.3326,-2.3216,-2.3216,-2.3216,-2.3267,-2.3326,-2.3201,-2.2972,-2.2725,-2.2627,-2.2186,-2.1751,-2.1544,-2.1128,-2.07,-2.0433,-1.9864,-1.9322,-1.8729,-1.8215,-1.7808,-1.7539,-1.7057,-1.6386,-1.5589,-1.5386,-1.5269,-1.5157,-1.5574,-1.6391,-1.7578,-1.867,-1.9307,-1.9469,-1.9702,-1.9933,-2.0295,-2.0213,-2.0383,-2.085,-2.129,-2.1224,-2.1199,-2.1355,-2.1575,-2.1646,-2.1582,-2.1486,-2.1496,-2.1369,-2.128,-2.1297,-2.1035,-2.118,-2.1517,-2.2079,-2.2546,-2.3435,-2.3522,-2.3595,-2.3595,-2.3595,-2.3595,-2.3595,-2.3595,-2.3595,-2.3595,-2.3794,-2.3716,-2.3738,-2.3956,-2.4053,-2.3844,-2.404,-2.4764,-2.4942,-2.4883,-2.493,-2.5324,-2.524,-2.5289,-2.5384,-2.5542,-2.3348,-2.3009,-2.3414,-2.337,-2.3061,-2.3414,-2.3595,-2.3595,-2.3595,-2.3595,-2.3595,-2.3595,-2.3522,-2.3595,-2.3595,-2.3573,-2.3616,-2.3745,-2.3773,-2.4004,-2.4264,-2.4516,-2.4716,-2.4867,-2.4885,-2.487,-2.4808,-2.4667,-2.3914,-2.3543,-2.3275,-2.2935,-2.2704,-2.2508,-2.2386,-2.2241,-2.2492,-2.2643,-2.2439,-2.2202,-2.1969,-2.1838,-2.1222,-2.0629,-2.068,-2.0111,-1.9206,-1.925,-1.8729,-1.808,-1.7895,-1.7379,-1.6048,-1.5911,-1.5496,-1.4177,-1.3781,-1.3666,-1.3696,-1.3691,-1.4058,-1.4852,-1.5805,-1.6936,-1.7867,-1.8617,-1.904,-1.927,-1.9671,-1.9754,-1.994,-2.0325,-2.0438,-2.0332,-2.0408,-2.0668,-2.0846,-2.071,-2.0624,-2.0457,-2.0493,-2.0294,-2.03,-2.0263,-2.0029,-2.008,-2.0337,-2.0942,-2.1801,-2.2704,-2.3479,-2.3551,-2.3595,-2.3595,-2.3595,-2.3595,-2.3595,-2.3595,-2.3595,-2.3595,-2.3638,-2.3638,-2.3595,-2.3638,-2.3724,-2.4199,-2.4879,-2.491,-2.4843,-2.5362,-2.5742,-2.5513,-2.5365,-2.5365,-2.527,-2.3046,-2.2815,-2.3341,-2.3253,-2.2837,-2.3083,-2.3113,-2.2935,-2.3113,-2.3348,-2.3551,-2.3326,-2.3231,-2.3216,-2.3187,-2.3061,-2.2764,-2.2764,-2.2779,-2.2899,-2.3506,-2.3607,-2.3889,-2.4292,-2.4297,-2.4302,-2.4289,-2.4165,-2.3537,-2.3268,-2.3061,-2.2701,-2.2193,-2.1946,-2.169,-2.1294,-2.1094,-2.1287,-2.1311,-2.1136,-2.0935,-2.0652,-1.9788,-1.9259,-1.9472,-1.8652,-1.7835,-1.8085,-1.766,-1.6902,-1.6695,-1.5944,-1.4726,-1.4328,-1.4243,-1.3213,-1.3156,-1.3156,-1.3187,-1.3126,-1.3309,-1.3614,-1.4107,-1.476,-1.603,-1.7042,-1.7697,-1.8232,-1.8913,-1.9453,-1.9769,-1.9997,-1.9756,-1.9517,-1.9794,-2.0092,-2.0003,-1.9864,-1.9647,-1.9407,-1.9212,-1.8988,-1.8921,-1.8959,-1.8953,-1.8891,-1.9085,-1.9616,-2.0717,-2.1997,-2.2965,-2.3551,-2.3573,-2.3595,-2.3493,-2.3231,-2.326,-2.3311,-2.3595,-2.3595,-2.3573,-2.3595,-2.3595,-2.3695,-2.3815,-2.4212,-2.456,-2.491,-2.5039,-2.5476,-2.5678,-2.5457,-2.5174,-2.5039,-2.4883,-2.2626,-2.2649,-2.3209,-2.3046,-2.2642,-2.2596,-2.23,-2.1788,-2.2307,-2.2838,-2.3187,-2.2845,-2.2612,-2.2605,-2.2605,-2.2331,-2.2132,-2.2009,-2.2186,-2.1821,-2.2636,-2.2995,-2.3275,-2.3334,-2.3694,-2.3623,-2.3515,-2.3478,-2.337,-2.2972,-2.2543,-2.261,-2.2221,-2.1741,-2.1132,-2.023,-1.9826,-1.9628,-1.9623,-1.9451,-1.9378,-1.8889,-1.8214,-1.7742,-1.7677,-1.7512,-1.7313,-1.7075,-1.6718,-1.5682,-1.4935,-1.4332,-1.3541,-1.281,-1.2726,-1.2569,-1.2328,-1.2232,-1.2235,-1.2239,-1.2485,-1.2692,-1.2879,-1.3166,-1.4196,-1.5638,-1.6441,-1.6743,-1.7285,-1.7804,-1.8126,-1.8693,-1.8747,-1.8632,-1.8753,-1.8846,-1.8761,-1.8655,-1.8587,-1.8424,-1.837,-1.8172,-1.8172,-1.8259,-1.8091,-1.7884,-1.8072,-1.8587,-1.9232,-2.0702,-2.1562,-2.2535,-2.249,-2.2286,-2.2362,-2.2234,-2.2617,-2.2877,-2.3054,-2.3165,-2.2862,-2.3143,-2.3595,-2.3673,-2.3738,-2.3773,-2.404,-2.4443,-2.4796,-2.5,-2.5163,-2.5182,-2.4992,-2.4625,-2.4784,-2.1946,-2.1953,-2.2079,-2.2056,-2.1953,-2.1929,-2.1852,-2.1649,-2.1338,-2.1636,-2.2032,-2.2016,-2.1953,-2.196,-2.196,-2.1781,-2.1703,-2.1489,-2.1983,-2.223,-2.2573,-2.2807,-2.3246,-2.3355,-2.3326,-2.3031,-2.2852,-2.2695,-2.24,-2.1976,-2.17,-2.1765,-2.1287,-2.0594,-2.0142,-1.9141,-1.8528,-1.8093,-1.7252,-1.7443,-1.774,-1.7834,-1.7528,-1.7107,-1.694,-1.6317,-1.5993,-1.5553,-1.4798,-1.387,-1.3614,-1.2988,-1.2166,-1.1507,-1.0853,-1.0468,-1.0839,-1.0801,-1.0707,-1.0871,-1.1121,-1.1371,-1.1555,-1.1923,-1.2716,-1.4118,-1.4931,-1.5124,-1.5566,-1.6061,-1.6557,-1.7203,-1.7759,-1.7704,-1.771,-1.7627,-1.7512,-1.749,-1.7495,-1.7368,-1.7396,-1.7435,-1.7407,-1.7357,-1.7246,-1.7324,-1.7594,-1.785,-1.7749,-1.8585,-1.9055,-1.9868,-2.0378,-2.0409,-2.0757,-2.1066,-2.1396,-2.1481,-2.1535,-2.1774,-2.2057,-2.2353,-2.2647,-2.334,-2.3638,-2.3179,-2.3179,-2.4099,-2.4419,-2.411,-2.403,-2.3783,-2.3968,-2.3775,-2.4381,-2.1293,-2.1293,-2.1293,-2.13,-2.13,-2.1293,-2.1148,-2.0886,-2.082,-2.0807,-2.0922,-2.1148,-2.13,-2.13,-2.13,-2.1207,-2.1159,-2.0953,-2.1407,-2.196,-2.2292,-2.2657,-2.298,-2.3187,-2.3039,-2.2717,-2.2346,-2.2023,-2.1513,-2.1479,-2.1407,-2.0808,-1.994,-1.931,-1.8776,-1.7823,-1.7075,-1.6522,-1.5051,-1.4964,-1.5687,-1.5606,-1.5438,-1.5201,-1.5022,-1.4607,-1.4494,-1.4049,-1.3459,-1.2465,-1.1819,-1.1232,-1.0486,-0.9856,-0.9288,-0.9064,-0.9125,-0.9256,-0.9032,-0.9163,-0.9547,-0.9824,-0.979,-0.9955,-0.9895,-1.1163,-1.2203,-1.2591,-1.4436,-1.5158,-1.524,-1.5731,-1.6366,-1.658,-1.6777,-1.6889,-1.6608,-1.6358,-1.5778,-1.4979,-1.5235,-1.5773,-1.5812,-1.6047,-1.5876,-1.5554,-1.6004,-1.5792,-1.5912,-1.6322,-1.6791,-1.7474,-1.8154,-1.9127,-1.9925,-2.005,-2.0025,-2.0063,-2.0026,-2.0429,-2.0801,-2.1254,-2.1713,-2.1983,-2.1999,-2.1631,-2.1928,-2.2658,-2.2398,-2.1706,-2.1905,-2.2177,-2.2466,-2.2621,-2.2614,-2.0374,-2.0395,-2.0484,-2.0434,-2.0402,-2.037,-2.0048,-1.9644,-2.0099,-2.0029,-1.9593,-2.0054,-2.037,-2.0515,-2.0408,-2.0402,-2.0188,-1.9658,-2.0262,-2.1059,-2.1342,-2.1862,-2.2285,-2.2559,-2.2399,-2.1983,-2.1459,-2.1229,-2.0906,-2.0472,-1.9769,-1.9422,-1.8988,-1.8475,-1.7214,-1.6082,-1.5211,-1.4726,-1.3802,-1.2954,-1.284,-1.2909,-1.3239,-1.3178,-1.287,-1.2814,-1.2753,-1.2435,-1.2066,-1.1197,-1.0072,-0.9633,-0.925,-0.8737,-0.8248,-0.8024,-0.8221,-0.8186,-0.7959,-0.8121,-0.8218,-0.8183,-0.7959,-0.7957,-0.8021,-0.8594,-0.9669,-1.0753,-1.257,-1.3494,-1.3575,-1.3967,-1.4568,-1.4959,-1.524,-1.5467,-1.5071,-1.4734,-1.3809,-1.277,-1.3237,-1.3838,-1.403,-1.4294,-1.4223,-1.3879,-1.3644,-1.3313,-1.3287,-1.3884,-1.4418,-1.5429,-1.6395,-1.7506,-1.8535,-1.8684,-1.8401,-1.8507,-1.8512,-1.9048,-1.9604,-2.0237,-2.044,-2.0056,-2.0,-2.0143,-2.0118,-2.0541,-2.0049,-1.9787,-2.0392,-2.0911,-2.0732,-2.0759,-2.0222,-1.8342,-1.8269,-1.8856,-1.8782,-1.8317,-1.8257,-1.8134,-1.807,-1.8215,-1.8112,-1.8194,-1.8172,-1.8483,-1.9079,-1.843,-1.8418,-1.8858,-1.8403,-1.8996,-1.9877,-2.0211,-2.0935,-2.1401,-2.1421,-2.1472,-2.0784,-1.9858,-1.9349,-1.9096,-1.8192,-1.7665,-1.775,-1.6508,-1.5989,-1.5572,-1.4579,-1.3826,-1.3219,-1.2403,-1.1533,-1.1494,-1.19,-1.2879,-1.2771,-1.2304,-1.1662,-1.1037,-1.0269,-0.9524,-0.8846,-0.8509,-0.8318,-0.8059,-0.7795,-0.727,-0.6841,-0.707,-0.7037,-0.6907,-0.7,-0.7033,-0.7365,-0.7333,-0.7398,-0.7497,-0.7665,-0.8297,-0.8353,-0.9715,-1.0396,-1.0701,-1.1376,-1.1978,-1.2012,-1.2179,-1.2179,-1.2012,-1.1894,-1.1518,-1.1173,-1.1265,-1.1453,-1.1361,-1.1618,-1.1775,-1.161,-1.1679,-1.1474,-1.1847,-1.2031,-1.2212,-1.3429,-1.4717,-1.5216,-1.6017,-1.6608,-1.6613,-1.6742,-1.7131,-1.7796,-1.8533,-1.9395,-1.9446,-1.871,-1.8938,-1.9293,-1.9222,-1.8632,-1.8958,-1.8946,-1.9414,-1.9712,-1.9338,-1.883,-1.8248]}]]